[[{"header":{"parameterUnit":"m.s-1","parameterCategory":1,"la1":30.6,"la2":29.2853,"lo1":-89.7004,"lo2":-87.6739,"dy":0.0162,"dx":0.0183,"nx":112,"ny":82,"refTime":"2023-04-17T12:00:00:Z","depth":0,"parameterNumber":2,"parameterNumberName":"U-component_of_WINDS"},"data":[0.0,0.0,0.0,0.0,0.0,0.0,0.0,0.0,0.0,0.0,0.0,0.0,0.0,0.0,0.0,0.0,0.0,0.0,0.0,0.0,0.0,0.0,0.0,0.0,0.0,0.0,0.0,0.0,0.0,0.0,0.0,0.0,0.0,0.0,0.0,0.0,0.0,0.0,0.0,0.0,0.0,0.0,0.0,0.0,0.0,0.0,0.0,0.0,0.0,0.0,0.0,0.0,0.0,0.0,0.0,0.0,0.0,0.0,0.0,0.0,0.0,0.0,0.0,0.0,0.0,0.0,0.0,0.0,0.0,0.0,0.0,0.0,0.0,0.0,0.0,0.0,0.0,0.0,0.0,0.0,0.0,0.0,0.0,0.0,0.0,0.0,0.0,0.0,0.0,0.0,-4.0713,-4.5173,-4.8666,-5.1189,-5.2499,-5.3259,-5.3826,-5.4252,0.0,0.0,0.0,0.0,0.0,0.0,0.0,0.0,0.0,0.0,0.0,0.0,0.0,0.0,0.0,0.0,0.0,0.0,0.0,0.0,0.0,0.0,0.0,0.0,0.0,0.0,0.0,0.0,0.0,0.0,0.0,0.0,0.0,0.0,0.0,0.0,0.0,0.0,0.0,0.0,0.0,0.0,0.0,0.0,0.0,0.0,0.0,0.0,0.0,0.0,0.0,0.0,0.0,0.0,0.0,0.0,0.0,0.0,0.0,0.0,0.0,0.0,0.0,0.0,0.0,0.0,0.0,0.0,0.0,0.0,0.0,0.0,0.0,0.0,0.0,0.0,0.0,0.0,0.0,0.0,0.0,0.0,0.0,0.0,0.0,0.0,0.0,0.0,0.0,0.0,0.0,0.0,0.0,0.0,0.0,0.0,0.0,0.0,0.0,0.0,0.0,0.0,0.0,0.0,-4.1799,-4.7078,-4.994,-5.1937,-5.3179,-5.4226,-5.4893,-5.4995,0.0,0.0,0.0,0.0,0.0,0.0,0.0,0.0,0.0,0.0,0.0,0.0,0.0,0.0,0.0,0.0,0.0,0.0,0.0,0.0,0.0,0.0,0.0,0.0,0.0,0.0,0.0,0.0,0.0,0.0,0.0,0.0,0.0,0.0,0.0,0.0,0.0,0.0,0.0,0.0,0.0,0.0,0.0,0.0,0.0,0.0,0.0,0.0,0.0,0.0,0.0,0.0,0.0,0.0,0.0,0.0,0.0,0.0,0.0,0.0,0.0,0.0,0.0,0.0,0.0,0.0,0.0,0.0,0.0,0.0,0.0,0.0,0.0,0.0,0.0,0.0,0.0,0.0,0.0,0.0,0.0,0.0,0.0,0.0,0.0,0.0,0.0,0.0,0.0,0.0,0.0,0.0,0.0,0.0,0.0,0.0,0.0,0.0,0.0,0.0,0.0,0.0,0.0,-4.2919,-4.5665,-5.0667,-5.207,-5.3335,-5.5098,-5.5598,-5.582,-5.5877,-5.5748,0.0,0.0,0.0,0.0,0.0,0.0,0.0,0.0,0.0,0.0,0.0,0.0,0.0,0.0,0.0,0.0,0.0,0.0,0.0,0.0,0.0,0.0,0.0,0.0,0.0,0.0,0.0,0.0,0.0,0.0,0.0,0.0,0.0,0.0,0.0,0.0,0.0,0.0,0.0,0.0,0.0,0.0,0.0,0.0,0.0,0.0,0.0,0.0,0.0,0.0,0.0,0.0,0.0,0.0,0.0,0.0,0.0,0.0,0.0,0.0,0.0,0.0,0.0,0.0,0.0,0.0,0.0,0.0,0.0,0.0,0.0,0.0,0.0,0.0,0.0,0.0,0.0,0.0,0.0,0.0,0.0,0.0,0.0,0.0,0.0,0.0,0.0,0.0,0.0,0.0,0.0,0.0,0.0,0.0,0.0,0.0,0.0,0.0,0.0,0.0,0.0,0.0,-4.6454,-4.8453,-5.3034,-5.3734,-5.4642,-5.6606,-5.6866,-5.6967,-5.7037,-5.6901,0.0,0.0,0.0,0.0,0.0,0.0,0.0,0.0,0.0,0.0,0.0,0.0,0.0,0.0,0.0,0.0,0.0,0.0,0.0,0.0,0.0,0.0,0.0,0.0,0.0,0.0,0.0,0.0,0.0,0.0,0.0,0.0,0.0,0.0,0.0,0.0,0.0,0.0,0.0,0.0,0.0,0.0,0.0,0.0,0.0,0.0,0.0,0.0,0.0,0.0,0.0,0.0,0.0,0.0,0.0,0.0,0.0,0.0,0.0,0.0,0.0,0.0,0.0,0.0,0.0,0.0,0.0,0.0,0.0,0.0,0.0,0.0,0.0,0.0,0.0,0.0,0.0,0.0,0.0,0.0,0.0,0.0,0.0,0.0,0.0,0.0,0.0,0.0,0.0,0.0,0.0,0.0,0.0,0.0,0.0,0.0,0.0,0.0,0.0,0.0,0.0,0.0,-4.6268,-4.7659,-5.2358,-5.4026,-5.5315,-5.6606,-5.7843,-5.854,-5.8551,-5.8674,0.0,0.0,0.0,0.0,0.0,0.0,0.0,0.0,0.0,0.0,0.0,0.0,0.0,0.0,0.0,0.0,0.0,0.0,0.0,0.0,0.0,0.0,0.0,0.0,0.0,0.0,0.0,0.0,0.0,0.0,0.0,0.0,0.0,0.0,0.0,0.0,0.0,0.0,0.0,0.0,0.0,0.0,0.0,0.0,0.0,0.0,0.0,0.0,0.0,0.0,0.0,0.0,0.0,0.0,0.0,0.0,0.0,0.0,0.0,0.0,0.0,0.0,0.0,0.0,0.0,0.0,0.0,0.0,0.0,0.0,0.0,0.0,0.0,0.0,0.0,0.0,0.0,0.0,0.0,0.0,0.0,0.0,0.0,0.0,0.0,0.0,0.0,0.0,0.0,0.0,0.0,0.0,0.0,0.0,0.0,0.0,0.0,0.0,0.0,0.0,0.0,0.0,-5.0076,-5.1274,-5.6233,-5.7155,-5.7932,-5.9344,-5.9436,-5.9481,-5.9581,0.0,0.0,0.0,0.0,0.0,0.0,0.0,0.0,0.0,0.0,0.0,0.0,0.0,0.0,0.0,0.0,0.0,0.0,0.0,0.0,0.0,0.0,0.0,0.0,0.0,0.0,0.0,0.0,0.0,0.0,0.0,0.0,0.0,0.0,0.0,0.0,0.0,0.0,0.0,0.0,0.0,0.0,0.0,0.0,0.0,0.0,0.0,0.0,0.0,0.0,0.0,0.0,0.0,0.0,0.0,0.0,0.0,0.0,0.0,0.0,0.0,0.0,0.0,0.0,0.0,0.0,0.0,0.0,0.0,0.0,0.0,0.0,0.0,0.0,0.0,0.0,0.0,0.0,0.0,0.0,0.0,0.0,0.0,0.0,0.0,0.0,0.0,0.0,0.0,0.0,0.0,0.0,0.0,0.0,0.0,0.0,0.0,0.0,0.0,0.0,0.0,0.0,-5.3009,-5.2126,-5.3136,-5.8347,-5.8976,-5.9493,-6.0723,-6.0493,-6.0356,-6.0472,0.0,0.0,0.0,0.0,0.0,0.0,0.0,0.0,0.0,0.0,0.0,0.0,0.0,0.0,0.0,0.0,0.0,0.0,0.0,0.0,0.0,0.0,0.0,0.0,0.0,0.0,0.0,0.0,0.0,0.0,0.0,0.0,0.0,0.0,0.0,0.0,0.0,0.0,0.0,0.0,0.0,0.0,0.0,0.0,0.0,0.0,0.0,0.0,0.0,0.0,0.0,0.0,0.0,0.0,0.0,0.0,0.0,0.0,0.0,0.0,0.0,0.0,0.0,0.0,0.0,0.0,0.0,0.0,0.0,0.0,0.0,0.0,0.0,0.0,0.0,0.0,0.0,0.0,0.0,0.0,0.0,0.0,0.0,0.0,0.0,0.0,0.0,0.0,0.0,0.0,0.0,0.0,0.0,0.0,0.0,0.0,0.0,0.0,0.0,0.0,0.0,0.0,-5.3009,-5.1629,-5.2303,-5.7782,-5.885,-5.9502,-6.0163,-6.0793,-6.1227,0.0,0.0,0.0,0.0,0.0,0.0,0.0,0.0,0.0,0.0,0.0,0.0,0.0,0.0,0.0,0.0,0.0,0.0,0.0,0.0,0.0,0.0,0.0,0.0,0.0,0.0,0.0,0.0,0.0,0.0,0.0,0.0,0.0,0.0,0.0,0.0,0.0,0.0,0.0,0.0,0.0,0.0,0.0,0.0,0.0,0.0,0.0,0.0,0.0,0.0,0.0,0.0,0.0,0.0,0.0,0.0,0.0,0.0,0.0,0.0,0.0,0.0,0.0,0.0,0.0,0.0,0.0,0.0,0.0,0.0,0.0,0.0,0.0,0.0,0.0,0.0,0.0,0.0,0.0,0.0,0.0,0.0,0.0,0.0,0.0,0.0,0.0,0.0,0.0,0.0,0.0,0.0,0.0,0.0,0.0,0.0,0.0,0.0,0.0,0.0,0.0,0.0,0.0,-5.6154,-5.556,-5.6113,-5.9881,-6.0179,-6.0293,-6.0708,-6.0679,-6.0817,-6.1288,0.0,0.0,0.0,0.0,0.0,0.0,0.0,0.0,0.0,0.0,0.0,0.0,0.0,0.0,0.0,0.0,0.0,0.0,0.0,0.0,0.0,0.0,0.0,0.0,0.0,0.0,0.0,0.0,0.0,0.0,0.0,0.0,0.0,0.0,0.0,0.0,0.0,0.0,0.0,0.0,0.0,0.0,0.0,0.0,0.0,0.0,0.0,0.0,0.0,0.0,0.0,0.0,0.0,0.0,0.0,0.0,0.0,0.0,0.0,0.0,0.0,0.0,0.0,0.0,0.0,0.0,0.0,0.0,0.0,0.0,0.0,0.0,0.0,0.0,0.0,0.0,0.0,0.0,0.0,0.0,0.0,0.0,0.0,0.0,0.0,0.0,0.0,0.0,0.0,0.0,0.0,0.0,0.0,0.0,0.0,0.0,0.0,0.0,0.0,0.0,0.0,0.0,-5.7641,-5.7175,-5.7662,-6.0692,-6.0631,-6.0547,-6.0889,-6.0612,-6.0633,-6.1197,0.0,0.0,0.0,0.0,0.0,0.0,0.0,0.0,0.0,0.0,0.0,0.0,0.0,0.0,0.0,0.0,0.0,0.0,0.0,0.0,0.0,0.0,0.0,0.0,0.0,0.0,0.0,0.0,0.0,0.0,0.0,0.0,0.0,0.0,0.0,0.0,0.0,0.0,0.0,0.0,0.0,0.0,0.0,0.0,0.0,0.0,0.0,0.0,0.0,0.0,0.0,0.0,0.0,0.0,0.0,0.0,0.0,0.0,0.0,0.0,0.0,0.0,0.0,0.0,0.0,0.0,0.0,0.0,0.0,0.0,0.0,0.0,0.0,0.0,0.0,0.0,0.0,0.0,0.0,0.0,0.0,0.0,0.0,0.0,0.0,0.0,0.0,0.0,0.0,0.0,0.0,0.0,0.0,0.0,0.0,0.0,0.0,0.0,0.0,0.0,0.0,0.0,-5.8069,-5.745,-5.7776,-6.0505,-6.0427,-6.0302,-6.0691,-6.0487,-6.0515,-6.1004,0.0,0.0,0.0,0.0,0.0,0.0,0.0,0.0,0.0,0.0,0.0,0.0,0.0,0.0,0.0,0.0,0.0,0.0,0.0,0.0,0.0,0.0,0.0,0.0,0.0,0.0,0.0,0.0,0.0,0.0,0.0,0.0,0.0,0.0,0.0,0.0,0.0,0.0,0.0,0.0,0.0,0.0,0.0,0.0,0.0,0.0,0.0,0.0,0.0,0.0,0.0,0.0,0.0,0.0,0.0,0.0,0.0,0.0,0.0,0.0,-1.7673,-2.089,0.0,0.0,0.0,0.0,0.0,0.0,0.0,0.0,0.0,0.0,0.0,0.0,0.0,0.0,0.0,0.0,0.0,0.0,0.0,0.0,0.0,0.0,0.0,0.0,0.0,0.0,0.0,0.0,0.0,0.0,0.0,0.0,0.0,0.0,0.0,0.0,0.0,0.0,0.0,0.0,-5.9347,-5.9727,-5.9909,-6.008,-5.9879,-5.9862,-6.0201,-6.0071,-6.0123,-6.0594,-6.0848,0.0,0.0,0.0,0.0,0.0,0.0,0.0,0.0,0.0,0.0,0.0,0.0,0.0,0.0,0.0,0.0,0.0,0.0,0.0,0.0,0.0,0.0,0.0,0.0,0.0,0.0,0.0,0.0,0.0,0.0,0.0,0.0,0.0,0.0,0.0,0.0,0.0,0.0,0.0,0.0,0.0,0.0,0.0,0.0,0.0,0.0,0.0,0.0,0.0,0.0,0.0,0.0,0.0,0.0,0.0,0.0,0.0,0.0,0.0,-2.0135,-2.1503,0.0,0.0,0.0,0.0,0.0,0.0,0.0,0.0,0.0,0.0,0.0,0.0,0.0,0.0,0.0,0.0,0.0,0.0,0.0,0.0,0.0,0.0,0.0,0.0,0.0,0.0,0.0,0.0,0.0,0.0,0.0,0.0,0.0,0.0,0.0,0.0,0.0,0.0,0.0,0.0,-6.1041,-6.1264,-6.125,-6.0941,-6.0431,-6.0226,-6.0571,-5.9937,-5.9766,-6.0367,-6.0405,0.0,0.0,0.0,0.0,0.0,0.0,0.0,0.0,0.0,0.0,0.0,0.0,0.0,0.0,0.0,0.0,0.0,0.0,0.0,0.0,0.0,0.0,0.0,0.0,0.0,0.0,0.0,0.0,0.0,0.0,0.0,0.0,0.0,0.0,0.0,0.0,0.0,0.0,0.0,0.0,0.0,0.0,0.0,0.0,0.0,0.0,0.0,0.0,0.0,0.0,0.0,0.0,0.0,-2.2312,-2.289,-2.4407,-2.5216,-2.4966,-2.4037,-2.4203,-2.3304,-2.2168,-2.6057,0.0,0.0,0.0,0.0,0.0,0.0,0.0,0.0,0.0,0.0,0.0,0.0,0.0,0.0,0.0,0.0,0.0,0.0,0.0,0.0,0.0,0.0,-2.7128,-2.7748,-2.8381,-2.8455,-2.7134,0.0,0.0,0.0,0.0,0.0,0.0,0.0,0.0,0.0,0.0,0.0,-6.2265,-6.2044,-6.1858,-6.186,-6.1155,-6.0792,-6.1082,-6.0002,-5.9585,-6.0152,-5.9878,-5.9807,0.0,0.0,0.0,0.0,0.0,0.0,0.0,0.0,0.0,0.0,0.0,0.0,0.0,0.0,0.0,0.0,0.0,0.0,0.0,0.0,0.0,0.0,0.0,0.0,0.0,0.0,0.0,0.0,0.0,0.0,0.0,0.0,0.8978,0.6209,0.0,0.0,0.0,0.0,0.0,0.0,0.0,0.0,0.0,0.0,0.0,0.0,0.0,-2.3164,-2.2084,-2.1727,-2.1617,-2.1621,-2.1384,-2.2071,-2.3819,-2.4745,-2.5438,-2.5695,-2.6745,0.0,-2.6406,-2.7731,0.0,0.0,0.0,0.0,0.0,0.0,0.0,0.0,0.0,0.0,0.0,0.0,0.0,0.0,0.0,0.0,0.0,0.0,0.0,0.0,0.0,0.0,-2.4996,-2.7457,-2.8929,-2.9637,-2.9651,-3.3335,-3.6455,-3.549,-4.283,-4.9215,0.0,0.0,0.0,0.0,0.0,0.0,-6.1768,-6.152,-6.1321,-6.1157,-6.106,-6.1018,-6.111,-6.0285,-5.9797,-5.9801,-5.9289,-5.9204,-5.9657,-5.9501,0.0,0.0,0.0,0.0,0.0,0.0,0.0,0.0,0.0,0.0,0.0,0.0,0.0,0.0,0.0,0.0,0.0,0.0,0.0,0.0,0.0,0.0,0.0,0.0,0.0,0.0,0.0,0.0,0.0,0.7117,0.4352,0.0392,-0.611,-1.2226,0.0,0.0,0.0,0.0,0.0,0.0,0.0,0.0,0.0,-2.3296,-2.3073,-2.2468,-2.1489,-2.1503,-2.1647,-2.2058,-2.3126,-2.4199,-2.5293,-2.6767,-2.7654,-2.7932,-2.874,-2.9031,-2.8974,-2.9008,-3.0901,-3.3988,0.0,0.0,0.0,0.0,-3.5026,-3.4013,-3.2378,-3.1011,-3.0012,-3.0401,0.0,0.0,0.0,0.0,0.0,0.0,0.0,-3.3769,-3.1922,-2.9924,-2.8558,-2.9162,-3.0495,-3.1888,-3.3257,-3.6675,-3.9118,-3.7926,-4.2794,-4.8528,-5.3096,-5.8665,0.0,0.0,0.0,-6.3025,-6.2463,-6.2211,-6.2023,-6.1882,-6.1597,-6.1394,-6.1274,-6.0397,-6.0047,-6.0321,-5.9492,-5.9223,-5.9778,-5.875,-5.8452,0.0,0.0,0.0,0.0,0.0,0.0,0.0,0.0,0.0,0.0,0.0,0.0,0.0,0.0,0.0,0.0,0.0,0.0,0.0,0.0,0.0,0.0,0.0,0.0,0.0,0.0,0.0,0.0,0.2901,0.1843,-0.3256,-0.7284,-1.2355,0.0,0.0,0.0,0.0,0.0,0.0,-2.5456,-2.5413,-2.4688,-2.3021,-2.2865,-2.2415,-2.1767,-2.2111,-2.266,-2.3292,-2.5115,-2.6455,-2.7286,-2.8642,-2.9447,-2.9822,-3.0343,-3.0602,-3.0602,-3.029,-3.1286,-3.334,-3.4487,-3.6194,-3.7768,-3.666,-3.5519,-3.4511,-3.2865,-3.1231,-2.9865,-3.0401,-3.0012,-2.9622,-3.0531,0.0,0.0,0.0,0.0,-3.517,-3.3598,-3.2631,-3.1888,-3.1813,-3.3116,-3.5005,-3.7374,-3.957,-4.0846,-3.978,-4.3732,-4.9205,-5.5793,-6.0832,0.0,-6.3188,-6.3093,-6.2475,-6.0781,-6.103,-6.1351,-6.1279,-6.126,-6.1178,-6.0965,-6.0368,-6.0259,-6.0719,-5.9578,-5.914,-5.9641,-5.8068,-5.752,-5.8281,0.0,0.0,0.0,0.0,0.0,0.0,0.0,0.0,0.0,0.0,0.0,0.0,0.0,0.0,0.0,0.0,0.0,0.0,0.0,0.0,0.0,0.0,0.0,0.0,0.0,0.0,0.0,0.0,0.0,0.0524,-0.4446,0.0,0.0,0.0,0.0,-2.5945,-2.4964,-2.41,-2.3728,-2.3777,-2.3432,-2.2666,-2.2962,-2.3126,-2.3434,-2.4525,-2.51,-2.5398,-2.6635,-2.7849,-2.9168,-2.9316,-3.0083,-3.1249,-3.1377,-3.1377,-3.1377,-3.1377,-3.2001,-3.3,-3.3611,-3.4238,-3.4487,-3.3426,-3.2543,-3.1944,-3.1561,-3.1304,-3.1176,-3.1176,-3.1176,-3.1047,-3.016,-3.2689,0.0,0.0,-3.3155,-3.3328,-3.332,-3.27,-3.2691,-3.5271,-3.7112,-3.901,-4.1914,-4.2438,-4.1963,-4.0313,-4.806,-5.4475,-5.3435,0.0,-6.3396,-5.8919,-5.968,-5.9145,-5.4675,-5.6198,-5.7737,-5.7945,-5.9144,-5.9946,-5.9673,-6.0146,-6.0449,-6.032,-5.9251,-5.8729,-5.9024,-5.7977,-5.7382,-5.7438,-5.7113,0.0,0.0,0.0,0.0,0.0,0.0,0.0,0.0,0.0,0.0,0.0,0.0,0.0,0.0,0.0,0.0,0.0,0.0,0.0,0.0,0.0,0.0,0.0,0.0,0.0,0.0,0.0,0.0,-0.7262,-1.0487,0.0,-1.8082,-2.1728,-2.4085,-2.4471,-2.5194,-2.5766,-2.6241,-2.6991,-2.7758,-2.8438,-2.823,-2.8358,-2.8844,-2.8129,-2.7949,-2.7949,-2.7981,-2.813,-2.8659,-2.9053,-2.9561,-3.0083,-3.123,-3.123,-3.0732,-3.1873,-3.2256,-3.2275,-3.253,-3.3253,-3.4258,-3.3,-3.3107,-3.3611,-3.2619,-3.2511,-3.2492,-3.1579,-3.1322,-3.0936,-2.9003,-3.09,-3.334,-3.1944,-3.3068,-3.482,-3.5704,-3.4923,-3.4531,-3.7002,-3.7821,-3.863,-4.1167,-4.4125,-4.687,-4.9452,-5.2743,-5.5599,-5.6997,-5.897,-5.9512,-5.6926,-5.4502,-5.2891,-5.291,-5.3672,-5.5018,-5.7065,-5.863,-5.9429,-5.9229,-6.0235,-6.0463,-5.9585,-5.9443,-5.9017,-5.829,-5.7822,-5.7529,-5.7397,-5.7297,-5.6976,0.0,0.0,0.0,0.0,0.0,0.0,0.0,0.0,0.0,0.0,0.0,0.0,0.0,0.0,0.0,0.0,0.0,0.0,0.0,0.0,0.0,0.0,0.0,0.0,0.0,-0.8984,-1.1003,-1.1468,-1.3855,-1.6551,-1.9661,-2.2452,-2.4131,-2.4143,-2.5847,-2.7224,-2.7954,-2.9469,-3.0766,-3.1789,-3.1458,-3.1283,-3.1176,-3.003,-2.9134,-2.8625,-2.8642,-2.8527,-2.8395,-2.9805,-3.0325,-3.0195,-3.1598,-3.1726,-3.123,-3.2365,-3.2384,-3.1782,-3.1782,-3.2403,-3.3253,-3.2657,-3.3165,-3.4027,-3.3292,-3.3165,-3.3292,-3.2365,-3.211,-3.1835,-2.99,-3.1047,-3.2961,-3.1944,-3.3485,-3.5788,-3.7067,-3.7067,-3.7166,-3.9193,-3.9873,-4.0836,-4.3484,-4.6627,-5.0539,-5.6078,-5.7058,-5.7919,-6.0943,-6.0586,-5.8451,-5.4079,-5.2401,-5.1048,-4.9521,-5.1184,-5.3331,-5.5245,-5.7223,-5.8116,-5.7403,-5.8801,-5.9429,-5.8801,-5.8581,-5.8467,-5.8437,-5.798,-5.7674,-5.7575,-5.7348,-5.7262,-5.7169,0.0,0.0,0.0,0.0,0.0,0.0,0.0,0.0,0.0,0.0,0.0,0.0,0.0,0.0,0.0,0.0,0.0,0.0,0.0,0.0,0.0,0.0,0.0,-0.6876,-0.864,-1.0016,-1.1212,-1.3404,-1.6121,-1.9267,-2.1195,-2.2986,-2.4967,-2.6827,-2.8095,-2.8834,-3.0835,-3.1951,-3.1951,-3.2226,-3.167,-3.003,-2.99,-2.9003,-2.7467,-2.8625,-2.902,-2.8527,-3.1469,-3.2492,-3.1854,-3.2619,-3.2873,-3.2873,-3.2873,-3.2384,-3.1396,-3.1506,-3.1377,-3.1506,-3.2166,-3.2422,-3.2549,-3.3165,-3.3418,-3.3418,-3.3418,-3.367,-3.3796,-3.2765,-3.365,-3.4673,-3.3757,-3.4403,-3.5767,-3.7451,-3.8957,-4.0453,-4.1963,-4.3577,-4.5576,-4.9163,-5.0131,-5.2308,-5.9356,-6.0846,-6.1785,-6.4574,-6.4267,-6.0304,-5.0393,-5.3327,0.0,-4.4414,-4.8603,-5.2276,-5.2185,-5.4858,-5.5907,-5.4146,-5.5732,-5.7141,-5.7976,-5.6761,-5.7122,-5.9418,-5.8524,-5.7909,-5.7976,-5.7363,-5.7729,-5.8835,0.0,0.0,0.0,0.0,0.0,0.0,0.0,0.0,0.0,0.0,0.0,0.0,0.0,0.0,0.0,0.0,0.0,0.0,0.0,0.0,0.0,-0.3343,-0.3208,-0.5874,-0.8695,-1.1101,-1.2898,-1.5883,-1.8732,-2.0803,-2.3044,-2.4764,-2.5862,-2.8306,-3.034,-3.1637,-3.3516,-3.498,-3.5781,-3.5191,-3.4757,-3.4632,-3.2072,-3.1194,-3.1707,-3.0048,-2.9787,-3.0936,-3.1689,-3.2072,-3.22,-3.2854,-3.2727,-3.211,-3.2892,-3.2848,-3.2339,-3.2644,-3.2403,-3.1782,-3.2294,-3.2549,-3.2804,-3.3292,-3.3544,-3.3796,-3.3796,-3.4047,-3.4278,-3.4198,-3.4487,-3.4901,-3.482,-3.5232,-3.6258,-3.8268,-3.8957,-3.9639,-4.1647,-4.2799,-4.4387,-4.7955,-5.1471,-5.5306,-5.9973,-6.2498,-6.4012,-6.4271,-5.8014,-5.2681,-5.1674,-4.4872,-4.1588,-4.6052,-4.5929,-4.6338,-4.8546,-5.0244,-5.1053,-5.0517,-5.1701,-5.3632,-5.6216,-5.6671,-5.7144,-5.7785,-5.8392,-5.8859,-5.9178,-5.8094,-5.8315,0.0,0.0,0.0,0.0,0.0,0.0,0.0,0.0,0.0,0.0,0.0,0.0,0.0,0.0,0.0,0.0,0.0,0.0,0.0,0.0,0.0,0.0,-0.3343,-0.3875,-0.6831,-0.9504,-1.1886,-1.3813,-1.7389,-2.0195,-2.1892,-2.4224,-2.5786,-2.6312,-2.8975,-3.114,-3.2575,-3.4616,-3.6225,-3.7374,-3.6667,-3.6034,-3.552,-3.2835,-3.1579,-3.1707,-3.0048,-2.9526,-2.99,-3.1944,-3.2708,-3.2327,-3.3535,-3.3652,-3.3162,-3.3482,-3.3325,-3.288,0.0,0.0,0.0,0.0,-3.345,-3.3965,-3.4093,-3.4477,-3.4732,-3.4732,-3.4986,-3.5306,-3.577,-3.5645,-3.5521,-3.5992,-3.5971,-3.6258,-3.8744,-3.9988,-4.0925,-4.2526,-4.5126,-4.7854,-5.0661,-5.4425,-5.8275,-6.1936,-6.3521,0.0,-6.3708,-5.8157,-5.3041,-5.0798,-4.5874,-4.328,-4.5461,-4.6264,-4.7231,-4.8465,-5.0176,-5.0698,-4.9587,-5.0667,0.0,0.0,0.0,-5.5973,-5.7419,-5.8703,0.0,0.0,0.0,-5.9852,-6.1134,-6.0167,0.0,0.0,-5.9581,-5.9479,0.0,0.0,0.0,0.0,0.0,0.0,0.0,0.0,0.0,0.0,0.0,0.0,0.0,0.0,0.0,0.0,-0.4145,-0.5464,-0.9088,-1.1226,-1.2939,-1.4623,-1.8312,-2.1354,-2.2851,-2.5083,-2.6584,-2.6775,-2.9119,-3.0937,-3.2035,-3.4342,0.0,0.0,0.0,-3.5644,-3.4113,-3.2327,-3.0789,-2.9526,-2.9395,-2.8757,-2.7849,-3.2256,-3.3544,-3.2549,-3.4162,-3.4892,-3.4912,-3.427,-3.3804,-3.3444,-3.3274,-3.3481,-3.3785,-3.4181,-3.4707,-3.525,-3.525,0.0,0.0,-3.5901,-3.603,-3.6573,-3.7481,-3.7125,-3.6582,-3.7471,-3.6875,-3.6652,-3.914,-4.1703,-4.3764,-4.4557,-4.9163,-5.3759,-5.5484,-5.798,-6.0902,-6.4437,-6.4036,-6.3047,-6.286,-6.1106,-5.7269,-4.9943,-5.1561,-5.121,-4.4678,-4.8239,-5.105,-4.9852,-5.1637,0.0,-4.9397,-5.0441,-5.226,-5.4727,-5.3862,-5.4744,-5.7959,-5.9282,-6.0156,-6.0796,-6.1027,-6.1459,-6.2086,-6.1337,-6.115,-6.1528,-5.9923,-5.9439,0.0,0.0,0.0,0.0,0.0,0.0,0.0,0.0,0.0,0.0,0.0,0.0,0.0,0.0,0.0,-0.6289,-0.6552,-0.826,-1.2366,-1.4612,-1.6581,-1.8273,-2.067,-2.3021,-2.4872,-2.697,-2.7989,-2.7572,-2.9988,-3.1359,-3.1065,-3.2835,-3.3591,-3.332,-3.3485,-3.3233,-3.2327,-3.0678,-3.016,-3.0936,-2.9787,0.0,-3.0936,-3.2152,-3.3096,-3.365,-3.3443,-3.3764,-3.4178,-3.3596,-3.3727,-3.4394,-3.4107,-3.4236,-3.4576,-3.4576,-3.4838,-3.525,-3.525,-3.5771,-3.616,-3.616,-3.6418,-3.7147,-3.9365,-3.9197,0.0,-3.9701,-4.019,-4.0312,-4.041,-4.3522,-4.6786,-4.7728,-5.1473,-5.5599,-5.8142,-5.9887,-6.1747,-6.4554,-6.411,-6.2823,-6.1395,-5.7218,-5.4419,-5.5388,-4.958,-4.6431,-4.9963,-4.8155,-4.638,-4.6092,-4.5546,-4.4944,-4.4411,-4.5259,-4.797,-5.2996,-5.5883,-5.76,-5.8103,-5.8841,-5.9516,-6.0192,-6.0264,-6.0818,-6.1911,-6.1111,-6.1215,-6.2011,-6.0417,-5.9881,0.0,0.0,0.0,0.0,0.0,0.0,0.0,0.0,0.0,0.0,0.0,-0.1051,-0.1331,0.0,-0.5833,-0.5886,-0.8148,-1.0948,-1.3928,-1.6561,-1.8769,-2.0333,-2.2632,-2.4849,-2.6503,-2.8751,-2.986,-2.9491,-3.0441,-3.1065,-3.1322,-3.1835,-3.2072,-3.2308,-3.2327,-3.2218,-3.1817,-3.016,-2.9657,-3.029,-2.9074,-2.8893,-2.9803,-3.0963,-3.1806,-3.2353,-3.2661,-3.2845,-3.3267,-3.3219,-3.3712,-3.4599,-3.4777,-3.5103,-3.5351,-3.5351,-3.5618,-3.5884,-3.615,-3.6547,-3.6942,-3.7225,-3.7357,-3.7947,-4.0298,-3.973,-3.8571,-4.0286,-4.0464,-4.0218,-4.0586,-4.4636,-4.842,-4.7376,-5.3508,-5.9294,-5.8299,-6.1096,-6.4138,-6.5192,-6.3868,-6.2318,-6.1462,-5.7348,-5.4051,-5.3824,-5.0304,-4.8013,-4.8747,-4.8212,-4.7235,-4.5894,-4.5579,-4.5077,-4.411,-4.6016,-4.8517,-5.1606,-5.5581,-5.7814,-5.7848,-5.8875,-5.9648,-6.0001,-6.0282,-6.095,-6.1897,-6.1132,-6.1405,-6.2446,-6.0956,-6.0424,0.0,0.0,0.0,0.0,0.0,0.0,0.0,1.3215,1.1038,0.6592,0.449,0.2787,0.1203,-0.2271,-0.4942,-0.5348,-0.9226,-1.3013,-1.5262,-1.7906,-2.0248,-2.2087,-2.4535,-2.6581,-2.7881,-3.0223,-3.1579,-3.1322,-3.0807,-3.0678,-3.1304,-3.0678,-3.0678,-3.1286,-3.1176,-3.1047,-3.0789,-2.9526,-2.8922,-2.8858,-2.8121,-2.7772,-2.7836,-2.9646,-3.048,-3.0634,-3.1718,-3.2307,-3.2325,-3.2941,-3.3502,-3.4232,-3.4921,-3.547,-3.5879,-3.6016,-3.6268,-3.6654,-3.6944,-3.7348,-3.777,-3.8037,-3.8437,-3.8882,-4.0606,-3.9858,-3.8787,-4.0479,-4.049,-4.0242,-4.1649,-4.6021,-4.9691,-4.8459,-5.6027,-6.2546,-5.9279,-6.286,-6.6438,-6.549,-6.3544,-6.1733,-6.0982,-5.8012,-5.4757,-5.1754,-5.1972,-5.1125,-4.7252,-4.8553,-4.9037,-4.6955,-4.6922,-4.6605,-4.5395,-4.8099,-5.0164,-5.1212,-5.4826,-5.7156,-5.7628,-5.9012,-5.9779,-5.9908,-6.0344,-6.0855,-6.1528,-6.0974,-6.1379,-6.2567,-6.1458,-6.1003,1.9555,1.5317,1.6592,2.3956,2.2033,1.9549,0.0,2.2995,1.9824,1.5734,1.2026,0.8355,0.4539,-0.0134,-0.4411,-0.7218,-1.0117,-1.357,-1.796,-1.9554,-2.1347,-2.432,-2.632,-2.7914,-2.9048,-3.1542,-3.26,-3.1433,-3.1194,-3.0678,-2.9657,-2.8888,-2.8378,-2.7849,-2.8378,-2.8246,-2.7302,-2.7318,-2.7493,-2.739,-2.7573,-2.7884,-2.8186,-2.8814,-2.9395,-3.0126,-3.1196,-3.1632,-3.1772,-3.2508,-3.2945,-3.3363,-3.4232,-3.4921,-3.5606,-3.5879,-3.6423,-3.7079,-3.7079,-3.7502,-3.8191,-3.8191,-3.9078,-4.0062,-4.0256,-4.1008,-4.1729,-4.1937,-4.2794,-4.4133,-4.6079,-4.8546,-5.1623,-5.6486,-6.0296,-6.3329,-6.4967,-6.6687,-6.7134,-6.452,-6.3075,-6.1187,-5.7756,-5.6456,-5.57,-5.5272,-5.3398,-5.1754,-5.1294,-4.9558,-4.8187,-4.7901,-4.5499,-4.4617,-4.6288,-4.7584,-4.9714,-5.3165,-5.5084,-5.6624,-5.7959,-5.8456,-5.8944,-5.9617,-5.9317,-5.9547,-6.0192,-6.0129,-6.0772,-6.2005,-6.1879,-6.1673,2.6893,2.4221,2.4946,2.8867,2.9083,2.7747,2.5896,2.3708,2.0759,1.6689,1.3953,1.0406,0.4414,-0.0133,-0.4145,-0.7828,-1.1404,-1.5032,-1.8887,-1.9939,-2.1636,-2.4952,-2.6814,-2.8293,-2.9752,-3.2346,-3.3776,-3.3126,-3.2365,-3.1322,-2.99,-2.8871,-2.7716,-2.6532,-2.5965,-2.5547,-2.5008,-2.4488,-2.4369,-2.4939,-2.5996,-2.6964,-2.7553,-2.8617,-2.9218,-2.9518,-3.0075,-3.0567,-3.0977,-3.17,-3.1824,-3.1807,-3.3659,-3.4075,-3.3623,-3.4195,-3.5295,-3.6403,-3.5704,-3.6384,-3.7636,-3.777,-3.8416,-3.9188,-3.9953,-4.0084,-4.0192,-4.1715,-4.258,-4.3458,-4.5085,-4.9692,-5.4061,-5.5249,-6.072,-6.5483,-6.4903,-6.5952,-6.6587,-6.5081,-6.2736,-6.036,-5.8227,-5.6185,-5.457,-5.3266,-5.2582,-5.1628,-5.0001,-4.8802,-4.7352,-4.5615,-4.3462,-4.3112,-4.5092,-4.6496,-4.8338,-5.1118,-5.421,-5.636,-5.7419,-5.8317,-5.9149,-5.9914,-5.9748,-5.9844,-6.0317,-5.9908,-6.0317,-6.1322,-6.095,-6.1121,3.0338,2.9775,3.0525,3.2457,3.357,3.2682,2.6883,2.41,2.1529,1.6926,1.4381,1.1233,0.5218,0.0134,-0.4303,-0.8309,-1.1796,-1.5091,-1.8653,-1.9722,-2.1356,-2.4602,-2.6486,-2.8065,-2.9509,-3.2218,-3.4027,-3.4423,-3.3146,-3.1854,-3.0401,-2.8986,-2.7567,-2.6145,-2.4617,-2.3816,-2.3899,-2.2558,-2.232,-2.2936,-2.4331,-2.531,-2.5999,-2.7416,-2.8259,-2.8851,-2.8418,-2.8979,-3.0124,-3.025,-3.025,-3.025,-3.2088,-3.2211,-3.1491,-3.2211,-3.39,-3.5879,-3.4727,-3.5549,-3.7079,-3.7348,-3.8017,-3.8681,-3.9299,-3.9188,-3.9188,-4.1588,-4.2637,-4.3464,-4.5255,-5.0824,-5.5827,-5.5204,-6.1059,-6.634,-6.4725,-6.5422,-6.5901,-6.4362,-6.166,-5.9198,-5.7367,-5.499,-5.2751,-5.0629,-5.078,-5.0403,-4.8545,-4.7722,-4.6334,-4.3517,-4.2232,-4.2414,-4.452,-4.5742,-4.7494,-5.0007,-5.3475,-5.5936,-5.7063,-5.8035,-5.9046,-6.0234,-5.9943,-5.9943,-6.0254,-5.9814,-5.9972,-6.0615,-6.0156,-6.059,2.442,2.5915,2.8308,3.4538,3.4825,3.2644,2.9046,2.685,2.4147,1.8569,1.4586,1.119,0.8153,0.1485,-0.4916,-0.8889,-1.0889,-1.3316,-1.7072,-1.8921,-2.0869,-2.3229,-2.5667,-2.7286,-2.77,-3.0531,-3.2961,-3.4298,-3.3146,-3.1854,-3.0401,-2.8986,-2.7567,-2.6145,-2.4617,-2.3776,-2.3651,-2.2523,-2.2099,-2.2348,-2.2651,-2.3082,-2.3484,-2.4409,-2.5758,-2.7535,-2.6357,-2.723,-2.9138,-2.765,-2.7939,-2.925,-2.8916,-2.9186,-2.9916,-3.0359,-3.277,-3.5879,-3.4727,-3.5549,-3.7079,-3.7079,-3.8242,-3.9408,-3.8129,-3.8772,-4.0452,-4.182,-4.3617,-4.5748,-4.8435,-5.2457,-5.6608,-5.9799,-6.2519,-6.4787,-6.6132,-6.6466,-6.5299,-6.1109,-5.967,-5.7607,-5.3244,-5.1858,-5.0629,-4.8532,-4.8158,-4.8158,-4.8158,-4.685,-4.5028,-4.2998,-4.2353,-4.2996,-4.5107,-4.5721,-4.7653,-5.1476,-5.321,-5.5101,-5.7364,-5.7379,-5.8388,-6.0547,-5.9551,-5.9217,-5.9652,-5.9652,-5.9748,-6.0001,-6.0001,-6.0344,2.7633,3.0059,3.2064,3.5876,3.4869,3.2374,3.0354,2.7347,2.3824,1.9574,1.3682,0.8217,0.4836,-0.2169,-0.8123,-1.0083,-1.1307,-1.3224,-1.6847,-1.8057,-1.9356,-2.1296,-2.3079,-2.4709,-2.5755,-2.8541,-3.0401,-3.0936,-3.0549,-2.9639,-2.8196,-2.7668,-2.6863,-2.5769,-2.3252,-2.1988,-2.2124,-1.9849,-1.9001,-1.9615,-2.1242,-2.2534,-2.3497,-2.4261,-2.5011,-2.5611,-2.5758,-2.6196,-2.6939,-2.691,-2.6619,-2.6342,-2.7894,-2.8757,-2.9186,-3.0075,-3.1789,-3.3641,-3.277,-3.3605,-3.5275,-3.5275,-3.5782,-3.6574,-3.7327,-3.8639,-4.017,-4.1693,-4.4378,-4.7377,-5.0488,-5.5453,-6.0117,-6.2289,-6.4527,-6.6273,-6.6444,-6.4287,-6.1941,-6.0488,-5.7611,-5.474,-5.2704,-5.096,-4.9254,-4.7129,-4.6798,-4.6798,-4.656,-4.5327,-4.4061,-4.2933,-4.238,-4.3072,-4.5577,-4.6857,-4.8562,-5.0807,-5.3314,-5.5037,-5.5883,-5.6913,-5.8287,-6.0164,-6.0135,-6.0008,-5.9914,-5.9718,-5.9485,-5.9317,-5.9317,-5.9679,3.065,3.2959,3.4734,3.6333,3.5201,3.2943,3.0238,2.7347,2.3932,1.9562,1.2726,0.5942,0.0537,-0.491,-0.9596,-1.2625,-1.1854,-1.2186,-1.5839,-1.6987,-1.797,-1.9356,-2.0882,-2.2382,-2.3868,-2.5204,-2.6808,-2.8986,-2.8689,-2.7751,-2.6439,-2.5876,-2.5091,-2.383,-2.1383,-2.0278,-2.0677,-1.806,-1.6992,-1.782,-1.9296,-2.0703,-2.1727,-2.2186,-2.2942,-2.3992,-2.3992,-2.473,-2.5758,-2.5465,-2.5038,-2.4743,-2.675,-2.7331,-2.7331,-3.0058,-3.1067,-3.1084,-3.1367,-3.277,-3.4314,-3.4176,-3.4846,-3.6054,-3.7688,-3.8639,-3.967,-4.2224,-4.4622,-4.7503,-5.1324,-5.6756,-6.1678,-6.3146,-6.5305,-6.6695,-6.573,-6.2683,-5.9938,-5.9111,-5.5822,-5.2732,-5.1369,-4.906,-4.7077,-4.5743,-4.5525,-4.5403,-4.5281,-4.4422,-4.3553,-4.3075,-4.2646,-4.3279,-4.5623,-4.7271,-4.8834,-5.0423,-5.3064,-5.4735,-5.5425,-5.6558,-5.8007,-5.9937,-6.01,-6.0135,-6.0107,-5.9748,-5.9351,-5.9012,-5.9012,-5.9182,3.329,3.4683,3.6402,3.6294,3.5772,3.4069,2.9146,2.709,2.4621,1.8963,1.1949,0.4473,-0.3878,-0.6457,-0.941,-1.5654,-1.2379,-1.0443,-1.3753,-1.5584,-1.6705,-1.7409,-1.8938,-2.0467,-2.1859,-2.0743,-2.2356,-2.8295,-2.7455,-2.6111,-2.468,-2.3571,-2.223,-2.091,-1.9282,-1.8644,-1.9329,-1.7105,-1.6161,-1.6806,-1.7273,-1.7721,-1.8471,-1.8623,-2.0124,-2.2521,-2.1475,-2.2806,-2.5478,-2.329,-2.3141,-2.4596,-2.5318,-2.4891,-2.4757,-2.9916,-3.0201,-2.8357,-3.0643,-3.263,-3.4038,-3.3762,-3.5412,-3.7595,-3.8729,-3.8882,-3.9299,-4.3232,-4.5058,-4.6898,-5.1408,-5.6858,-6.1558,-6.2866,-6.4893,-6.5969,-6.396,-6.1694,-5.9285,-5.6898,-5.4009,-5.126,-4.9026,-4.6175,-4.4347,-4.4347,-4.4347,-4.4347,-4.4347,-4.4075,-4.3678,-4.3326,-4.3075,-4.3553,-4.5159,-4.6863,-4.8676,-5.0533,-5.2554,-5.4313,-5.5937,-5.6264,-5.7499,-5.9809,-5.9613,-5.9648,-6.0043,-5.9683,-5.9351,-5.9012,-5.9012,-5.9012,3.8202,3.9038,3.934,3.8161,3.6185,3.3935,3.1202,2.8063,2.4794,2.1751,1.2532,0.3146,-0.2718,-0.636,-0.9277,-1.208,-0.9706,-0.842,-1.0718,-1.2437,-1.3436,-1.4006,-1.6404,-1.81,-1.8508,-1.9206,-2.0304,-2.1782,-2.1795,-2.1609,-2.0986,-2.1224,-2.1172,-2.0688,-1.9621,-1.9033,-1.8813,-1.7322,-1.6761,-1.7273,-1.7426,-1.7578,-1.7731,-1.8936,-1.9833,-2.0586,-2.1499,-2.2396,-2.3141,-2.2558,-2.2558,-2.2992,-2.3438,-2.4314,-2.5465,-2.7475,-2.8213,-2.8372,-3.0359,-3.1491,-3.2211,-3.207,-3.3327,-3.5256,-3.8179,-4.0724,-4.2879,-4.3931,-4.9473,-5.5144,-5.6217,-6.0907,-6.5411,-6.5635,-6.5387,-6.4375,-6.1654,-5.9198,-5.6805,-5.4243,-5.0685,-4.7496,-4.5718,-4.4792,-4.4347,-4.4347,-4.4347,-4.4347,-4.4347,-4.4223,-4.395,-4.3326,-4.3927,-4.4546,-4.5281,-4.7948,-4.9913,-5.0668,-5.2776,-5.4387,-5.528,-5.5892,-5.6822,-5.814,-5.8841,-5.9114,-5.9012,-5.9114,-5.9081,-5.9012,-5.9012,-5.9012,4.1603,4.1293,4.049,3.8372,3.6185,3.3669,3.0219,2.7864,2.4549,1.7641,0.9386,0.1314,-0.5185,-0.7337,-0.8986,-1.1525,-0.8693,-0.697,-0.9131,-1.0287,-1.1012,-1.1435,-1.3571,-1.4982,-1.4964,-1.5812,-1.6272,-1.6056,-1.7793,-1.8867,-1.8724,-1.8042,-1.7526,-1.7327,-1.6223,-1.5261,-1.4903,-1.4927,-1.4944,-1.4952,-1.6033,-1.6653,-1.6653,-1.8025,-1.9088,-1.9844,-2.0748,-2.166,-2.2259,-2.2259,-2.2259,-2.2408,-2.3722,-2.4301,-2.4891,-2.7041,-2.7505,-2.723,-2.979,-3.0926,-3.135,-3.2211,-3.4139,-3.6459,-3.8312,-4.0768,-4.3549,-4.6039,-5.0634,-5.5677,-5.9547,-6.2547,-6.4934,-6.6285,-6.4677,-6.2389,-6.0565,-5.7493,-5.417,-5.0932,-4.8284,-4.6175,-4.457,-4.4347,-4.4347,-4.4347,-4.4347,-4.4347,-4.4347,-4.4223,-4.3826,-4.3326,-4.4051,-4.4792,-4.5281,-4.7873,-4.9684,-5.0298,-5.2318,-5.3789,-5.4598,-5.5591,-5.6545,-5.7446,-5.828,-5.8492,-5.8283,-5.8492,-5.8632,-5.8632,-5.8875,-5.9012,4.3826,4.2447,4.0867,3.8323,3.6487,3.3961,2.8274,2.6864,2.3245,1.0732,0.4583,-0.0924,-0.8883,-0.8861,-0.8836,-1.2201,-0.8385,-0.5808,-0.7693,-0.8564,-0.8997,-0.9419,-1.0862,-1.1858,-1.1681,-1.1708,-1.1633,-1.1312,-1.4558,-1.649,-1.6519,-1.434,-1.3022,-1.3043,-1.1478,-1.0457,-1.0302,-1.1695,-1.232,-1.2179,-1.433,-1.5412,-1.5412,-1.6797,-1.8168,-1.9531,-1.9995,-2.0898,-2.2259,-2.2259,-2.2259,-2.2558,-2.4449,-2.4449,-2.387,-2.7186,-2.7215,-2.5946,-2.9075,-3.0626,-3.1474,-3.3188,-3.6073,-3.8772,-3.8882,-4.0386,-4.3156,-4.8483,-5.0836,-5.3597,-6.1731,-6.3107,-6.2945,-6.5463,-6.3306,-6.0472,-5.95,-5.5761,-5.1534,-4.8195,-4.6959,-4.5935,-4.457,-4.4347,-4.4347,-4.4347,-4.4347,-4.4347,-4.457,-4.4075,-4.3678,-4.3326,-4.4051,-4.4669,-4.5281,-4.7339,-4.908,-5.0126,-5.1598,-5.3107,-5.4576,-5.5566,-5.6547,-5.7465,-5.7808,-5.7814,-5.7634,-5.7887,-5.8031,-5.8103,-5.8632,-5.8944,4.5149,4.3787,4.242,4.0841,3.9162,3.6209,2.9219,2.5267,1.9756,0.8383,0.2099,-0.3313,-0.9537,-0.9751,-0.9131,-0.9374,-0.6532,-0.4369,-0.4371,-0.5818,-0.6974,-0.697,-0.8709,-0.9862,-0.9856,-0.9862,-0.9769,-0.9736,-1.0577,-1.099,-1.1101,-1.1302,-1.1384,-1.1657,-1.0601,-1.0767,-1.2004,-1.2011,-1.2481,-1.3414,-1.3876,-1.403,-1.4184,-1.677,-1.7986,-1.8441,-2.0887,-2.196,-2.2259,-2.2259,-2.2259,-2.2408,-2.2694,-2.3141,-2.3438,-2.4166,-2.5625,-2.7215,-2.8213,-3.0359,-3.2927,-3.3623,-3.5021,-3.7059,-3.9518,-4.1868,-4.4829,-5.002,-5.51,-5.9756,-6.2694,-6.4827,-6.5684,-6.3739,-6.1953,-5.9572,-5.5364,-5.1341,-4.8885,-4.9769,-4.7353,-4.4939,-4.4347,-4.4347,-4.4347,-4.4347,-4.4347,-4.4693,-4.5743,-4.4645,-4.3678,-4.3326,-4.4669,-4.5525,-4.5281,-4.7951,-5.0126,-5.1347,-5.2558,-5.422,-5.6398,-5.6189,-5.6392,-5.7211,-5.721,-5.6954,-5.6536,-5.7072,-5.7594,-5.8103,-5.8174,-5.8492,4.5692,4.4535,4.3598,4.1663,3.9982,3.6909,2.9527,2.365,1.6764,0.6931,0.0791,-0.4542,-0.9979,-0.9613,-0.8423,-0.8371,-0.5512,-0.2907,-0.2039,-0.2618,-0.3342,-0.3925,-0.5808,-0.7115,-0.6978,-0.7606,-0.7521,-0.6124,-0.6811,-0.7942,-0.9666,-0.9264,-0.8697,-0.7972,-0.7665,-0.7821,-0.8594,-0.9226,-0.9853,-1.0469,-1.2024,-1.2804,-1.2804,-1.4782,-1.6608,-1.8128,-1.9499,-2.0876,-2.2259,-2.2259,-2.2259,-2.2259,-2.2558,-2.3005,-2.3587,-2.4609,-2.605,-2.765,-2.8932,-3.1067,-3.3327,-3.3623,-3.5275,-3.7327,-3.8882,-4.28,-4.7729,-5.2098,-5.7745,-6.2905,-6.4828,-6.5728,-6.5393,-6.2366,-5.9154,-5.6019,-5.3135,-4.982,-4.7665,-4.8603,-4.6959,-4.5281,-4.447,-4.5403,-4.5864,-4.447,-4.5403,-4.6225,-4.6225,-4.5718,-4.5232,-4.511,-4.5379,-4.5646,-4.5985,-4.7886,-4.9475,-5.0685,-5.1892,-5.3347,-5.5214,-5.5287,-5.5658,-5.6529,-5.6221,-5.602,-5.6053,-5.6647,-5.703,-5.7147,-5.752,-5.7959,4.6078,4.5326,4.4748,4.2226,4.0689,3.7726,2.9604,2.2796,1.5546,0.6406,0.0398,-0.4711,-0.9285,-0.8634,-0.7585,-0.8083,-0.4782,-0.1888,-0.1163,-0.0436,-0.0291,-0.1164,-0.2907,-0.4068,-0.3935,-0.5155,-0.492,-0.2719,-0.3529,-0.5411,-0.8171,-0.7162,-0.5799,-0.4236,-0.4236,-0.4236,-0.4393,-0.5958,-0.7053,-0.7365,-1.0175,-1.1572,-1.1727,-1.3105,-1.4935,-1.7217,-1.7673,-1.9197,-2.1187,-2.1187,-2.1187,-2.1337,-2.1648,-2.2085,-2.2521,-2.4127,-2.5437,-2.6736,-2.8326,-3.061,-3.2856,-3.3586,-3.5782,-3.8312,-3.9541,-4.4336,-5.03,-5.5197,-5.9887,-6.3959,-6.6474,-6.5762,-6.3617,-6.0118,-5.57,-5.213,-5.1755,-4.9281,-4.7365,-4.7756,-4.7221,-4.6345,-4.5281,-4.6798,-4.739,-4.5403,-4.6798,-4.7743,-4.6679,-4.644,-4.6415,-4.6654,-4.5864,-4.5646,-4.6585,-4.7442,-4.8584,-5.0126,-5.1127,-5.2492,-5.4291,-5.4565,-5.5124,-5.622,-5.5185,-5.5017,-5.5799,-5.6053,-5.6179,-5.6303,-5.6768,-5.7372,4.6901,4.6491,4.5927,4.3504,4.2614,3.9726,2.9679,2.3866,1.7777,0.7757,0.1197,-0.364,-0.6256,-0.643,-0.6762,-0.838,-0.4794,-0.2037,-0.2612,-0.0872,0.0437,0.0437,-0.0145,-0.0728,-0.1457,-0.1622,-0.1642,-0.136,-0.1546,-0.2193,-0.3601,-0.3607,-0.298,-0.1726,-0.1569,-0.2038,-0.2664,-0.392,-0.5327,-0.7041,-0.9095,-1.0347,-1.0796,-1.279,-1.4014,-1.4782,-1.6617,-1.7683,-1.7834,-1.7834,-1.7834,-1.7834,-1.8299,-1.8754,-1.9046,-1.9661,-2.1279,-2.3176,-2.3806,-2.7112,-3.1371,-3.3062,-3.5588,-3.9021,-4.4095,-4.7325,-5.1101,-5.988,-6.2079,-6.2616,-6.6174,-6.4509,-6.0658,-5.573,-5.153,-4.9167,-5.107,-4.9481,-4.8184,-4.9824,-4.9254,-4.8236,-4.786,-4.7977,-4.7977,-4.7743,-4.7977,-4.8094,-4.7977,-4.639,-4.5693,-4.6654,-4.5864,-4.5646,-4.6585,-4.6824,-4.8184,-5.1347,-5.1674,-5.3116,-5.6225,-5.5251,-5.5343,-5.6927,-5.464,-5.4264,-5.5799,-5.4768,-5.4985,-5.6303,-5.6381,-5.6996,4.8324,4.7422,4.6284,4.5149,4.3176,3.9146,3.0241,2.4789,1.8865,0.9359,0.4267,0.027,-0.3882,-0.4745,-0.5213,-0.6653,-0.4356,-0.2034,-0.0872,0.0582,0.2331,0.4226,0.2039,0.0146,-0.0442,-0.0894,-0.1211,-0.1235,0.0312,0.0627,-0.0784,-0.1569,-0.1726,-0.1255,-0.1255,-0.1412,-0.1725,-0.345,-0.4547,-0.5327,-0.848,-1.0214,-1.0814,-1.1908,-1.3127,-1.4322,-1.5242,-1.6312,-1.7379,-1.7379,-1.7379,-1.7379,-1.7844,-1.8299,-1.8744,-2.0069,-2.2262,-2.4622,-2.5791,-2.8964,-3.2856,-3.4713,-3.8871,-4.3855,-4.6865,-5.1853,-5.7233,-6.1749,-6.3894,-6.4898,-6.483,-6.0966,-5.6934,-5.6805,-5.2838,-4.9987,-5.2982,-5.0933,-4.8877,-5.038,-4.9987,-4.9133,-4.821,-4.9362,-4.9816,-4.8326,-4.8789,-4.8877,-4.821,-4.6891,-4.6415,-4.739,-4.6225,-4.5646,-4.6585,-4.786,-4.9221,-5.0573,-5.1892,-5.3279,-5.4624,-5.4127,-5.4387,-5.5556,-5.3823,-5.3632,-5.5164,-5.4685,-5.4851,-5.5781,-5.5781,-5.6381,4.9116,4.8126,4.6784,4.6108,4.3255,3.8637,3.1338,2.5713,1.9658,1.1207,0.7071,0.351,-0.0831,-0.2091,-0.2957,-0.4627,-0.3631,-0.2179,-0.0582,0.1165,0.3061,0.5399,0.4241,0.2937,0.1778,0.1504,0.1378,0.1251,0.3286,0.3914,0.2664,0.1723,0.1096,0.0627,0.0157,-0.0,0.0627,-0.1254,-0.2665,-0.3448,-0.5962,-0.7686,-0.8934,-1.0832,-1.2218,-1.3091,-1.356,-1.4637,-1.6168,-1.6007,-1.6007,-1.6168,-1.6626,-1.6931,-1.7379,-1.9596,-2.1805,-2.3875,-2.6489,-2.9944,-3.3633,-3.6051,-4.2565,-4.9606,-5.0968,-5.6194,-6.217,-6.4178,-6.558,-6.5841,-6.3273,-5.8777,-5.5288,-5.6772,-5.37,-5.0961,-5.3145,-5.1428,-4.9816,-5.0712,-5.0601,-5.0041,-4.8877,-5.0041,-5.0517,-4.8442,-4.8762,-4.8877,-4.7743,-4.7036,-4.6798,-4.7061,-4.6225,-4.613,-4.7087,-4.821,-4.9221,-4.9901,-5.1783,-5.3097,-5.3413,-5.3237,-5.3658,-5.4575,-5.2948,-5.2931,-5.4768,-5.4348,-5.4633,-5.5523,-5.5409,-5.5941,4.9023,4.8481,4.7473,4.6226,4.32,3.8866,3.2763,2.6754,2.0451,1.3026,0.8778,0.5669,0.3192,0.1536,-0.0141,-0.2595,-0.2616,-0.2475,-0.2755,0.0145,0.2333,0.2333,0.6631,0.8617,0.5941,0.6672,0.7415,0.7353,0.7513,0.7513,0.7357,0.7357,0.6577,0.5014,0.3297,0.3297,0.4857,0.3297,0.1099,-0.1724,-0.0627,-0.1565,-0.4378,-0.9397,-1.1125,-1.0164,-1.1876,-1.2811,-1.312,-1.2656,-1.2811,-1.312,-1.3583,-1.3744,-1.4045,-1.6913,-1.828,-1.9338,-2.4476,-2.8569,-3.2414,-3.687,-4.6077,-5.5683,-5.6899,-6.0147,-6.4182,-6.8036,-6.7068,-6.4212,-6.1782,-5.9036,-5.6429,-5.4243,-5.2579,-5.1179,-5.0211,-5.0405,-5.0906,-5.0906,-5.1348,-5.143,-5.0154,-4.9901,-4.9448,-4.8326,-4.8094,-4.7626,-4.6345,-4.656,-4.62,-4.5037,-4.5985,-4.7087,-4.8055,-4.7324,-4.7626,-4.9816,-5.1017,-5.2216,-5.3308,-5.3237,-5.3658,-5.4575,-5.2111,-5.2215,-5.4985,-5.3632,-5.3922,-5.5766,-5.5523,-5.5733,4.8646,4.7156,4.5393,4.5396,4.124,3.594,3.1523,2.6168,2.0276,1.4012,1.0234,0.7259,0.4993,0.419,0.2679,-0.0434,0.0291,0.1163,0.0726,0.319,0.566,0.699,0.7864,0.7809,0.6458,0.706,0.7484,0.7513,0.8604,0.8759,0.7513,0.8604,0.8448,0.6733,0.6268,0.6111,0.6733,0.3916,0.1723,0.0313,-0.1098,-0.1881,-0.2347,-0.5949,-0.7833,-0.8292,-0.8915,-0.9382,-0.9692,-1.0779,-1.1405,-1.2024,-1.3583,-1.4814,-1.6024,-1.7521,-2.0347,-2.4022,-2.7824,-3.1618,-3.6003,-4.3394,-5.0182,-5.5992,-5.9557,-6.3792,-6.7187,-6.6406,-6.5048,-6.3308,-6.1374,-5.7892,-5.5258,-5.6676,-5.4243,-5.1943,-5.3145,-5.2808,-5.2113,-5.2113,-5.121,-5.0378,-4.9928,-4.9221,-4.8532,-4.821,-4.739,-4.6679,-4.6225,-4.5743,-4.55,-4.5768,-4.6345,-4.6824,-4.7205,-4.821,-4.8789,-4.8726,-5.1347,-5.2472,-5.1619,-5.2599,-5.3158,-5.2963,-5.1742,-5.1635,-5.2843,-5.2426,-5.302,-5.4601,-5.5588,-5.61,4.789,4.646,4.4635,4.4613,4.0153,3.4952,3.1717,2.6745,2.1382,1.6121,1.2996,1.0452,0.8035,0.7113,0.5634,0.2606,0.3919,0.493,0.3767,0.6066,0.8971,1.2142,1.1918,1.1314,1.0589,1.0938,1.1219,1.1219,1.2152,1.1998,1.0457,1.1843,1.1695,0.9382,0.8136,0.7673,0.8141,0.5636,0.3288,0.1252,-0.1255,-0.2197,-0.188,-0.4544,-0.6111,-0.6577,-0.7357,-0.7981,0.0,-0.9537,-1.0624,-1.156,-1.2185,-1.4337,-1.6922,-1.8522,-2.1781,-2.6344,-3.106,-3.5686,-4.0647,-4.7179,-5.3009,-5.8224,-6.2226,-6.5445,-6.7318,-6.5359,-6.3972,-6.269,-6.1098,-5.8228,-5.5969,-5.6834,-5.494,-5.3174,-5.4068,-5.3395,-5.2573,-5.2004,-5.0851,-4.9562,-4.8647,-4.83,-4.7977,-4.7508,-4.7154,-4.6917,-4.6917,-4.6465,-4.6225,-4.6968,-4.7205,-4.7324,-4.7324,-4.8469,-4.893,-4.8289,-5.1017,-5.2174,-5.0803,-5.2281,-5.2875,-5.2217,-5.1558,-5.1479,-5.2033,-5.2575,-5.3196,-5.4062,-5.5345,-5.5941,0.0,4.605,4.4824,4.3817,3.9904,3.5671,3.304,2.84,0.0,1.9079,1.6808,1.4744,1.1905,1.0448,0.8858,0.6509,0.8112,0.8811,0.6626,0.8754,1.2551,1.7693,1.7945,1.7527,1.7207,1.7256,1.7379,1.7379,1.7379,1.677,1.5097,1.6465,1.6007,1.2965,0.9692,0.8604,0.9542,0.831,0.5645,0.1723,-0.0784,-0.2042,-0.22,-0.4393,-0.5173,-0.5014,-0.6889,-0.8132,-0.8443,-0.8608,-0.9848,-1.1399,-1.0008,-1.2467,-1.7217,-1.9767,-2.3024,-2.7197,-3.4072,-4.0341,-4.5762,-4.9119,-5.5266,-6.1909,-6.4671,-6.5374,-6.5201,-6.467,-6.3622,-6.2327,-6.0946,-5.9523,-5.7714,-5.52,-5.4857,-5.4582,-5.3078,-5.268,-5.2221,-5.0851,-5.0154,-4.9221,-4.6917,-4.739,-4.7743,-4.644,-4.739,-4.8094,-4.8094,-4.812,-4.8146,-4.8146,-4.8172,-4.8172,-4.8172,-4.8172,-4.8172,-4.8172,-5.0378,-5.1393,-5.064,-5.2251,-5.2845,-5.2127,-5.1434,-5.1449,-5.2093,-5.3514,-5.403,-5.3891,-5.4966,-5.5409,4.5814,0.0,4.3732,4.319,3.9652,3.5717,0.0,2.925,2.5051,0.0,1.8747,1.716,1.4222,1.3967,1.3276,1.0215,1.2094,1.3633,1.2433,1.4841,1.7917,2.1175,1.9062,1.7849,1.8738,1.797,1.7379,1.7379,1.7379,1.7227,1.677,1.6931,1.6626,1.5863,1.479,1.3252,1.1256,1.0497,0.8769,0.6098,0.407,0.235,0.0627,-0.1098,-0.2508,-0.3609,-0.4393,-0.5019,-0.5489,-0.6889,-0.7825,-0.8604,-0.9532,-1.2902,-1.7464,-1.9905,-2.4988,-3.1548,-3.6222,-4.2424,-4.9443,-5.6459,-6.1252,-6.4229,-6.3678,-6.4166,-6.4563,-6.2768,-6.2412,-6.213,-6.005,-5.8478,-5.696,-5.55,-5.4552,-5.371,-5.3107,-5.2787,-5.2573,-5.1896,-5.074,-4.9675,-4.9106,-4.8532,-4.7977,-4.7743,-4.786,-4.8094,-4.8094,-4.812,-4.8146,-4.8146,-4.8172,-4.8172,-4.8172,-4.8172,-4.8172,-4.8172,-5.0378,-5.1197,-4.9995,-5.2017,-5.2636,-5.1468,-5.0941,-5.0757,-5.0917,-5.2336,-5.2931,-5.2962,-5.4633,-5.5409,4.6867,4.5245,4.3637,4.2377,3.9855,3.7051,3.4888,3.1311,2.7295,0.0,0.0,1.9601,1.7795,1.8261,1.8178,1.5876,1.8868,2.1302,2.0786,2.1356,2.2219,2.2953,2.1666,2.0958,2.1655,2.1467,2.113,2.0692,2.098,2.038,1.8592,1.9208,1.8754,1.6931,1.7093,1.5718,1.2494,1.1411,1.0014,0.8301,0.6108,0.4231,0.282,0.047,-0.1098,-0.2039,-0.3454,-0.4241,-0.4554,-0.5642,-0.6577,-0.7513,-0.7665,-1.0892,-1.6072,-1.9372,-2.4864,-3.1841,-3.9757,-4.8341,-5.6707,-6.2293,-6.4229,-6.4112,-6.2668,-6.2293,-6.214,-6.1374,-6.0886,-6.0304,-5.86,-5.715,-5.5925,-5.523,-5.4171,-5.3319,-5.3366,-5.2972,-5.2221,-5.1293,-5.0489,-4.9675,-4.9106,-4.8992,-4.8877,-4.8877,-4.9475,-4.9816,-4.9816,-4.9274,-4.8957,-4.8957,-4.8521,-4.8172,-4.8172,-4.8172,-4.8172,-4.8172,-4.9684,-5.0103,-4.9028,-5.0904,-5.1736,-5.1041,-5.0662,-5.0405,-5.0309,-5.188,-5.2606,-5.2695,-5.4549,-5.5409,4.8891,4.7207,4.492,4.2683,4.0915,3.9396,3.767,3.4032,0.0,0.0,0.0,2.2851,2.2257,2.3247,2.3591,2.2217,2.5866,2.8904,2.9275,2.7851,2.6511,2.5398,2.5549,2.5509,2.5299,2.571,2.5758,2.5038,2.5478,2.4422,2.1003,2.2223,2.1325,1.7986,1.8754,1.7683,1.4014,1.2152,1.0624,0.9573,0.6896,0.517,0.4077,0.1254,-0.0314,-0.0784,-0.3139,-0.4241,-0.4395,-0.5022,-0.6115,-0.7361,-0.5958,-0.874,-1.4091,-1.9107,-2.486,-3.1951,-4.5076,-5.553,-6.3447,-6.581,-6.5075,-6.3024,-6.1616,-6.0337,-5.9443,-6.0173,-5.9619,-5.8483,-5.7276,-5.6122,-5.516,-5.4726,-5.389,-5.3184,-5.3518,-5.2808,-5.1759,-5.0489,-5.0154,-4.9928,-4.8904,-4.9475,-5.0154,-5.0154,-5.11,-5.1787,-5.1787,-5.0795,-5.001,-5.001,-4.8868,-4.8172,-4.8172,-4.8172,-4.8172,-4.8172,-4.8739,-4.8872,-4.8246,-4.9632,-5.0457,-5.0508,-5.0471,-5.0405,-5.0086,-5.1789,-5.2606,-5.2695,-5.4549,-5.5409,5.0442,5.0217,4.9487,4.6604,4.4578,4.2712,4.0378,3.7469,3.4119,0.0,2.974,2.9642,2.6869,2.8876,3.0284,2.796,2.9112,3.1011,3.3277,3.3316,3.3262,3.3583,3.1246,2.9646,2.9788,2.7967,2.6619,2.6619,2.605,2.5758,2.5876,2.4583,2.34,2.2484,2.2509,2.1291,1.826,1.4613,1.2326,1.1405,0.9236,0.6893,0.4385,0.3133,0.1411,-0.0628,-0.2511,-0.3766,-0.4544,-0.5645,-0.6584,-0.7525,-0.7213,-0.9366,-1.3465,-2.0646,-2.8659,-3.8205,-5.4861,-6.1004,-6.1779,-6.3683,-6.3705,-6.2556,-6.0538,-5.9642,-5.9266,-5.9113,-5.9443,-5.9387,-5.7465,-5.6704,-5.6122,-5.4929,-5.389,-5.3001,-5.2544,-5.2329,-5.2004,-5.154,-5.154,-5.143,-5.121,-5.143,-5.154,-5.154,-5.1677,-5.1787,-5.1787,-5.0795,-5.001,-5.001,-4.8868,-4.8172,-4.8172,-4.8172,-4.8172,-4.8172,-4.8739,-4.9009,-4.891,-4.9409,-4.9629,-4.9415,-5.0154,-5.0405,-5.0086,-5.1789,-5.2606,-5.2695,-5.4549,-5.5409,5.207,5.2075,5.1795,5.0489,4.8937,4.7521,4.6304,4.4064,4.1297,3.7941,3.6307,3.5313,3.4593,3.5023,3.5649,3.6329,3.5248,3.5107,3.6948,3.6488,3.5498,3.4378,3.4004,3.3688,3.2929,3.1582,3.0792,3.0758,2.9155,2.8341,2.8439,2.7156,2.643,2.6518,2.5249,2.394,2.2423,1.8844,1.5514,1.2447,1.091,0.8439,0.5329,0.4229,0.2349,-0.0313,-0.1878,-0.3601,-0.5486,-0.6584,-0.7213,-0.7525,-0.7525,-1.0543,-1.6657,-2.9168,-3.3153,-3.518,-5.5088,-6.2693,-6.347,-6.2767,-6.1907,-6.0817,-5.925,-5.8391,-5.8056,-5.8024,-5.8208,-5.8148,-5.7086,-5.6317,-5.5728,-5.5728,-5.4274,-5.2972,-5.3232,-5.2623,-5.1896,-5.1787,-5.1787,-5.1787,-5.1787,-5.1787,-5.1787,-5.1787,-5.1787,-5.1787,-5.1787,-5.0795,-5.001,-5.001,-4.9529,-4.916,-4.916,-4.916,-4.855,-4.7424,-4.8097,-4.8569,-4.8471,-4.9165,-4.9737,-4.9863,-5.0279,-5.0309,-4.9892,-5.1697,-5.2606,-5.2695,-5.4549,-5.5409,5.3448,5.3382,5.3315,5.3511,5.2236,5.1054,5.1229,4.9768,4.7624,4.54,4.309,4.1637,4.1853,4.0574,4.0397,4.3219,4.0727,3.8961,4.0521,3.9453,3.7635,3.5292,3.6706,3.7255,3.5787,3.5387,3.5181,3.5124,3.3302,3.1826,3.1354,3.0402,2.9835,2.9518,2.7977,2.6547,2.5542,2.3324,1.9564,1.4404,1.258,1.0285,0.7509,0.6101,0.4068,0.1565,-0.0624,-0.2967,-0.5324,-0.7053,-0.7994,-0.815,-0.815,-1.0492,-1.5533,-3.1521,-3.3523,-3.15,-5.4468,-6.3546,-6.4579,-6.2144,-6.0654,-5.9512,-5.8264,-5.7559,-5.7117,-5.7276,-5.7022,-5.6638,-5.6607,-5.6024,-5.556,-5.5895,-5.4347,-5.2865,-5.3518,-5.2701,-5.1787,-5.1787,-5.1787,-5.1787,-5.1787,-5.1677,-5.1677,-5.1787,-5.1568,-5.1458,-5.1568,-5.0572,-4.9897,-5.0208,-5.0041,-4.9901,-4.9901,-4.9793,-4.883,-4.6948,-4.7484,-4.778,-4.7615,-4.8795,-4.9737,-5.0086,-5.0279,-5.0279,-5.0028,-5.1789,-5.2695,-5.2962,-5.4633,-5.5409,5.42,5.4419,5.4544,5.4913,5.3078,5.1388,5.2397,5.1727,5.0431,4.8275,4.941,4.9674,4.6452,4.477,4.4301,4.5475,4.3093,4.1776,4.3661,4.2936,4.1672,4.0707,4.0618,4.0227,3.8891,3.868,3.854,3.854,3.7707,3.693,3.5975,3.4539,3.2749,3.0859,3.0909,2.9615,2.6866,2.7316,2.4649,1.8703,1.5209,1.2748,1.1355,0.9371,0.7673,0.6108,0.1717,-0.0936,-0.2497,-0.6885,-0.9397,-1.033,-1.033,-0.7148,-0.4258,-1.777,-2.5102,-3.1857,-5.7487,-6.482,-6.2655,-6.147,-6.0771,-5.9968,-5.8024,-5.7371,-5.7276,-5.7086,-5.6317,-5.5758,-5.6414,-5.6607,-5.6091,-5.4696,-5.3547,-5.2573,-5.2113,-5.1896,-5.1787,-5.1787,-5.1787,-5.1787,-5.1787,-5.1348,-5.1128,-5.1677,-5.0906,-5.0348,-5.0906,-4.987,-4.9616,-5.0601,-5.0238,-4.9901,-4.9901,-4.944,-4.876,-4.8083,-4.7514,-4.7052,-4.6506,-4.8296,-4.912,-4.8894,-4.9766,-5.0442,-5.1016,-5.2033,-5.302,-5.3891,-5.4966,-5.5409,5.4922,5.5437,5.5842,5.5623,5.5294,5.5129,5.5705,5.6563,5.6553,5.4264,5.5066,5.4644,4.9554,4.8902,4.8481,4.6528,4.5528,4.4969,4.5074,4.4643,4.3771,4.2076,4.3128,4.3301,4.1536,4.1285,4.1429,4.1856,3.9715,3.8692,3.9323,3.8208,3.7011,3.5704,3.4751,3.3357,3.1791,2.9313,2.6997,2.4847,1.8311,1.3808,1.1361,0.9842,0.8439,0.717,0.5748,0.2481,-0.1707,-0.4037,-0.7162,-1.0252,-0.6331,0.1487,0.7551,-1.6916,-2.667,-3.1162,-5.538,-6.2835,-6.1367,-5.9642,-5.8659,-5.8148,-5.759,-5.7181,-5.7086,-5.7777,-5.7307,-5.6638,-5.6414,-5.5895,-5.53,-5.4999,-5.3623,-5.2437,-5.2837,-5.2301,-5.1787,-5.1787,-5.1787,-5.1677,-5.1348,-5.1649,-5.1649,-5.0795,-5.154,-5.1976,-5.143,-5.1293,-5.1484,-5.192,-5.1347,-5.0685,-4.9901,-4.9666,-4.9141,-4.8165,-4.8659,-4.877,-4.8122,-4.9346,-4.9863,-4.964,-4.996,-5.0442,-5.1109,-5.2124,-5.3108,-5.3976,-5.4966,-5.5409,5.568,5.6331,5.6754,5.6384,5.676,5.7406,5.8223,5.9664,6.0517,5.9429,5.9111,5.7712,5.3273,5.2461,5.1638,4.8919,4.8054,4.7476,4.6682,4.6005,4.4833,4.3194,4.4658,4.526,4.3541,4.3601,4.3955,4.4497,4.2488,4.1474,4.182,4.1158,3.9996,3.8486,3.7627,3.638,3.4751,3.2071,2.9928,2.8187,2.2815,1.8111,1.4122,1.2608,1.1361,1.0246,1.0326,0.6305,-0.0155,-0.1076,-0.2886,-0.4548,0.1966,0.9817,1.3781,-1.6991,-2.7508,-2.9786,-5.2997,-6.0774,-6.0004,-5.7557,-5.715,-5.7527,-5.7117,-5.6896,-5.6991,-5.7684,-5.7402,-5.6735,-5.6024,-5.553,-5.516,-5.4827,-5.3623,-5.2652,-5.2943,-5.2301,-5.1787,-5.1787,-5.1787,-5.1677,-5.143,-5.1976,-5.2085,-5.121,-5.2193,-5.273,-5.2056,-5.1811,-5.192,-5.2244,-5.2244,-5.1807,-5.0739,-5.0516,-4.9945,-4.8936,-4.9722,-4.9907,-4.9219,-4.996,-5.0279,-5.0086,-5.0346,-5.0793,-5.1574,-5.2575,-5.3545,-5.4433,-5.5131,-5.5409,5.6364,5.6866,5.7363,5.7235,5.7225,5.7675,5.9334,6.0259,6.1334,6.3126,6.1299,5.9067,5.7841,5.5357,5.3389,5.3184,5.087,4.8989,4.8989,4.7067,4.5182,4.4479,4.527,4.5628,4.4734,4.5648,4.6301,4.6301,4.6301,4.5403,4.3357,4.3232,4.1693,3.8242,3.954,3.8423,3.4732,3.6186,3.3879,2.8029,2.9042,2.633,2.0402,1.8441,1.7074,1.6294,1.5561,1.0498,0.2622,0.1515,0.3188,0.7331,1.4411,1.6931,1.2935,-1.652,-2.6184,-2.7913,-5.1147,-5.9004,-5.8391,-5.5652,-5.6614,-5.861,-5.68,-5.6704,-5.7213,-5.6414,-5.6024,-5.5758,-5.513,-5.5857,-5.6183,-5.3964,-5.3471,-5.3155,-5.2113,-5.1787,-5.1787,-5.1787,-5.1787,-5.2004,-5.2516,-5.2085,-5.2193,-5.329,-5.2487,-5.192,-5.2566,-5.1017,-5.035,-5.1565,-5.2751,-5.3152,-5.241,-5.1875,-5.1236,-5.0498,-5.0535,-5.0086,-4.9219,-4.9766,-5.0086,-5.0086,-5.0763,-5.1574,-5.2606,-5.3545,-5.4433,-5.5409,-5.5409,-5.5409,5.5872,5.6876,5.7655,5.7302,5.8629,6.0124,6.0625,6.0874,6.1422,6.3215,6.174,5.9671,5.8084,5.6962,5.56,5.367,5.2803,5.2091,5.1023,4.9727,4.8411,4.7047,4.7052,4.6724,4.5577,4.618,4.656,4.6276,4.6059,4.555,4.4669,4.4422,4.3279,4.1119,4.1505,4.0968,3.9344,3.8408,3.6963,3.5143,3.3185,2.8853,2.2818,2.2411,2.268,2.3439,2.2727,1.9452,1.4678,1.3444,1.3419,1.4387,1.6798,0.8055,-0.7356,-1.9659,-3.0908,-4.1584,-5.3307,-5.6619,-5.5621,-5.5607,-5.5993,-5.6511,-5.6704,-5.6414,-5.6219,-5.7307,-5.6927,-5.625,-5.6669,-5.628,-5.5391,-5.3831,-5.2992,-5.2566,-5.2914,-5.2459,-5.2272,-5.3337,-5.3576,-5.3442,-5.2992,-5.3413,-5.3413,-5.2352,-5.3337,-5.386,-5.3203,-5.2644,-5.2216,-5.1783,-5.2751,-5.2838,-5.1364,-5.1362,-5.1135,-5.0227,-5.0437,-5.0405,-5.0183,-4.9863,-4.9766,-4.9766,-5.0668,-5.1574,-5.2606,-5.2874,-5.3459,-5.4433,-5.4433,-5.4433,5.6747,5.7862,5.8687,5.8405,5.985,6.143,6.2146,6.2372,6.2745,6.3663,6.2325,6.0701,5.958,5.8497,5.7238,5.5647,5.4791,5.4105,5.3128,5.1698,5.033,4.8977,4.8703,4.831,4.7484,4.774,4.7898,4.8015,4.7626,4.7298,4.6824,4.656,4.5451,4.3107,4.338,4.2902,4.1271,4.0941,3.9908,3.8283,3.7583,3.4391,2.9135,2.7289,2.7018,2.816,2.6638,2.2236,1.6414,1.74,1.3513,0.6771,0.5267,-0.4196,-1.8286,-2.918,-3.9242,-4.8197,-5.3377,-5.4488,-5.3686,-5.3714,-5.4595,-5.5728,-5.5698,-5.6024,-5.6347,-5.6831,-5.6831,-5.6765,-5.67,-5.6311,-5.562,-5.3831,-5.3097,-5.2808,-5.2779,-5.2701,-5.2914,-5.3993,-5.4097,-5.389,-5.3727,-5.4171,-5.4171,-5.3203,-5.4304,-5.4743,-5.3518,-5.386,-5.3652,-5.2537,-5.3413,-5.3509,-5.1857,-5.1932,-5.1648,-5.0475,-5.0485,-5.0501,-5.0405,-4.9892,-4.9669,-4.9669,-5.0668,-5.1389,-5.2033,-5.2426,-5.3108,-5.3976,-5.3976,-5.4147,5.8248,5.9248,5.9906,5.9975,6.0691,6.1901,6.3574,6.432,6.4521,6.4249,6.302,6.1877,6.1568,5.9896,5.8492,5.8422,5.6711,5.5377,5.5052,5.3302,5.1577,5.0525,5.0252,5.0026,4.9775,4.9788,4.9967,5.0575,5.0184,4.9562,4.8965,4.8965,4.7522,4.4622,4.5329,4.4473,4.1888,4.3654,4.2739,3.9196,4.2109,4.1602,3.793,3.2936,3.1111,3.165,2.8503,2.181,1.3535,1.5915,0.677,-0.9266,-1.3879,-1.8061,-2.3633,-4.1957,-4.8679,-4.9033,-5.2017,-5.2895,-5.2366,-5.1099,-5.3116,-5.5758,-5.4318,-5.543,-5.6892,-5.543,-5.6054,-5.6892,-5.5819,-5.6047,-5.5918,-5.3935,-5.3652,-5.3576,-5.2164,-5.273,-5.3605,-5.4023,-5.3919,-5.3919,-5.4713,-5.4611,-5.4641,-5.5078,-5.5078,-5.4641,-5.3518,-5.4406,-5.4641,-5.3518,-5.4509,-5.464,-5.3294,-5.3174,-5.2509,-5.0911,-5.0567,-5.0405,-5.0086,-4.9863,-4.9766,-4.9669,-5.0668,-5.1203,-5.1109,-5.2033,-5.2931,-5.3891,-5.3891,-5.4348,5.7071,5.7958,5.8553,5.8949,6.0379,6.2146,6.3766,6.4099,6.4046,6.3888,6.3187,6.2214,6.1229,6.0058,5.9114,5.8702,5.7741,5.692,5.6348,5.5052,5.3765,5.2483,5.1604,5.0833,4.9997,5.0039,5.0029,4.9939,4.9688,4.9308,4.8965,4.8736,4.8158,4.7221,4.7036,4.644,4.5547,4.62,4.6175,4.5303,4.528,4.4915,4.4106,3.9888,3.9023,4.0655,3.3191,3.0689,3.0937,1.7971,0.4801,-0.7903,-1.4849,-2.5967,-3.8704,-4.5502,-4.7832,-4.7885,-5.1207,-5.1509,-5.0851,-5.2857,-5.3518,-5.3727,-5.4068,-5.4582,-5.4988,-5.5089,-5.4654,-5.4552,-5.5651,-5.4887,-5.3802,-5.3698,-5.3906,-5.4009,-5.3489,-5.3489,-5.4038,-5.535,-5.5451,-5.5451,-5.535,-5.535,-5.528,-5.5179,-5.4406,-5.3727,-5.3413,-5.3623,-5.3727,-5.3413,-5.4509,-5.464,-5.3294,-5.3174,-5.2442,-5.0655,-5.0501,-5.0279,-4.9766,-5.0383,-5.0478,-4.9669,-5.1419,-5.185,-5.1109,-5.1296,-5.1942,-5.2874,-5.2874,-5.3371,5.679,5.7876,5.8735,5.9956,6.1014,6.2219,6.3834,6.4046,6.3878,6.3841,6.3308,6.2631,6.1969,6.1033,6.0184,5.938,5.8772,5.7997,5.7181,5.627,5.549,5.502,5.3593,5.2639,5.2764,5.2286,5.1932,5.1822,5.1818,5.1428,5.0823,5.0989,5.0629,4.9648,4.9368,4.8656,4.7287,4.8337,4.8247,4.7272,4.8462,4.8986,4.8905,4.4765,4.2239,4.0803,3.6098,2.8501,1.8477,0.6922,-0.6572,-2.0557,-2.6454,-3.4866,-4.3959,-4.5278,-4.6263,-4.7262,-5.0296,-5.0126,-4.9019,-5.1811,-5.2459,-5.2244,-5.2914,-5.3623,-5.4347,-5.4786,-5.4786,-5.4887,-5.575,-5.522,-5.4479,-5.4582,-5.4479,-5.4142,-5.3698,-5.4038,-5.4713,-5.5681,-5.5681,-5.5581,-5.5581,-5.5481,-5.5381,-5.5179,-5.4641,-5.4304,-5.4304,-5.4304,-5.4304,-5.4304,-5.4577,-5.4311,-5.3264,-5.2905,-5.2114,-5.056,-5.0501,-5.0279,-4.9669,-5.0573,-5.0668,-4.9669,-5.0698,-5.0952,-5.0383,-5.0828,-5.1574,-5.2606,-5.302,-5.3719,5.6464,5.8098,5.9427,6.1237,6.1801,6.2288,6.375,6.3963,6.3873,6.3873,6.3391,6.2953,6.2855,6.2023,6.1113,6.0273,5.9704,5.9011,5.8174,5.7487,5.723,5.7386,5.5824,5.5081,5.5762,5.4982,5.4418,5.4546,5.462,5.4229,5.3337,5.389,5.3413,5.1755,5.1779,5.0932,4.912,5.027,5.0186,4.8718,5.1525,5.3158,5.3366,4.7429,4.3604,4.1372,3.7655,2.3823,0.3157,-0.6693,-1.9484,-3.3558,-3.8823,-4.2305,-4.4352,-4.4205,-4.5473,-4.7574,-4.9475,-4.916,-4.8236,-5.0405,-5.1072,-5.1155,-5.1702,-5.2857,-5.4112,-5.4479,-5.5119,-5.5651,-5.578,-5.5681,-5.5551,-5.5581,-5.4947,-5.4304,-5.386,-5.4509,-5.528,-5.5481,-5.5381,-5.528,-5.5481,-5.5381,-5.5179,-5.5179,-5.5179,-5.5179,-5.5179,-5.5179,-5.5179,-5.5179,-5.461,-5.3922,-5.3234,-5.2672,-5.1917,-5.0787,-5.0852,-5.0728,-5.022,-5.0763,-5.0763,-4.996,-4.996,-4.9863,-4.9669,-5.0668,-5.1574,-5.2606,-5.3545,-5.4517,5.4863,5.742,5.9656,6.0927,6.1794,6.2575,6.3468,6.3647,6.3647,6.3647,6.3289,6.3002,6.3002,6.2129,6.1379,6.1265,6.0519,5.9995,5.9867,5.9543,5.9076,5.8565,5.8114,5.7398,5.6371,5.6173,5.6176,5.6264,5.609,5.5899,5.5675,5.54,5.4827,5.3964,5.3174,5.3087,5.3597,5.253,5.2867,5.471,5.4361,5.5937,5.8753,4.592,4.5886,5.4921,3.7063,2.6479,1.9609,-1.0145,-2.4302,-2.8193,-3.9282,-4.344,-4.3541,-4.5835,-4.8041,-4.9816,-4.9045,-4.9502,-5.0544,-5.1593,-5.1183,-5.0544,-5.2216,-5.2963,-5.3279,-5.4171,-5.4274,-5.4245,-5.5048,-5.4509,-5.3964,-5.4947,-5.5179,-5.5078,-5.4976,-5.5078,-5.5179,-5.528,-5.5179,-5.5179,-5.528,-5.5179,-5.5179,-5.5179,-5.5179,-5.5179,-5.5179,-5.5179,-5.5179,-5.5179,-5.461,-5.3922,-5.3234,-5.3118,-5.2732,-5.1757,-5.2336,-5.2516,-5.2245,-5.1482,-5.1016,-5.0922,-5.0922,-5.0478,-4.9669,-5.0668,-5.1574,-5.2606,-5.3545,-5.4517,5.5292,5.7688,5.9448,6.0744,6.1775,6.2636,6.3416,6.3602,6.3602,6.3602,6.3465,6.3289,6.3242,6.2831,6.2339,6.1715,6.1343,6.0879,6.0371,6.0121,5.996,5.9988,5.9106,5.8462,5.8116,5.7682,5.7371,5.721,5.7323,5.7259,5.6679,5.6642,5.648,5.6419,5.5963,5.5705,5.581,5.5478,5.6426,5.8599,5.814,5.6096,5.2674,4.7372,4.3685,4.053,2.3155,1.0999,0.1963,-1.7763,-2.6185,-2.7605,-3.7075,-4.1114,-4.1879,-4.3013,-4.5498,-4.8094,-4.821,-4.8815,-4.9502,-5.0628,-5.0096,-4.9415,-5.1565,-5.1674,-5.1537,-5.4068,-5.4068,-5.3623,-5.4845,-5.4845,-5.4509,-5.5078,-5.5108,-5.5006,-5.5179,-5.5179,-5.5179,-5.5179,-5.5179,-5.5179,-5.5179,-5.5108,-5.5006,-5.5179,-5.5078,-5.5006,-5.5179,-5.5179,-5.5381,-5.5918,-5.5074,-5.4439,-5.4544,-5.3956,-5.3214,-5.2547,-5.2785,-5.2606,-5.1758,-5.185,-5.1666,-5.1109,-5.1109,-5.0922,-5.0478,-5.2002,-5.29,-5.3371,-5.4348,-5.4966,5.5511,5.7614,5.9015,6.0388,6.1532,6.2595,6.3363,6.3557,6.3557,6.3602,6.3602,6.3557,6.3465,6.3428,6.311,6.2339,6.2146,6.1879,6.1171,6.0915,6.0891,6.1336,6.03,5.9663,5.9854,5.9253,5.8846,5.8886,5.9093,5.9052,5.8671,5.8414,5.8478,5.8595,5.8328,5.7961,5.765,5.8328,5.9512,6.0998,6.1324,5.658,4.7361,4.5099,3.6572,2.2991,1.1551,0.0114,-1.112,-2.2291,-2.7304,-2.8585,-3.5781,-3.9277,-4.0559,-4.1097,-4.3482,-4.6585,-4.739,-4.7977,-4.8495,-4.9415,-4.8983,-4.8495,-5.0489,-5.035,-5.0126,-5.3518,-5.3727,-5.3174,-5.4641,-5.4976,-5.4976,-5.4976,-5.4773,-5.4773,-5.5006,-5.5179,-5.5179,-5.5179,-5.5179,-5.5179,-5.5179,-5.5006,-5.4905,-5.5179,-5.5149,-5.5149,-5.5078,-5.5551,-5.6017,-5.6445,-5.5438,-5.5008,-5.5615,-5.4536,-5.3782,-5.3403,-5.349,-5.3196,-5.2274,-5.2664,-5.2575,-5.182,-5.182,-5.1758,-5.1482,-5.3196,-5.3976,-5.3976,-5.4966,-5.5409,5.4495,5.6588,5.8396,5.9641,6.1135,6.2508,6.3205,6.3382,6.3465,6.3557,6.3602,6.3602,6.3602,6.3511,6.3382,6.3336,6.3099,6.2917,6.2867,6.2552,6.2291,6.2291,6.2024,6.16,6.095,6.0867,6.1202,6.201,6.1571,6.1665,6.2597,6.1602,6.0821,6.0337,5.949,5.9323,5.9794,6.0769,6.1317,6.1508,6.3234,5.8649,4.8252,3.511,2.2799,1.1629,0.9348,0.4721,-0.2369,-1.9566,-2.7885,-3.031,-3.7031,-3.9649,-3.9888,-4.227,-4.489,-4.7061,-4.6917,-4.7743,-4.9072,-4.9072,-4.8495,-4.7912,-4.9247,-4.9335,-4.9535,-5.1972,-5.2644,-5.2857,-5.4068,-5.4304,-5.4304,-5.4304,-5.4304,-5.4406,-5.4773,-5.4976,-5.5179,-5.5179,-5.5179,-5.5179,-5.5179,-5.5006,-5.4905,-5.5179,-5.569,-5.5857,-5.4976,-5.6506,-5.7307,-5.6286,-5.5689,-5.5465,-5.5705,-5.4917,-5.4295,-5.4295,-5.4915,-5.5246,-5.5164,-5.4348,-5.3891,-5.3891,-5.3891,-5.3371,-5.2516,-5.3545,-5.3976,-5.3976,-5.4966,-5.5409,5.4606,5.6239,5.8001,5.9398,6.0944,6.2354,6.3336,6.3465,6.3519,6.3878,6.3786,6.3742,6.4214,6.3878,6.3511,6.3382,6.3527,6.349,6.3194,6.3325,6.3386,6.3178,6.3206,6.2946,6.2333,6.2141,6.2131,6.2178,6.2549,6.2864,6.324,6.2948,6.2631,6.2472,6.2009,6.1535,6.1068,6.1656,5.9453,5.47,5.6387,4.7327,2.9062,2.4032,1.1765,-0.5639,-0.6317,-0.834,-1.2165,-2.3936,-2.8837,-2.9583,-3.5588,-3.8465,-3.9497,-4.1354,-4.4103,-4.6798,-4.6055,-4.7247,-4.8957,-4.8326,-4.7886,-4.7912,-4.9133,-4.8584,-4.821,-5.1537,-5.1863,-5.1537,-5.3756,-5.4304,-5.4304,-5.4097,-5.42,-5.4304,-5.423,-5.4568,-5.4905,-5.4905,-5.5108,-5.5179,-5.5179,-5.4773,-5.4845,-5.575,-5.5789,-5.5956,-5.6378,-5.7053,-5.759,-5.787,-5.6915,-5.6567,-5.7056,-5.597,-5.5246,-5.5081,-5.5246,-5.5131,-5.4517,-5.48,-5.4601,-5.3976,-5.4601,-5.4433,-5.3459,-5.4433,-5.4883,-5.4883,-5.4998,-5.4998,5.4235,5.5513,5.6927,5.8473,6.0178,6.1725,6.2818,6.3445,6.3883,6.4131,6.4087,6.4131,6.4628,6.4292,6.3925,6.3841,6.4053,6.4094,6.3761,6.3941,6.4103,6.3855,6.3866,6.3746,6.3349,6.314,6.3099,6.3039,6.3802,6.4339,6.4516,6.465,6.4584,6.4252,6.3474,6.2959,6.2692,6.2741,5.9003,5.1669,5.2221,4.0427,1.81,1.6806,0.5063,-1.4404,-1.5624,-1.7473,-2.0391,-2.6822,-2.9329,-2.9456,-3.4808,-3.7688,-3.9103,-4.0452,-4.2981,-4.5718,-4.4719,-4.6055,-4.812,-4.7129,-4.7154,-4.7677,-4.8353,-4.7677,-4.7349,-5.0657,-5.0879,-5.0768,-5.3337,-5.3993,-5.3993,-5.3815,-5.3919,-5.3993,-5.3815,-5.423,-5.4671,-5.4803,-5.5149,-5.5521,-5.5551,-5.5391,-5.5659,-5.6572,-5.6541,-5.6704,-5.7213,-5.787,-5.8455,-5.8728,-5.778,-5.7291,-5.7883,-5.6498,-5.5604,-5.5409,-5.5409,-5.5131,-5.4517,-5.5049,-5.5164,-5.4517,-5.5049,-5.5049,-5.4433,-5.5049,-5.5409,-5.5409,-5.4998,-5.4697,0.0,0.0,0.0,5.6814,5.8743,6.0574,6.1713,6.3275,6.4407,6.4251,6.4483,6.4699,6.4734,6.4734,6.4734,6.4734,6.4734,6.4734,6.4699,6.448,6.4332,6.4332,6.4142,6.3949,6.3949,6.3949,6.4203,6.4849,6.5508,6.6091,6.6515,6.688,6.6567,6.5502,6.3832,6.3432,6.4669,6.3925,5.9869,5.263,5.1079,3.8678,1.7163,1.3434,0.2662,-1.3334,-1.6858,-2.0819,-2.4918,-2.7894,-2.9472,-3.0217,-3.4827,-3.7421,-3.8729,-3.9801,-4.1993,-4.4175,-4.3153,-4.4497,-4.6465,-4.5451,-4.608,-4.7087,-4.69,-4.6566,-4.6755,-4.9247,-4.9901,-5.0489,-5.2837,-5.35,-5.35,-5.35,-5.35,-5.35,-5.35,-5.389,-5.4406,-5.4671,-5.559,-5.6219,-5.6311,-5.6927,-5.7402,-5.7402,-5.8056,-5.8116,-5.7213,-5.8818,-5.9684,-5.8696,-5.7924,-5.7664,-5.7883,-5.6334,-5.5409,-5.5409,-5.5409,-5.5409,-5.5409,-5.5409,-5.5409,-5.5409,-5.5409,-5.5409,-5.5328,-5.5409,-5.5409,-5.5328,-5.4915,-5.4528,5.3484,0.0,0.0,0.0,0.0,0.0,6.1557,6.294,6.4059,6.4841,6.4841,6.4871,6.5456,6.5345,6.522,6.5513,6.5329,6.5041,6.4734,6.5137,6.5359,6.5035,6.5192,6.5161,6.4655,6.462,6.4518,6.4206,6.5198,6.6105,6.6729,6.7502,6.7885,6.7778,6.6235,6.5474,6.551,5.9628,5.1927,4.2521,3.5654,2.322,0.6174,0.4837,-0.3077,-1.565,-1.5785,-1.9554,-2.5625,-2.8501,-2.9504,-2.9916,-3.5452,-3.7955,-3.8465,-4.0862,-4.2293,-4.3028,-4.2038,-4.338,-4.5451,-4.4449,-4.5354,-4.69,-4.6806,-4.6566,-4.6755,-4.9247,-4.9901,-5.0489,-5.2837,-5.35,-5.35,-5.35,-5.35,-5.35,-5.35,-5.42,-5.4684,-5.423,-5.5119,-5.5986,-5.6017,-5.6669,-5.7402,-5.8119,-5.8303,-5.8455,-5.885,-5.9419,-5.9716,-5.9419,-5.8335,-5.7664,-5.7664,-5.6251,-5.5409,-5.5409,-5.5409,-5.5409,-5.5409,-5.5409,-5.5246,-5.4998,-5.4915,-5.4749,-5.4412,-5.4749,-5.4915,-5.4915,-5.4157,-5.3552,5.3584,5.3822,5.4431,5.5681,0.0,0.0,6.1165,6.3102,6.4664,6.5175,6.5238,6.5329,6.5808,6.5712,6.5656,6.5872,6.569,6.5485,6.5199,6.5608,6.5808,6.5635,6.5808,6.5795,6.5398,6.537,6.5222,6.4803,6.5779,6.6858,6.8035,6.8601,6.8941,6.9048,6.7746,6.6985,6.703,5.8662,4.9213,3.8832,2.8889,1.6276,0.1707,-0.0467,-0.6814,-1.6089,-1.5946,-1.9864,-2.621,-2.8213,-2.9361,-3.0217,-3.4789,-3.6864,-3.7668,-3.9823,-4.0991,-4.1633,-4.0777,-4.1865,-4.3707,-4.3208,-4.435,-4.601,-4.6421,-4.6755,-4.7416,-4.9362,-5.0601,-5.1702,-5.3184,-5.35,-5.35,-5.35,-5.35,-5.35,-5.35,-5.4304,-5.4887,-5.4097,-5.556,-5.6831,-5.6475,-5.7402,-5.8455,-5.8972,-5.8972,-5.9062,-5.9628,-5.9946,-5.9935,-5.9295,-5.8483,-5.7753,-5.7158,-5.6303,-5.5653,-5.5409,-5.5653,-5.562,-5.5409,-5.5246,-5.4998,-5.4749,-5.4613,-5.4274,-5.3813,-5.4274,-5.4444,-5.4157,-5.364,-5.3144,5.4038,5.3749,5.3986,5.5283,5.7529,0.0,6.0786,6.3352,6.5475,6.5268,6.558,6.5872,6.5872,6.5872,6.5872,6.5872,6.5872,6.5897,6.5897,6.5897,6.5923,6.5996,6.5996,6.5982,6.599,6.6013,6.5996,6.6012,6.6877,6.8072,6.9524,6.9874,6.9875,6.9659,6.8679,6.7834,6.7126,5.8233,4.8287,3.7433,2.6309,1.4069,0.1089,-0.2966,-0.8702,-1.5599,-1.6715,-2.0647,-2.6502,-2.749,-2.8947,-3.0676,-3.3466,-3.5393,-3.6614,-3.7842,-3.9057,-3.9997,-3.9341,-4.0344,-4.1843,-4.2074,-4.3458,-4.511,-4.6035,-4.7087,-4.821,-4.9562,-5.1593,-5.35,-5.35,-5.35,-5.35,-5.35,-5.35,-5.35,-5.35,-5.4406,-5.4988,-5.42,-5.6383,-5.8208,-5.7307,-5.8728,-5.9979,-5.9716,-5.9716,-5.9716,-5.9804,-6.0292,-6.0168,-5.8938,-5.8691,-5.81,-5.6791,-5.6526,-5.6179,-5.5572,-5.602,-5.602,-5.5328,-5.5081,-5.4948,-5.4749,-5.4327,-5.3813,-5.329,-5.3813,-5.3726,-5.329,-5.329,-5.3144,5.5537,5.5203,5.5014,5.5887,5.7572,0.0,6.0957,6.2597,6.4106,6.5273,6.5597,6.5651,6.5663,6.5635,6.5635,6.5635,6.5767,6.5858,6.5897,6.5897,6.5923,6.5996,6.5996,6.5982,6.599,6.6013,6.6067,6.615,6.7697,6.8838,6.921,7.042,7.0844,7.0264,7.0277,6.6322,5.7985,4.9121,3.8464,2.6104,1.5485,0.6009,-0.2181,-0.3125,-0.8243,-1.6429,-1.5658,-1.9693,-2.6765,-2.7055,-2.8357,-3.0818,-3.4552,-3.6209,-3.6749,-3.9035,-3.9604,-3.9341,-3.921,-4.0452,-4.2074,-4.2201,-4.3855,-4.6035,-4.618,-4.6421,-4.7087,-4.9247,-5.1593,-5.35,-5.35,-5.35,-5.35,-5.35,-5.35,-5.35,-5.35,-5.4684,-5.556,-5.4988,-5.6735,-5.818,-5.8026,-5.894,-5.9804,-5.9716,-5.9716,-5.9892,-6.0463,-6.0633,-6.0588,-6.0203,-5.9631,-5.8897,-5.8008,-5.7353,-5.6768,-5.6179,-5.6224,-5.5861,-5.4915,-5.5523,-5.5491,-5.4717,-5.4264,-5.3608,-5.2877,-5.329,-5.3321,-5.2877,-5.2877,-5.2788,5.6563,5.6168,5.6081,5.6776,5.8087,0.0,0.0,6.2738,6.4051,6.5282,6.558,6.5586,6.5608,6.5444,6.5352,6.559,6.5523,6.5569,6.5881,6.5933,6.5923,6.6097,6.6044,6.609,6.6295,6.6256,6.6225,6.6322,6.8072,6.9101,6.9091,7.047,7.1006,7.0504,7.0508,6.5836,5.6053,4.6584,3.5818,2.3821,1.2766,0.4364,-0.156,-0.3283,-0.8097,-1.5209,-1.5514,-1.9575,-2.6036,-2.6036,-2.778,-3.0818,-3.4277,-3.5665,-3.5957,-3.8395,-3.8967,-3.8702,-3.8702,-3.9713,-4.1075,-4.1715,-4.3255,-4.4915,-4.5817,-4.6849,-4.821,-4.9987,-5.192,-5.3319,-5.353,-5.35,-5.353,-5.3319,-5.3424,-5.35,-5.371,-5.4917,-5.5888,-5.5888,-5.7149,-5.8211,-5.8211,-5.9062,-5.9804,-6.012,-6.0206,-6.0463,-6.1103,-6.1432,-6.1207,-6.0069,-5.9944,-5.9271,-5.7859,-5.7648,-5.7372,-5.6724,-5.6954,-5.6724,-5.5814,-5.5974,-5.5539,-5.4348,-5.4147,-5.3577,-5.2698,-5.3346,-5.3346,-5.2698,-5.2698,-5.2698,5.7808,5.7277,5.7156,5.7729,5.8958,6.0377,0.0,0.0,0.0,6.5299,6.5523,6.5569,6.5552,6.529,6.5166,6.5503,6.5367,6.5341,6.5827,6.5866,6.5943,6.6196,6.6157,6.62,6.6555,6.6496,6.6464,6.6522,6.8031,6.8966,6.8982,7.0162,7.0712,7.0455,7.0173,6.4717,5.3718,4.5333,3.452,2.1234,1.1382,0.3899,-0.125,-0.453,-0.9036,-1.4291,-1.5998,-1.9919,-2.5171,-2.5171,-2.7201,-3.0551,-3.3466,-3.4727,-3.5002,-3.7213,-3.8037,-3.8037,-3.8037,-3.8814,-4.0214,-4.1203,-4.25,-4.4027,-4.555,-4.7652,-4.9675,-5.0768,-5.2056,-5.3107,-5.3319,-5.3319,-5.3319,-5.3107,-5.3213,-5.35,-5.3919,-5.4917,-5.5918,-5.6603,-5.7464,-5.8119,-5.8303,-5.912,-5.9946,-6.0633,-6.0769,-6.1103,-6.1837,-6.2279,-6.1859,-5.9953,-6.0272,-5.9769,-5.7729,-5.7959,-5.7848,-5.6954,-5.7514,-5.7364,-5.6369,-5.6179,-5.5507,-5.4232,-5.4401,-5.4008,-5.2935,-5.3836,-5.3836,-5.2935,-5.2935,-5.2935,6.0182,5.9166,5.8248,5.8876,5.9999,6.1254,6.2363,0.0,6.4229,6.5192,0.0,6.5405,6.5405,0.0,0.0,6.5413,6.5435,6.5494,6.558,6.5611,6.58,6.6338,6.6406,6.645,6.6516,6.6631,6.6644,6.6601,6.7553,6.8253,6.8488,6.9386,6.9855,6.9874,6.9805,6.1063,4.2969,4.08,2.9192,0.8469,0.5193,0.0624,-0.5006,-0.811,-1.1818,-1.6007,-1.7702,-2.1003,-2.5171,-2.5171,-2.6925,-2.9712,-3.2333,-3.3743,-3.459,-3.6519,-3.7213,-3.7213,-3.7213,-3.8882,-4.1052,-4.1181,-4.3004,-4.5306,-4.661,-4.7977,-4.9335,-5.0517,-5.1787,-5.2787,-5.2787,-5.2787,-5.2894,-5.3001,-5.2894,-5.3078,-5.3993,-5.4611,-5.519,-5.6506,-5.718,-5.7871,-5.8792,-5.9476,-6.0054,-6.0633,-6.1152,-6.177,-6.2436,-6.2591,-6.2165,-6.1212,-6.1146,-6.0527,-5.8909,-5.8771,-5.8137,-5.6734,-5.7256,-5.6768,-5.5017,-5.5988,-5.6113,-5.5149,-5.5876,-5.5474,-5.3805,-5.4736,-5.4736,-5.3836,-5.3836,-5.3836,6.2126,6.1602,6.1152,6.1459,6.1824,6.2337,6.3328,6.3682,6.4152,6.5116,0.0,0.0,0.0,0.0,0.0,0.0,6.5245,6.5268,6.564,6.5712,6.5857,6.6081,6.6217,6.6315,6.6483,6.6642,6.6582,6.612,6.6903,6.7533,6.7914,6.825,6.8717,6.9353,6.6545,5.7736,4.2644,3.7808,2.685,0.9704,0.6038,0.1406,-0.3905,-0.7166,-1.1041,-1.5557,-1.7245,-2.0252,-2.414,-2.414,-2.5918,-2.8851,-3.1226,-3.2752,-3.3882,-3.6248,-3.7079,-3.7079,-3.7079,-3.875,-4.1203,-4.25,-4.3927,-4.5184,-4.6225,-4.7154,-4.7951,-4.9106,-5.0378,-5.143,-5.1512,-5.2085,-5.268,-5.2573,-5.268,-5.2972,-5.4097,-5.4509,-5.5089,-5.6537,-5.6923,-5.7306,-5.8058,-5.9088,-6.0279,-6.1399,-6.1803,-6.2279,-6.3083,-6.2966,-6.2385,-6.1246,-6.1002,-6.0313,-5.8804,-5.8631,-5.8314,-5.752,-5.7701,-5.7406,-5.6614,-5.7072,-5.692,-5.6034,-5.6459,-5.5955,-5.4736,-5.5636,-5.5876,-5.5474,-5.4485,-5.375,6.3532,6.33,6.3114,6.318,6.3225,6.3418,6.4123,6.4247,6.447,6.5192,6.5337,0.0,0.0,0.0,6.509,6.5383,0.0,6.5253,6.573,6.5779,6.5865,6.5924,6.6098,6.6276,6.6418,6.6664,6.6523,6.582,6.6256,6.6704,6.7007,6.6954,6.7179,6.7874,6.3643,5.5287,4.2664,3.6342,2.5841,1.129,0.6505,0.1873,-0.2811,-0.7011,-1.1053,-1.4483,-1.6483,-1.951,-2.2955,-2.2955,-2.473,-2.7695,-3.0233,-3.1632,-3.2752,-3.5568,-3.6674,-3.6809,-3.6674,-3.8374,-4.0968,-4.3451,-4.447,-4.4816,-4.5864,-4.6345,-4.6942,-4.839,-4.9562,-5.0378,-5.0934,-5.1759,-5.2465,-5.2221,-5.2358,-5.2759,-5.4097,-5.4479,-5.5018,-5.6537,-5.6761,-5.6954,-5.759,-5.8966,-6.0332,-6.1642,-6.2234,-6.2736,-6.3343,-6.3227,-6.2494,-6.1101,-6.0784,-6.013,-5.8627,-5.849,-5.8348,-5.8099,-5.7735,-5.7662,-5.7881,-5.7881,-5.748,-5.6614,-5.6844,-5.6536,-5.5636,-5.6536,-5.6691,-5.6192,-5.4985,-5.4008,6.4286,6.37,6.3125,6.3186,6.3843,6.4453,6.437,6.4953,6.5445,6.5505,6.5452,6.5375,6.5299,6.5493,6.5613,0.0,6.5531,0.0,0.0,6.5678,6.5743,6.6069,6.6329,6.6432,6.6303,6.6622,6.656,6.5946,6.5801,6.568,6.559,6.5366,6.5144,6.492,6.2226,5.3985,4.0038,3.6282,2.6044,0.9162,0.4624,0.0622,-0.3286,-0.9976,-1.2944,-1.3259,-1.6177,-1.9057,-2.1601,-2.1601,-2.3252,-2.6225,-2.9218,-3.0501,-3.0926,-3.4333,-3.5743,-3.6016,-3.5606,-3.7575,-4.071,-4.3451,-4.4347,-4.4594,-4.5864,-4.6225,-4.6679,-4.9221,-4.9901,-5.0154,-5.143,-5.1787,-5.1896,-5.2113,-5.2004,-5.2301,-5.4274,-5.4479,-5.4815,-5.647,-5.6761,-5.7115,-5.8026,-5.9113,-6.0075,-6.0586,-6.1963,-6.3,-6.3,-6.3,-6.2419,-6.0882,-6.0711,-6.013,-5.8627,-5.8348,-5.8099,-5.7881,-5.7105,-5.6996,-5.7881,-5.7881,-5.748,-5.6614,-5.7406,-5.7406,-5.6536,-5.7406,-5.6996,-5.5312,-5.528,-5.5198,6.5336,6.5141,6.5059,6.5199,6.5293,6.5387,6.5576,6.5582,6.5666,6.5665,6.5601,6.5595,6.5769,6.5765,6.5702,0.0,0.0,6.5804,0.0,6.5731,6.5769,6.5887,6.6128,6.6295,6.6249,6.6479,6.6209,6.5205,6.5064,6.5029,6.498,6.4493,6.4016,6.3623,5.7821,5.0194,4.0862,3.2143,2.2192,1.1244,0.5584,0.0312,-0.453,-0.9346,-1.2461,-1.4499,-1.6483,-1.9057,-2.1601,-2.1601,-2.3252,-2.6078,-2.9218,-3.0359,-3.0785,-3.3918,-3.5196,-3.5451,-3.7287,-3.8597,-3.9888,-4.2776,-4.3826,-4.4175,-4.55,-4.5257,-4.5135,-4.739,-4.821,-4.8647,-4.9702,-5.0878,-5.1787,-5.1896,-5.1896,-5.2301,-5.4068,-5.4406,-5.4815,-5.6439,-5.6761,-5.6858,-5.7211,-5.8087,-5.9323,-6.0837,-6.1528,-6.2122,-6.2889,-6.2327,-6.1495,-6.0591,-5.9973,-5.922,-5.8201,-5.8027,-5.7954,-5.7881,-5.7662,-5.7554,-5.7881,-5.7881,-5.7735,-5.748,-5.7735,-5.7735,-5.748,-5.7735,-5.7554,-5.6996,-5.6426,-5.5555,6.598,6.6066,6.619,6.6338,6.6156,6.6012,6.6268,6.6042,6.578,6.5732,6.5759,6.5722,6.5611,6.5803,6.589,0.0,0.0,0.0,0.0,6.6069,6.6109,6.6048,6.6167,6.6206,6.6127,6.6288,6.5952,6.492,6.4657,6.4332,6.3875,6.35,6.2662,6.135,5.4945,4.7667,3.9629,3.0049,2.052,1.1158,0.5751,0.0312,-0.515,-0.8886,-1.185,-1.4191,-1.5573,-1.7388,-1.979,-2.0241,-2.2049,-2.4583,-2.7765,-2.9361,-3.0359,-3.3502,-3.4784,-3.5177,-3.8046,-3.9103,-3.9627,-4.2397,-4.3451,-4.3802,-4.4645,-4.4275,-4.4099,-4.633,-4.7308,-4.7886,-4.9258,-5.0682,-5.1787,-5.1787,-5.1787,-5.2221,-5.3993,-5.4304,-5.4815,-5.6439,-5.6761,-5.6761,-5.6761,-5.7306,-5.8363,-6.0417,-6.0953,-6.1561,-6.2659,-6.1893,-6.107,-6.0333,-5.9512,-5.8693,-5.7949,-5.7881,-5.7881,-5.7881,-5.7881,-5.7881,-5.7881,-5.7881,-5.7881,-5.7881,-5.7881,-5.7881,-5.7881,-5.7881,-5.7735,-5.7406,-5.7181,-5.627]},{"header":{"parameterUnit":"m.s-1","parameterCategory":1,"la1":30.6,"la2":29.2853,"lo1":-89.7004,"lo2":-87.6739,"dy":0.0162,"dx":0.0183,"nx":112,"ny":82,"refTime":"2023-04-17T12:00:00:Z","depth":0,"parameterNumber":3,"parameterNumberName":"V-component_of_WINDS"},"data":[0.0,0.0,0.0,0.0,0.0,0.0,0.0,0.0,0.0,0.0,0.0,0.0,0.0,0.0,0.0,0.0,0.0,0.0,0.0,0.0,0.0,0.0,0.0,0.0,0.0,0.0,0.0,0.0,0.0,0.0,0.0,0.0,0.0,0.0,0.0,0.0,0.0,0.0,0.0,0.0,0.0,0.0,0.0,0.0,0.0,0.0,0.0,0.0,0.0,0.0,0.0,0.0,0.0,0.0,0.0,0.0,0.0,0.0,0.0,0.0,0.0,0.0,0.0,0.0,0.0,0.0,0.0,0.0,0.0,0.0,0.0,0.0,0.0,0.0,0.0,0.0,0.0,0.0,0.0,0.0,0.0,0.0,0.0,0.0,0.0,0.0,0.0,0.0,0.0,0.0,-3.8132,-3.3123,-2.7815,-2.3599,-2.0945,-1.8339,-1.62,-1.441,0.0,0.0,0.0,0.0,0.0,0.0,0.0,0.0,0.0,0.0,0.0,0.0,0.0,0.0,0.0,0.0,0.0,0.0,0.0,0.0,0.0,0.0,0.0,0.0,0.0,0.0,0.0,0.0,0.0,0.0,0.0,0.0,0.0,0.0,0.0,0.0,0.0,0.0,0.0,0.0,0.0,0.0,0.0,0.0,0.0,0.0,0.0,0.0,0.0,0.0,0.0,0.0,0.0,0.0,0.0,0.0,0.0,0.0,0.0,0.0,0.0,0.0,0.0,0.0,0.0,0.0,0.0,0.0,0.0,0.0,0.0,0.0,0.0,0.0,0.0,0.0,0.0,0.0,0.0,0.0,0.0,0.0,0.0,0.0,0.0,0.0,0.0,0.0,0.0,0.0,0.0,0.0,0.0,0.0,0.0,0.0,0.0,0.0,0.0,0.0,0.0,0.0,0.0,0.0,-3.6819,-2.9848,-2.4763,-2.0984,-1.8571,-1.4657,-1.1918,-1.1439,0.0,0.0,0.0,0.0,0.0,0.0,0.0,0.0,0.0,0.0,0.0,0.0,0.0,0.0,0.0,0.0,0.0,0.0,0.0,0.0,0.0,0.0,0.0,0.0,0.0,0.0,0.0,0.0,0.0,0.0,0.0,0.0,0.0,0.0,0.0,0.0,0.0,0.0,0.0,0.0,0.0,0.0,0.0,0.0,0.0,0.0,0.0,0.0,0.0,0.0,0.0,0.0,0.0,0.0,0.0,0.0,0.0,0.0,0.0,0.0,0.0,0.0,0.0,0.0,0.0,0.0,0.0,0.0,0.0,0.0,0.0,0.0,0.0,0.0,0.0,0.0,0.0,0.0,0.0,0.0,0.0,0.0,0.0,0.0,0.0,0.0,0.0,0.0,0.0,0.0,0.0,0.0,0.0,0.0,0.0,0.0,0.0,0.0,0.0,0.0,0.0,0.0,0.0,-3.7971,-3.41,-2.6095,-2.3456,-2.0741,-1.6583,-1.322,-1.1103,-1.0609,-0.9329,0.0,0.0,0.0,0.0,0.0,0.0,0.0,0.0,0.0,0.0,0.0,0.0,0.0,0.0,0.0,0.0,0.0,0.0,0.0,0.0,0.0,0.0,0.0,0.0,0.0,0.0,0.0,0.0,0.0,0.0,0.0,0.0,0.0,0.0,0.0,0.0,0.0,0.0,0.0,0.0,0.0,0.0,0.0,0.0,0.0,0.0,0.0,0.0,0.0,0.0,0.0,0.0,0.0,0.0,0.0,0.0,0.0,0.0,0.0,0.0,0.0,0.0,0.0,0.0,0.0,0.0,0.0,0.0,0.0,0.0,0.0,0.0,0.0,0.0,0.0,0.0,0.0,0.0,0.0,0.0,0.0,0.0,0.0,0.0,0.0,0.0,0.0,0.0,0.0,0.0,0.0,0.0,0.0,0.0,0.0,0.0,0.0,0.0,0.0,0.0,0.0,0.0,-3.5646,-3.2528,-2.4449,-2.267,-2.0159,-1.5432,-1.2217,-1.0301,-0.9673,-0.7113,0.0,0.0,0.0,0.0,0.0,0.0,0.0,0.0,0.0,0.0,0.0,0.0,0.0,0.0,0.0,0.0,0.0,0.0,0.0,0.0,0.0,0.0,0.0,0.0,0.0,0.0,0.0,0.0,0.0,0.0,0.0,0.0,0.0,0.0,0.0,0.0,0.0,0.0,0.0,0.0,0.0,0.0,0.0,0.0,0.0,0.0,0.0,0.0,0.0,0.0,0.0,0.0,0.0,0.0,0.0,0.0,0.0,0.0,0.0,0.0,0.0,0.0,0.0,0.0,0.0,0.0,0.0,0.0,0.0,0.0,0.0,0.0,0.0,0.0,0.0,0.0,0.0,0.0,0.0,0.0,0.0,0.0,0.0,0.0,0.0,0.0,0.0,0.0,0.0,0.0,0.0,0.0,0.0,0.0,0.0,0.0,0.0,0.0,0.0,0.0,0.0,0.0,-3.5824,-3.3682,-2.6822,-2.1965,-1.8106,-1.5432,-1.0721,-0.7837,-0.7449,-0.565,0.0,0.0,0.0,0.0,0.0,0.0,0.0,0.0,0.0,0.0,0.0,0.0,0.0,0.0,0.0,0.0,0.0,0.0,0.0,0.0,0.0,0.0,0.0,0.0,0.0,0.0,0.0,0.0,0.0,0.0,0.0,0.0,0.0,0.0,0.0,0.0,0.0,0.0,0.0,0.0,0.0,0.0,0.0,0.0,0.0,0.0,0.0,0.0,0.0,0.0,0.0,0.0,0.0,0.0,0.0,0.0,0.0,0.0,0.0,0.0,0.0,0.0,0.0,0.0,0.0,0.0,0.0,0.0,0.0,0.0,0.0,0.0,0.0,0.0,0.0,0.0,0.0,0.0,0.0,0.0,0.0,0.0,0.0,0.0,0.0,0.0,0.0,0.0,0.0,0.0,0.0,0.0,0.0,0.0,0.0,0.0,0.0,0.0,0.0,0.0,0.0,0.0,-3.1902,-2.9157,-1.9775,-1.7202,-1.4848,-1.1401,-0.9281,-0.7567,-0.6,0.0,0.0,0.0,0.0,0.0,0.0,0.0,0.0,0.0,0.0,0.0,0.0,0.0,0.0,0.0,0.0,0.0,0.0,0.0,0.0,0.0,0.0,0.0,0.0,0.0,0.0,0.0,0.0,0.0,0.0,0.0,0.0,0.0,0.0,0.0,0.0,0.0,0.0,0.0,0.0,0.0,0.0,0.0,0.0,0.0,0.0,0.0,0.0,0.0,0.0,0.0,0.0,0.0,0.0,0.0,0.0,0.0,0.0,0.0,0.0,0.0,0.0,0.0,0.0,0.0,0.0,0.0,0.0,0.0,0.0,0.0,0.0,0.0,0.0,0.0,0.0,0.0,0.0,0.0,0.0,0.0,0.0,0.0,0.0,0.0,0.0,0.0,0.0,0.0,0.0,0.0,0.0,0.0,0.0,0.0,0.0,0.0,0.0,0.0,0.0,0.0,0.0,-2.8932,-2.9792,-2.6928,-1.6318,-1.4704,-1.3189,-0.9889,-0.7964,-0.6477,-0.5291,0.0,0.0,0.0,0.0,0.0,0.0,0.0,0.0,0.0,0.0,0.0,0.0,0.0,0.0,0.0,0.0,0.0,0.0,0.0,0.0,0.0,0.0,0.0,0.0,0.0,0.0,0.0,0.0,0.0,0.0,0.0,0.0,0.0,0.0,0.0,0.0,0.0,0.0,0.0,0.0,0.0,0.0,0.0,0.0,0.0,0.0,0.0,0.0,0.0,0.0,0.0,0.0,0.0,0.0,0.0,0.0,0.0,0.0,0.0,0.0,0.0,0.0,0.0,0.0,0.0,0.0,0.0,0.0,0.0,0.0,0.0,0.0,0.0,0.0,0.0,0.0,0.0,0.0,0.0,0.0,0.0,0.0,0.0,0.0,0.0,0.0,0.0,0.0,0.0,0.0,0.0,0.0,0.0,0.0,0.0,0.0,0.0,0.0,0.0,0.0,0.0,0.0,-2.8932,-3.026,-2.8103,-1.8218,-1.5357,-1.3328,-1.1694,-0.6792,-0.4147,0.0,0.0,0.0,0.0,0.0,0.0,0.0,0.0,0.0,0.0,0.0,0.0,0.0,0.0,0.0,0.0,0.0,0.0,0.0,0.0,0.0,0.0,0.0,0.0,0.0,0.0,0.0,0.0,0.0,0.0,0.0,0.0,0.0,0.0,0.0,0.0,0.0,0.0,0.0,0.0,0.0,0.0,0.0,0.0,0.0,0.0,0.0,0.0,0.0,0.0,0.0,0.0,0.0,0.0,0.0,0.0,0.0,0.0,0.0,0.0,0.0,0.0,0.0,0.0,0.0,0.0,0.0,0.0,0.0,0.0,0.0,0.0,0.0,0.0,0.0,0.0,0.0,0.0,0.0,0.0,0.0,0.0,0.0,0.0,0.0,0.0,0.0,0.0,0.0,0.0,0.0,0.0,0.0,0.0,0.0,0.0,0.0,0.0,0.0,0.0,0.0,0.0,0.0,-2.1135,-2.105,-1.9048,-1.1911,-0.7656,-0.554,-0.6113,-0.1721,0.0663,-0.0401,0.0,0.0,0.0,0.0,0.0,0.0,0.0,0.0,0.0,0.0,0.0,0.0,0.0,0.0,0.0,0.0,0.0,0.0,0.0,0.0,0.0,0.0,0.0,0.0,0.0,0.0,0.0,0.0,0.0,0.0,0.0,0.0,0.0,0.0,0.0,0.0,0.0,0.0,0.0,0.0,0.0,0.0,0.0,0.0,0.0,0.0,0.0,0.0,0.0,0.0,0.0,0.0,0.0,0.0,0.0,0.0,0.0,0.0,0.0,0.0,0.0,0.0,0.0,0.0,0.0,0.0,0.0,0.0,0.0,0.0,0.0,0.0,0.0,0.0,0.0,0.0,0.0,0.0,0.0,0.0,0.0,0.0,0.0,0.0,0.0,0.0,0.0,0.0,0.0,0.0,0.0,0.0,0.0,0.0,0.0,0.0,0.0,0.0,0.0,0.0,0.0,0.0,-1.7485,-1.5722,-1.2783,-0.6647,-0.1985,0.0132,-0.1063,0.2514,0.424,0.2538,0.0,0.0,0.0,0.0,0.0,0.0,0.0,0.0,0.0,0.0,0.0,0.0,0.0,0.0,0.0,0.0,0.0,0.0,0.0,0.0,0.0,0.0,0.0,0.0,0.0,0.0,0.0,0.0,0.0,0.0,0.0,0.0,0.0,0.0,0.0,0.0,0.0,0.0,0.0,0.0,0.0,0.0,0.0,0.0,0.0,0.0,0.0,0.0,0.0,0.0,0.0,0.0,0.0,0.0,0.0,0.0,0.0,0.0,0.0,0.0,0.0,0.0,0.0,0.0,0.0,0.0,0.0,0.0,0.0,0.0,0.0,0.0,0.0,0.0,0.0,0.0,0.0,0.0,0.0,0.0,0.0,0.0,0.0,0.0,0.0,0.0,0.0,0.0,0.0,0.0,0.0,0.0,0.0,0.0,0.0,0.0,0.0,0.0,0.0,0.0,0.0,0.0,-1.5559,-1.2474,-0.8506,-0.2245,0.2242,0.4481,0.3313,0.6357,0.7162,0.4533,0.0,0.0,0.0,0.0,0.0,0.0,0.0,0.0,0.0,0.0,0.0,0.0,0.0,0.0,0.0,0.0,0.0,0.0,0.0,0.0,0.0,0.0,0.0,0.0,0.0,0.0,0.0,0.0,0.0,0.0,0.0,0.0,0.0,0.0,0.0,0.0,0.0,0.0,0.0,0.0,0.0,0.0,0.0,0.0,0.0,0.0,0.0,0.0,0.0,0.0,0.0,0.0,0.0,0.0,0.0,0.0,0.0,0.0,0.0,0.0,-6.1129,-5.9403,0.0,0.0,0.0,0.0,0.0,0.0,0.0,0.0,0.0,0.0,0.0,0.0,0.0,0.0,0.0,0.0,0.0,0.0,0.0,0.0,0.0,0.0,0.0,0.0,0.0,0.0,0.0,0.0,0.0,0.0,0.0,0.0,0.0,0.0,0.0,0.0,0.0,0.0,0.0,0.0,-0.6369,-0.4832,-0.2485,0.3017,0.722,0.908,0.7792,1.1133,1.2096,0.9462,0.9094,0.0,0.0,0.0,0.0,0.0,0.0,0.0,0.0,0.0,0.0,0.0,0.0,0.0,0.0,0.0,0.0,0.0,0.0,0.0,0.0,0.0,0.0,0.0,0.0,0.0,0.0,0.0,0.0,0.0,0.0,0.0,0.0,0.0,0.0,0.0,0.0,0.0,0.0,0.0,0.0,0.0,0.0,0.0,0.0,0.0,0.0,0.0,0.0,0.0,0.0,0.0,0.0,0.0,0.0,0.0,0.0,0.0,0.0,0.0,-6.1063,-5.989,0.0,0.0,0.0,0.0,0.0,0.0,0.0,0.0,0.0,0.0,0.0,0.0,0.0,0.0,0.0,0.0,0.0,0.0,0.0,0.0,0.0,0.0,0.0,0.0,0.0,0.0,0.0,0.0,0.0,0.0,0.0,0.0,0.0,0.0,0.0,0.0,0.0,0.0,0.0,0.0,-0.2532,0.1738,0.5359,0.8158,1.1747,1.349,1.2048,1.439,1.4763,1.1871,1.1468,0.0,0.0,0.0,0.0,0.0,0.0,0.0,0.0,0.0,0.0,0.0,0.0,0.0,0.0,0.0,0.0,0.0,0.0,0.0,0.0,0.0,0.0,0.0,0.0,0.0,0.0,0.0,0.0,0.0,0.0,0.0,0.0,0.0,0.0,0.0,0.0,0.0,0.0,0.0,0.0,0.0,0.0,0.0,0.0,0.0,0.0,0.0,0.0,0.0,0.0,0.0,0.0,0.0,-5.9676,-6.0418,-6.0791,-6.0502,-6.0648,-6.1022,-6.0284,-5.9925,-5.9688,-5.8524,0.0,0.0,0.0,0.0,0.0,0.0,0.0,0.0,0.0,0.0,0.0,0.0,0.0,0.0,0.0,0.0,0.0,0.0,0.0,0.0,0.0,0.0,-5.8509,-5.8174,-5.7868,-5.7701,-5.786,0.0,0.0,0.0,0.0,0.0,0.0,0.0,0.0,0.0,0.0,0.0,-0.0136,0.7206,1.2585,1.3149,1.5958,1.7289,1.6082,1.6781,1.6385,1.4164,1.3962,1.3396,0.0,0.0,0.0,0.0,0.0,0.0,0.0,0.0,0.0,0.0,0.0,0.0,0.0,0.0,0.0,0.0,0.0,0.0,0.0,0.0,0.0,0.0,0.0,0.0,0.0,0.0,0.0,0.0,0.0,0.0,0.0,0.0,-6.0075,-6.0345,0.0,0.0,0.0,0.0,0.0,0.0,0.0,0.0,0.0,0.0,0.0,0.0,0.0,-5.7333,-5.8677,-5.8893,-5.9391,-6.022,-6.0388,-6.0639,-6.0856,-6.0485,-6.0663,-6.1276,-6.0782,0.0,-5.9309,-5.9133,0.0,0.0,0.0,0.0,0.0,0.0,0.0,0.0,0.0,0.0,0.0,0.0,0.0,0.0,0.0,0.0,0.0,0.0,0.0,0.0,0.0,0.0,-6.148,-6.0249,-5.9643,-5.912,-5.8194,-5.4935,-5.1821,-5.0685,-4.3017,-3.5267,0.0,0.0,0.0,0.0,0.0,0.0,0.5268,1.0571,1.5147,1.8406,1.9252,1.9385,1.8829,1.8719,1.8711,1.8569,1.7562,1.6002,1.4047,1.4697,0.0,0.0,0.0,0.0,0.0,0.0,0.0,0.0,0.0,0.0,0.0,0.0,0.0,0.0,0.0,0.0,0.0,0.0,0.0,0.0,0.0,0.0,0.0,0.0,0.0,0.0,0.0,0.0,0.0,-6.0127,-6.0351,-5.9881,-5.9374,-5.8781,0.0,0.0,0.0,0.0,0.0,0.0,0.0,0.0,0.0,-5.7659,-5.7833,-5.8531,-5.9853,-6.0304,-6.0709,-6.1018,-6.1039,-6.1042,-6.1063,-6.0474,-6.0331,-6.059,-6.0254,-5.9854,-5.9405,-5.9475,-5.8734,-5.7413,0.0,0.0,0.0,0.0,-5.6601,-5.7171,-5.8112,-5.8941,-5.9543,-5.9346,0.0,0.0,0.0,0.0,0.0,0.0,0.0,-5.7043,-5.8186,-5.9369,-6.0211,-5.9791,-5.921,-5.8427,-5.7027,-5.4373,-5.1911,-5.0559,-4.3929,-3.6403,-2.9583,-2.2226,0.0,0.0,0.0,0.5237,1.1295,1.6089,1.9705,2.161,2.136,2.099,2.1098,2.124,2.0822,1.9891,1.9906,1.91,1.7,1.8524,1.843,0.0,0.0,0.0,0.0,0.0,0.0,0.0,0.0,0.0,0.0,0.0,0.0,0.0,0.0,0.0,0.0,0.0,0.0,0.0,0.0,0.0,0.0,0.0,0.0,0.0,0.0,0.0,0.0,-6.0399,-6.0323,-5.9638,-5.932,-5.8754,0.0,0.0,0.0,0.0,0.0,0.0,-5.6182,-5.6415,-5.7119,-5.8442,-5.8796,-5.9554,-6.0625,-6.1165,-6.1422,-6.1478,-6.1389,-6.1207,-6.0927,-6.0388,-6.0043,-5.9814,-5.9551,-5.9418,-5.9418,-5.9447,-5.884,-5.7746,-5.7114,-5.6001,-5.4952,-5.5651,-5.6294,-5.6872,-5.7793,-5.8737,-5.9574,-5.9346,-5.9543,-5.9739,-5.9279,0.0,0.0,0.0,0.0,-5.6558,-5.7325,-5.797,-5.8427,-5.829,-5.7649,-5.6568,-5.4891,-5.3475,-5.1812,-4.9565,-4.3163,-3.5749,-2.7818,-1.9326,0.0,-0.1379,0.5797,1.2285,1.8438,2.2818,2.5413,2.5383,2.4286,2.3637,2.3861,2.378,2.298,2.1502,2.2572,2.2406,2.0682,2.2582,2.2803,2.0781,0.0,0.0,0.0,0.0,0.0,0.0,0.0,0.0,0.0,0.0,0.0,0.0,0.0,0.0,0.0,0.0,0.0,0.0,0.0,0.0,0.0,0.0,0.0,0.0,0.0,0.0,0.0,0.0,0.0,-5.9998,-5.9835,0.0,0.0,0.0,0.0,-5.5957,-5.6402,-5.6776,-5.6933,-5.7758,-5.8362,-5.8664,-5.9429,-6.0245,-6.1047,-6.0701,-6.0973,-6.1696,-6.1257,-6.0757,-6.0135,-6.0107,-5.9683,-5.9081,-5.9012,-5.9012,-5.9012,-5.9012,-5.8632,-5.8031,-5.7634,-5.7264,-5.7114,-5.7606,-5.8109,-5.853,-5.8737,-5.8875,-5.8943,-5.8943,-5.8943,-5.9011,-5.9513,-5.8072,0.0,0.0,-5.7717,-5.7437,-5.7712,-5.7797,-5.7488,-5.6172,-5.5021,-5.3692,-5.1759,-5.1482,-5.0455,-4.6785,-3.7718,-2.9424,-2.5344,0.0,-0.0553,0.5544,1.3778,2.1381,2.726,3.0672,3.2169,3.0972,2.9327,2.8113,2.8143,2.6152,2.5039,2.5449,2.5763,2.5689,2.4902,2.536,2.5548,2.5423,2.3803,0.0,0.0,0.0,0.0,0.0,0.0,0.0,0.0,0.0,0.0,0.0,0.0,0.0,0.0,0.0,0.0,0.0,0.0,0.0,0.0,0.0,0.0,0.0,0.0,0.0,0.0,0.0,0.0,-6.0228,-5.9473,0.0,-5.8234,-5.735,-5.674,-5.6617,-5.6257,-5.6212,-5.6595,-5.6588,-5.6912,-5.7666,-5.8202,-5.8792,-5.9468,-5.9982,-6.0281,-6.0626,-6.0696,-6.0671,-6.0423,-6.0234,-5.9943,-5.9683,-5.9046,-5.9046,-5.9351,-5.8702,-5.8492,-5.8526,-5.8385,-5.7887,-5.7297,-5.8031,-5.7925,-5.7634,-5.8246,-5.8351,-5.8317,-5.8772,-5.8909,-5.9113,-6.0129,-5.9044,-5.7746,-5.853,-5.7857,-5.682,-5.6315,-5.6711,-5.6905,-5.5377,-5.4773,-5.4158,-5.2455,-4.8365,-4.3326,-3.6928,-3.2798,-2.7418,-1.8108,-0.5419,0.6649,1.6458,2.3557,2.9469,3.3707,3.5189,3.505,3.3113,3.0847,2.963,2.9854,2.7769,2.7078,2.842,2.7247,2.7051,2.7959,2.758,2.6826,2.5705,2.5062,2.4626,0.0,0.0,0.0,0.0,0.0,0.0,0.0,0.0,0.0,0.0,0.0,0.0,0.0,0.0,0.0,0.0,0.0,0.0,0.0,0.0,0.0,0.0,0.0,0.0,0.0,-6.1022,-6.0849,-6.0405,-5.9422,-5.8687,-5.8338,-5.7364,-5.6848,-5.7225,-5.639,-5.6129,-5.6685,-5.6309,-5.6369,-5.7054,-5.7638,-5.8221,-5.8943,-5.9578,-6.0065,-6.0352,-6.0388,-6.0485,-6.0547,-5.9779,-5.9516,-5.9582,-5.8806,-5.8737,-5.9046,-5.8388,-5.8422,-5.884,-5.884,-5.8456,-5.7887,-5.8314,-5.8027,-5.748,-5.7954,-5.8027,-5.7954,-5.8388,-5.8528,-5.8633,-5.9644,-5.9011,-5.7963,-5.853,-5.7707,-5.6447,-5.5474,-5.5474,-5.5361,-5.3945,-5.3396,-5.2267,-4.915,-4.4441,-3.8084,-2.8727,-2.691,-2.2961,-1.0472,0.0132,1.1494,2.5074,3.0254,3.4758,4.0641,3.981,3.804,3.6566,3.3539,3.2049,3.3309,3.0773,2.963,3.0773,3.001,2.963,2.9775,2.9383,2.8598,2.7462,2.6286,2.5047,2.3973,0.0,0.0,0.0,0.0,0.0,0.0,0.0,0.0,0.0,0.0,0.0,0.0,0.0,0.0,0.0,0.0,0.0,0.0,0.0,0.0,0.0,0.0,0.0,-6.0352,-6.0519,-6.0663,-6.0493,-5.9845,-5.9131,-5.8429,-5.784,-5.7615,-5.7765,-5.6882,-5.6659,-5.7206,-5.7087,-5.7053,-5.7053,-5.7839,-5.8634,-5.9578,-5.9644,-6.0129,-6.0974,-6.0352,-6.0164,-6.0485,-5.8875,-5.8317,-5.8668,-5.8246,-5.8103,-5.8103,-5.8103,-5.8422,-5.9047,-5.8944,-5.9012,-5.8944,-5.8631,-5.849,-5.8419,-5.8027,-5.7881,-5.7881,-5.7881,-5.7735,-5.7662,-5.8209,-5.7701,-5.7139,-5.7594,-5.7256,-5.6414,-5.5263,-5.4115,-5.2958,-5.182,-5.0573,-4.8028,-4.1619,-3.9698,-3.5615,-2.2933,-1.9917,-1.5548,-0.3102,0.4353,1.42,3.0579,3.3485,0.0,4.8046,4.4732,4.1582,4.1696,3.7352,3.5617,3.8444,3.5164,3.2825,3.2302,3.3937,3.348,3.0602,3.0628,3.0791,3.0664,2.7361,2.4356,2.1997,0.0,0.0,0.0,0.0,0.0,0.0,0.0,0.0,0.0,0.0,0.0,0.0,0.0,0.0,0.0,0.0,0.0,0.0,0.0,0.0,0.0,-6.1237,-6.1205,-6.1007,-6.0906,-6.0633,-6.0036,-5.9276,-5.852,-5.7941,-5.776,-5.764,-5.7412,-5.6772,-5.6466,-5.6781,-5.6057,-5.5709,-5.5895,-5.6591,-5.6996,-5.7072,-5.846,-5.8977,-5.8703,-5.9613,-5.9744,-5.9113,-5.8668,-5.846,-5.839,-5.8069,-5.814,-5.8528,-5.8137,-5.8655,-5.956,-5.859,-5.8456,-5.884,-5.8561,-5.8419,-5.8277,-5.7954,-5.7808,-5.7662,-5.7662,-5.7514,-5.7331,-5.7197,-5.7114,-5.6954,-5.682,-5.6658,-5.61,-5.4653,-5.4115,-5.3569,-5.2124,-5.1233,-4.8866,-4.2241,-3.6545,-3.0185,-2.1385,-1.2573,-0.4055,0.365,1.6635,2.8307,3.5019,4.4676,5.0005,4.6863,4.7147,4.6745,4.4679,4.1973,4.0609,4.1458,3.9137,3.6861,3.5128,3.4389,3.3828,3.3194,3.187,3.0152,2.791,2.7554,2.5659,0.0,0.0,0.0,0.0,0.0,0.0,0.0,0.0,0.0,0.0,0.0,0.0,0.0,0.0,0.0,0.0,0.0,0.0,0.0,0.0,0.0,0.0,-6.1237,-6.1166,-6.1143,-6.0864,-6.0444,-5.9832,-5.9178,-5.8652,-5.8165,-5.8123,-5.8259,-5.841,-5.7485,-5.7055,-5.7284,-5.6212,-5.5516,-5.5409,-5.5927,-5.629,-5.6569,-5.8035,-5.8772,-5.8703,-5.9613,-5.9873,-5.9644,-5.853,-5.8106,-5.8319,-5.8084,-5.8287,-5.8613,-5.888,-5.9507,-6.0244,0.0,0.0,0.0,0.0,-5.9123,-5.8829,-5.8754,-5.853,-5.8379,-5.8379,-5.8227,-5.7897,-5.6966,-5.7044,-5.7122,-5.6224,-5.6192,-5.61,-5.4317,-5.3065,-5.2147,-5.1359,-4.797,-4.3467,-3.7659,-2.8938,-2.0208,-1.3165,-0.2079,0.0,1.0518,2.0309,3.0316,3.7933,4.4884,4.8705,4.749,4.6873,4.601,4.4997,4.2478,4.1607,4.3105,4.1213,0.0,0.0,0.0,3.5659,3.3823,3.1707,0.0,0.0,0.0,2.4334,2.1499,2.1306,0.0,0.0,1.6104,1.5106,0.0,0.0,0.0,0.0,0.0,0.0,0.0,0.0,0.0,0.0,0.0,0.0,0.0,0.0,0.0,0.0,-6.1188,-6.0927,-6.0809,-6.057,-6.0227,-5.976,-5.943,-5.9071,-5.876,-5.8735,-5.9015,-5.9786,-5.8724,-5.8185,-5.8391,-5.7156,0.0,0.0,0.0,-5.6492,-5.7338,-5.8319,-5.9145,-5.9873,-5.9937,-6.029,-6.0757,-5.8492,-5.7808,-5.8419,-5.8579,-5.8648,-5.8681,-5.996,-6.0671,-6.096,-6.0027,-6.0091,-6.0637,-6.0415,-6.0114,-5.9843,-5.9843,0.0,0.0,-5.9455,-5.9376,-5.8814,-5.7168,-5.7167,-5.7423,-5.5815,-5.5977,-5.617,-5.4369,-5.1729,-4.9685,-4.9922,-4.3115,-3.5414,-3.0755,-2.0106,-0.951,-0.2673,0.8288,1.6599,1.6843,2.0002,2.6553,3.867,3.9386,4.1101,4.8121,4.5181,4.2836,4.4106,4.1629,0.0,4.4673,4.2891,4.0464,3.7613,3.8775,3.7449,3.3126,3.0696,2.8854,2.7387,2.4657,2.2673,2.1378,2.0672,1.9869,1.8664,1.8035,1.6764,0.0,0.0,0.0,0.0,0.0,0.0,0.0,0.0,0.0,0.0,0.0,0.0,0.0,0.0,0.0,-6.1122,-6.1056,-6.069,-6.0108,-6.0285,-6.0301,-5.9769,-5.919,-5.8819,-5.8952,-5.884,-5.9011,-5.9466,-5.8855,-5.8668,-5.9045,-5.8035,-5.76,-5.7712,-5.7707,-5.7853,-5.8319,-5.9247,-5.9513,-5.9113,-5.9744,0.0,-5.9113,-5.9217,-5.9098,-5.8875,-6.0023,-6.0291,-6.0102,-6.0608,-6.116,-6.1415,-6.0591,-6.0204,-6.019,-6.019,-6.0038,-5.9843,-5.9843,-5.9533,-5.9297,-5.9297,-5.9139,-5.8591,-5.6745,-5.6766,0.0,-5.6176,-5.5827,-5.5739,-5.562,-5.2562,-4.9518,-4.8994,-4.3,-3.5591,-2.9147,-1.9458,-0.9918,-0.2677,0.8014,1.6833,1.9358,2.7753,3.417,3.461,4.1973,4.6431,4.3624,4.5498,4.7197,4.7315,4.7787,4.8407,4.9107,4.8112,4.5126,3.9755,3.5945,3.3591,3.2873,3.1616,3.0325,2.8871,2.8262,2.6761,2.4232,2.3918,2.2432,1.9999,1.934,1.8307,0.0,0.0,0.0,0.0,0.0,0.0,0.0,0.0,0.0,0.0,0.0,-6.0186,-6.1001,0.0,-6.0579,-6.1123,-6.0863,-6.0541,-6.0327,-6.0225,-5.9984,-5.9472,-5.9346,-5.9258,-5.918,-5.8948,-5.892,-5.9149,-5.9106,-5.9045,-5.8909,-5.8633,-5.846,-5.8285,-5.8319,-5.8424,-5.8599,-5.9513,-5.9809,-5.9447,-6.0614,-6.0917,-6.0434,-6.0769,-6.0774,-6.0529,-6.1427,-6.1772,-6.159,-6.2148,-6.2415,-6.2419,-6.1783,-6.1418,-6.1231,-6.1231,-6.1076,-6.092,-6.0763,-6.0525,-6.0284,-6.0156,-6.0074,-5.9564,-5.7285,-5.7538,-5.8274,-5.6479,-5.6208,-5.6384,-5.6119,-5.2032,-4.842,-5.0143,-4.0504,-2.9725,-2.5501,-1.2986,-0.056,0.6421,1.6072,2.361,2.5145,3.2777,3.8376,3.7339,4.2023,4.5364,4.4864,4.5552,4.662,4.7941,4.824,4.8763,4.9639,4.7443,4.4653,4.1418,3.6267,3.3379,3.3398,3.1469,3.0065,2.9265,2.8592,2.7137,2.5008,2.5635,2.4343,2.1654,2.1885,2.0806,0.0,0.0,0.0,0.0,0.0,0.0,0.0,-5.9607,-6.0287,-6.0187,-6.0419,-6.0795,-6.1277,-6.1208,-6.1089,-6.1134,-6.0828,-6.0571,-6.0648,-6.045,-6.0078,-5.9468,-5.96,-5.9701,-5.9451,-5.8998,-5.8772,-5.8909,-5.918,-5.9247,-5.8875,-5.9247,-5.9247,-5.884,-5.8943,-5.9011,-5.9145,-5.9873,-6.0297,-6.0501,-6.1707,-6.2378,-6.2521,-6.2505,-6.2494,-6.2463,-6.2927,-6.3066,-6.31,-6.3618,-6.3677,-6.3377,-6.3,-6.2693,-6.2459,-6.2381,-6.2189,-6.1917,-6.179,-6.1547,-6.1334,-6.1169,-6.0919,-6.045,-5.8261,-5.8539,-5.9161,-5.7013,-5.6765,-5.6941,-5.5775,-5.1337,-4.7568,-4.9097,-3.7083,-2.4323,-2.0412,-0.5776,0.8894,1.6025,2.4233,3.0611,3.1914,3.6603,4.0333,4.0983,4.1712,4.3473,4.7047,4.5874,4.5528,4.7782,4.7541,4.7633,4.8681,4.5445,4.3034,4.2028,3.733,3.4342,3.3776,3.1212,2.9805,2.9543,2.846,2.7254,2.5801,2.6988,2.6054,2.3393,2.4209,2.3112,-5.6393,-5.8698,-5.7863,-5.5095,-5.5934,-5.718,0.0,-5.7275,-5.882,-5.9235,-5.9779,-6.0401,-6.1081,-6.125,-6.1169,-6.098,-6.128,-6.1209,-6.0149,-6.1087,-6.156,-6.0574,-5.9817,-5.9522,-5.9889,-5.8703,-5.8212,-5.8806,-5.8977,-5.9247,-5.9809,-6.0227,-6.0512,-6.0757,-6.0512,-6.0574,-6.0962,-6.0998,-6.139,-6.2248,-6.2295,-6.2628,-6.3306,-6.3966,-6.4131,-6.3877,-6.4318,-6.4497,-6.4428,-6.4147,-6.3967,-6.375,-6.3377,-6.3,-6.2615,-6.2459,-6.2144,-6.1709,-6.1709,-6.1499,-6.1119,-6.1119,-6.0463,-5.9674,-5.9402,-5.8838,-5.8233,-5.7987,-5.7308,-5.6234,-5.419,-5.1832,-4.8139,-4.0478,-3.3595,-2.5426,-1.3365,-0.2037,0.8392,1.759,2.4687,3.1176,3.715,3.9165,4.0099,4.0158,4.3241,4.5788,4.6186,4.7028,4.7768,4.811,4.9437,4.9553,4.7724,4.6152,4.379,4.0245,3.7506,3.5211,3.3126,3.2403,3.1506,3.0213,3.0714,3.0178,2.8871,2.9003,2.7535,2.4738,2.4844,2.3983,-5.2497,-5.4723,-5.474,-5.3444,-5.4126,-5.5348,-5.5851,-5.7237,-5.862,-5.9176,-5.984,-6.0558,-6.1208,-6.1172,-6.1188,-6.1535,-6.153,-6.143,-6.1297,-6.1825,-6.1956,-6.1371,-6.0581,-5.9991,-5.9674,-5.8353,-5.7628,-5.7959,-5.8388,-5.8909,-5.9644,-6.0192,-6.0818,-6.1386,-6.1544,-6.1676,-6.1897,-6.2566,-6.3073,-6.3312,-6.3941,-6.4302,-6.4519,-6.5037,-6.524,-6.5148,-6.5237,-6.518,-6.4944,-6.4637,-6.4533,-6.4498,-6.3639,-6.3417,-6.357,-6.3308,-6.2702,-6.211,-6.2469,-6.2076,-6.1417,-6.1334,-6.0886,-6.0345,-5.9794,-5.9707,-5.9587,-5.8483,-5.7807,-5.715,-5.5675,-4.991,-4.3974,-4.1633,-2.9125,-1.5721,-0.7969,0.4323,1.614,2.3688,3.0429,3.591,3.9274,4.2339,4.4586,4.5897,4.5911,4.6282,4.7866,4.859,4.9681,5.1333,5.2257,5.1837,4.9861,4.7521,4.5076,4.2326,3.8489,3.556,3.3823,3.2492,3.112,2.9709,2.9952,2.9674,2.8608,2.9543,2.8608,2.6188,2.7137,2.626,-5.0994,-5.236,-5.2605,-5.1943,-5.2441,-5.3594,-5.5426,-5.6776,-5.7967,-5.9027,-5.9899,-6.0608,-6.1184,-6.1328,-6.1529,-6.2063,-6.2132,-6.226,-6.247,-6.255,-6.2466,-6.2059,-6.1279,-6.0529,-5.9838,-5.8424,-5.748,-5.7289,-5.7993,-5.8668,-5.9346,-6.0093,-6.0843,-6.1595,-6.2095,-6.2449,-6.2668,-6.3702,-6.4365,-6.477,-6.551,-6.5934,-6.6001,-6.6187,-6.6172,-6.5958,-6.6146,-6.5859,-6.5344,-6.5242,-6.5242,-6.5242,-6.4358,-6.4253,-6.4566,-6.4253,-6.3422,-6.2459,-6.2973,-6.2513,-6.1709,-6.1547,-6.1136,-6.0717,-6.0226,-6.0345,-6.0345,-5.8573,-5.762,-5.69,-5.5637,-4.802,-4.019,-3.8297,-2.4052,-0.844,0.0424,1.1389,2.205,3.0012,3.5779,3.993,4.2256,4.5735,4.8762,5.0851,4.9252,4.8462,5.0269,5.073,5.1686,5.3979,5.4299,5.3561,5.1668,4.9052,4.6469,4.4048,3.957,3.6152,3.4117,3.2835,3.123,2.9053,2.9561,2.9561,2.874,2.9822,2.9413,2.7784,2.8854,2.7932,-5.4848,-5.4331,-5.3521,-5.0725,-5.0908,-5.2241,-5.4058,-5.5051,-5.6204,-5.8449,-5.9608,-6.0378,-6.0902,-6.1857,-6.2463,-6.2259,-6.3368,-6.402,-6.3163,-6.3368,-6.3288,-6.2544,-6.1584,-6.0927,-6.0782,-5.9279,-5.7963,-5.7364,-5.7993,-5.8668,-5.9346,-6.0093,-6.0843,-6.1595,-6.2095,-6.2756,-6.3679,-6.4046,-6.5101,-6.679,-6.6729,-6.7036,-6.7723,-6.752,-6.7101,-6.6476,-6.691,-6.6559,-6.5832,-6.6344,-6.6222,-6.5697,-6.5716,-6.5554,-6.5267,-6.5105,-6.397,-6.2459,-6.2973,-6.2513,-6.1709,-6.1709,-6.0903,-6.0108,-6.102,-6.0567,-5.9411,-5.836,-5.6586,-5.4521,-5.2627,-4.682,-3.8182,-2.5076,-1.7927,-0.7955,1.3906,1.8902,2.2963,3.5638,3.8936,4.1662,4.7522,4.9427,5.0851,5.2963,5.325,5.325,5.325,5.3422,5.3901,5.4543,5.4946,5.4296,5.2349,5.0556,4.7861,4.3964,4.083,3.7341,3.3454,3.3968,3.2365,2.8395,3.0343,3.0991,3.023,3.023,2.9952,2.9265,2.9265,2.846,-5.3082,-5.2063,-5.1313,-4.9836,-5.0735,-5.2316,-5.3379,-5.485,-5.6469,-5.8079,-5.9261,-6.0381,-6.145,-6.211,-6.2758,-6.3659,-6.4128,-6.4279,-6.3991,-6.4026,-6.3808,-6.3187,-6.2558,-6.1933,-6.142,-6.0176,-5.9346,-5.9113,-5.9314,-5.9774,-6.0468,-6.0711,-6.1413,-6.2599,-6.3452,-6.4314,-6.5175,-6.6475,-6.7372,-6.7846,-6.7887,-6.7839,-6.776,-6.7573,-6.7341,-6.7157,-6.7101,-6.6931,-6.6677,-6.6605,-6.6722,-6.6874,-6.6114,-6.5743,-6.5554,-6.5237,-6.4463,-6.3604,-6.397,-6.3535,-6.2668,-6.2668,-6.229,-6.1782,-6.1513,-6.0652,-5.9555,-5.8451,-5.6041,-5.2849,-4.8543,-4.1033,-3.1629,-1.964,-0.7495,0.478,1.672,2.5974,3.3108,3.7431,4.1857,4.5729,4.8294,5.0297,5.213,5.4215,5.4552,5.4552,5.4756,5.5478,5.6142,5.6716,5.6496,5.5378,5.3129,5.0469,4.7722,4.5148,4.1653,3.8537,3.5945,3.4366,3.2143,2.902,2.9168,2.943,2.9709,3.01,3.0473,3.0714,3.0714,2.9917,-5.1263,-5.051,-5.0069,-4.9552,-5.0506,-5.196,-5.3445,-5.485,-5.6381,-5.8042,-5.9234,-6.0333,-6.1521,-6.2385,-6.3261,-6.42,-6.4744,-6.496,-6.4731,-6.452,-6.4253,-6.3808,-6.3325,-6.2769,-6.2178,-6.1606,-6.0925,-6.0093,-6.0149,-6.0544,-6.1171,-6.1708,-6.2495,-6.3737,-6.4846,-6.5814,-6.659,-6.7994,-6.8792,-6.8905,-6.8993,-6.8788,-6.8389,-6.8283,-6.8074,-6.7752,-6.7752,-6.7486,-6.7101,-6.7213,-6.7415,-6.7523,-6.6627,-6.6391,-6.6391,-6.5202,-6.477,-6.4806,-6.4669,-6.397,-6.3199,-6.3274,-6.2863,-6.2133,-6.1201,-6.0652,-5.9935,-5.8116,-5.5847,-5.2526,-4.6619,-3.6682,-2.5233,-1.3855,0.0997,1.4633,2.2312,3.1595,3.8739,4.0059,4.4403,4.832,4.9824,5.2152,5.4156,5.5491,5.572,5.5819,5.5918,5.6603,5.7275,5.7684,5.737,5.6402,5.4371,5.1362,4.8834,4.702,4.2971,3.9767,3.7561,3.517,3.2486,2.9395,2.9151,2.9168,2.9316,2.9952,3.0732,3.1377,3.1377,3.0972,-4.9588,-4.9533,-4.9647,-4.9726,-5.0151,-5.1229,-5.396,-5.4933,-5.5955,-5.8364,-5.9396,-6.0185,-6.1205,-6.2754,-6.392,-6.3972,-6.5202,-6.5936,-6.5405,-6.4913,-6.4593,-6.4407,-6.3934,-6.3461,-6.3036,-6.3371,-6.2696,-6.0335,-6.0594,-6.1142,-6.186,-6.3042,-6.4106,-6.4836,-6.6153,-6.7228,-6.7969,-6.8603,-6.9312,-7.0003,-6.9929,-6.9777,-6.9542,-6.9501,-6.9041,-6.8297,-6.8633,-6.8161,-6.7249,-6.8121,-6.8171,-6.7577,-6.7268,-6.7469,-6.756,-6.5267,-6.5136,-6.6002,-6.4972,-6.4041,-6.3348,-6.3496,-6.2591,-6.135,-6.0501,-6.045,-6.0226,-5.7371,-5.5395,-5.2544,-4.5883,-3.3158,-1.8967,-0.6885,0.7394,2.0958,3.0679,3.5799,3.9801,4.366,4.6949,4.9936,5.2345,5.5029,5.6761,5.6761,5.6761,5.6761,5.6761,5.6923,5.718,5.7495,5.7684,5.7275,5.6017,5.3202,5.0848,4.9227,4.4687,4.0928,3.8265,3.6364,3.3532,2.9657,3.0048,3.0065,2.9447,3.0083,3.0732,3.1377,3.1377,3.1377,-4.7175,-4.7147,-4.7302,-4.8407,-4.9805,-5.1271,-5.2707,-5.4487,-5.6349,-5.8176,-5.8956,-6.0035,-6.2245,-6.3157,-6.3979,-6.5179,-6.593,-6.6185,-6.5812,-6.5509,-6.5312,-6.5192,-6.459,-6.4176,-6.4019,-6.3813,-6.3431,-6.2815,-6.2852,-6.3205,-6.4113,-6.4364,-6.5162,-6.6627,-6.7316,-6.8053,-6.9005,-6.9475,-6.9813,-6.9929,-6.9891,-6.9853,-6.9815,-6.9457,-6.9166,-6.8945,-6.8707,-6.842,-6.8171,-6.8408,-6.8408,-6.8222,-6.807,-6.772,-6.7213,-6.6332,-6.6064,-6.6038,-6.5105,-6.4566,-6.4253,-6.4323,-6.3681,-6.2634,-6.0804,-5.8703,-5.6903,-5.6738,-4.9907,-4.0991,-3.2785,-2.2924,-1.0506,0.7768,1.6758,2.3909,3.4528,3.993,4.3588,4.6739,5.0464,5.3685,5.546,5.6311,5.6761,5.6761,5.6761,5.6761,5.6761,5.6858,5.7019,5.7495,5.6988,5.6506,5.5918,5.3019,5.0571,4.9144,4.6283,4.3068,3.9613,3.8055,3.5852,3.2727,3.1616,3.1102,3.1212,3.1102,3.1249,3.1377,3.1377,3.1377,-4.5006,-4.566,-4.6373,-4.824,-4.9805,-5.1353,-5.3141,-5.4983,-5.6797,-5.8614,-5.9261,-6.022,-6.2402,-6.3169,-6.3942,-6.5359,-6.6032,-6.6314,-6.6012,-6.5881,-6.5804,-6.5692,-6.5244,-6.4894,-6.4818,-6.4617,-6.4664,-6.4999,-6.4707,-6.4728,-6.5298,-6.6178,-6.7165,-6.8225,-6.8897,-6.9556,-7.0113,-7.0228,-7.0304,-7.0342,-7.0144,-7.0039,-7.0039,-6.9699,-6.9416,-6.9203,-6.8937,-6.8697,-6.8506,-6.8506,-6.8506,-6.8457,-6.793,-6.7684,-6.7469,-6.651,-6.6404,-6.6559,-6.5368,-6.4838,-6.4634,-6.4253,-6.3205,-6.1896,-6.072,-5.8767,-5.6244,-5.3195,-4.7424,-3.8985,-2.497,-1.4728,-0.3687,1.3938,2.3541,3.0429,3.6933,4.2349,4.6882,5.027,5.2924,5.5029,5.6537,5.6761,5.6761,5.6761,5.6761,5.6761,5.6761,5.6858,5.7115,5.7495,5.6892,5.6311,5.5918,5.3402,5.145,5.0298,4.7731,4.4736,4.1329,3.9107,3.6721,3.4007,3.2638,3.2256,3.2473,3.2256,3.2001,3.2001,3.1635,3.1377,-4.3067,-4.4535,-4.5989,-4.8179,-4.9536,-5.1067,-5.4025,-5.5695,-5.7174,-5.935,-5.9903,-6.0501,-6.2221,-6.3052,-6.3884,-6.5037,-6.5914,-6.6387,-6.6234,-6.6167,-6.6109,-6.5972,-6.5789,-6.5577,-6.541,-6.5564,-6.5974,-6.6704,-6.6351,-6.6139,-6.6253,-6.8196,-6.9414,-6.9529,-7.0478,-7.1031,-7.1054,-7.0838,-7.0771,-7.0875,-7.0432,-7.0243,-7.0243,-6.9965,-6.9622,-6.9251,-6.916,-6.8892,-6.8506,-6.8506,-6.8506,-6.8408,-6.763,-6.763,-6.7878,-6.6451,-6.6523,-6.7154,-6.5689,-6.4937,-6.453,-6.3754,-6.2167,-6.0567,-6.045,-5.9314,-5.6497,-4.8908,-4.5174,-3.8941,-1.9464,-0.719,0.3574,1.693,2.885,3.7604,3.9196,4.4354,4.9766,5.3058,5.4259,5.523,5.6537,5.6761,5.6761,5.6761,5.6761,5.6761,5.6537,5.6923,5.718,5.7495,5.6892,5.6409,5.5918,5.398,5.2402,5.1456,4.8964,4.5962,4.2639,3.9818,3.7074,3.4358,3.3544,3.3379,3.3611,3.3253,3.3,3.2873,3.2001,3.1506,-4.1736,-4.3218,-4.4507,-4.596,-4.7297,-4.9158,-5.2985,-5.4808,-5.6571,-5.9648,-6.0119,-6.0691,-6.2874,-6.3355,-6.3961,-6.5662,-6.632,-6.6654,-6.6693,-6.6504,-6.6353,-6.6314,-6.6148,-6.5986,-6.5947,-6.5986,-6.6355,-6.7149,-6.7734,-6.842,-6.9114,-6.9398,-6.9899,-7.0607,-7.0931,-7.0985,-7.0786,-7.0825,-7.0783,-7.0652,-7.0563,-7.0532,-7.0501,-6.9851,-6.9548,-6.9428,-6.8855,-6.8602,-6.8506,-6.8506,-6.8506,-6.8457,-6.8321,-6.8171,-6.807,-6.7773,-6.7193,-6.6523,-6.6064,-6.5105,-6.3933,-6.357,-6.2855,-6.1676,-5.9989,-5.7892,-5.4624,-4.7676,-3.6643,-2.384,-1.1337,0.2689,1.6377,2.788,3.3989,3.8872,4.5034,4.9796,5.2423,5.1313,5.3759,5.6244,5.6761,5.6761,5.6761,5.6761,5.6761,5.6439,5.5491,5.6378,5.718,5.7495,5.6409,5.572,5.5918,5.3489,5.1456,5.0238,4.8797,4.6104,4.1923,4.0823,3.912,3.6623,3.523,3.4901,3.55,3.4632,3.3757,3.2873,3.2746,3.2256,-4.1141,-4.2447,-4.3409,-4.5269,-4.6606,-4.8537,-5.2725,-5.4717,-5.6593,-5.9677,-6.0424,-6.112,-6.3004,-6.3376,-6.3979,-6.5798,-6.6334,-6.6577,-6.6727,-6.6628,-6.6557,-6.6564,-6.6387,-6.6299,-6.6392,-6.6755,-6.7315,-6.828,-6.9157,-6.9705,-6.9881,-7.0369,-7.0835,-7.1353,-7.1426,-7.1409,-7.128,-7.128,-7.1236,-7.1108,-7.0902,-7.0805,-7.0805,-7.0298,-6.9849,-6.947,-6.9139,-6.8817,-6.8506,-6.8506,-6.8506,-6.8506,-6.8408,-6.8259,-6.8018,-6.7614,-6.6988,-6.6344,-6.5752,-6.477,-6.3681,-6.357,-6.2668,-6.1513,-6.045,-5.6031,-4.921,-3.9259,-2.8009,-1.5247,0.1415,1.233,2.1722,3.2639,3.9153,4.3964,4.8053,5.159,5.3639,5.2579,5.4259,5.5918,5.6664,5.5819,5.5391,5.6664,5.5819,5.5089,5.5089,5.546,5.5857,5.5956,5.5789,5.562,5.529,5.3652,5.2136,5.0906,4.9675,4.7406,4.3723,4.2423,4.0624,3.795,3.686,3.638,3.6401,3.5397,3.4777,3.4507,3.3882,3.3126,-4.0767,-4.1716,-4.2279,-4.4691,-4.599,-4.7855,-5.2592,-5.4697,-5.6534,-5.9696,-6.0741,-6.1578,-6.307,-6.3438,-6.4084,-6.5834,-6.6312,-6.6536,-6.663,-6.6678,-6.6718,-6.6708,-6.6577,-6.6516,-6.672,-6.7381,-6.8221,-6.9204,-7.0263,-7.0731,-7.0347,-7.1125,-7.168,-7.1828,-7.1828,-7.1828,-7.1819,-7.1706,-7.1606,-7.1575,-7.1269,-7.1056,-7.103,-7.071,-7.0266,-6.9702,-6.9588,-6.9223,-6.8763,-6.8763,-6.8763,-6.8717,-6.866,-6.848,-6.8297,-6.7663,-6.714,-6.6591,-6.593,-6.4902,-6.3794,-6.3501,-6.229,-6.072,-5.9177,-5.3308,-4.4307,-2.9814,-1.9458,-0.8278,1.1721,2.0577,2.6677,3.684,4.4305,4.9254,4.9761,5.2159,5.4009,5.3506,5.4083,5.4988,5.5918,5.4552,5.4038,5.5819,5.4552,5.3727,5.4654,5.4857,5.4827,5.4624,5.5391,5.562,5.4786,5.4097,5.302,5.1456,5.0462,4.8524,4.5354,4.3598,4.1539,3.882,3.8462,3.7812,3.6932,3.6401,3.6135,3.5869,3.5129,3.4133,-4.0058,-4.0593,-4.1172,-4.3504,-4.4321,-4.6105,-5.2191,-5.4239,-5.5955,-5.993,-6.0965,-6.1729,-6.3521,-6.3857,-6.4333,-6.5875,-6.6468,-6.6687,-6.6472,-6.6596,-6.6717,-6.6717,-6.6679,-6.6715,-6.6781,-6.7559,-6.8418,-6.9244,-7.0842,-7.1763,-7.1706,-7.1823,-7.1852,-7.1893,-7.1897,-7.1846,-7.1786,-7.1807,-7.1677,-7.149,-7.1494,-7.1363,-7.1178,-7.0728,-7.0455,-7.0298,-6.9887,-6.9625,-6.9587,-6.9587,-6.9587,-6.9587,-6.9506,-6.9385,-6.9265,-6.9134,-6.853,-6.7788,-6.7694,-6.627,-6.432,-6.3511,-6.2266,-5.9801,-5.3254,-4.9437,-4.326,-2.3738,-1.1226,-0.041,1.3313,2.5736,3.6628,4.433,4.9545,5.2266,5.0186,5.1915,5.3279,5.1369,5.213,5.3337,5.3623,5.3518,5.3518,5.3727,5.3518,5.3413,5.3518,5.4798,5.543,5.4624,5.5391,5.562,5.4786,5.4582,5.3279,5.0238,4.9901,4.8247,4.4523,4.3361,4.1704,3.9308,3.9698,3.8885,3.6932,3.8171,3.779,3.5869,3.5746,3.4757,-3.8267,-3.944,-4.0769,-4.1736,-4.3554,-4.6446,-5.1595,-5.4082,-5.6381,-5.9938,-6.1023,-6.1835,-6.3475,-6.3847,-6.4438,-6.6072,-6.6459,-6.657,-6.6635,-6.6716,-6.6756,-6.6702,-6.6727,-6.6953,-6.7459,-6.8314,-6.9403,-7.077,-7.1444,-7.1794,-7.191,-7.1897,-7.1893,-7.1903,-7.1903,-7.19,-7.1854,-7.1831,-7.177,-7.1677,-7.1648,-7.154,-7.1294,-7.1159,-7.0825,-7.0394,-7.02,-6.9959,-6.9702,-6.9702,-6.9702,-6.9702,-6.9625,-6.9506,-6.9347,-6.8853,-6.8011,-6.7193,-6.6753,-6.5439,-6.3794,-6.2624,-5.845,-5.32,-4.9819,-3.9968,-2.7452,-1.454,-0.1255,1.1882,2.3117,3.4317,4.2903,4.3588,4.8205,5.1537,4.8337,5.0491,5.2644,5.1044,5.1537,5.2459,5.3308,5.2244,5.1811,5.3203,5.2779,5.2644,5.3308,5.442,5.4827,5.4038,5.5089,5.562,5.4786,5.3623,5.2323,5.1017,4.9675,4.8184,4.6654,4.4817,4.3068,4.1485,4.0928,3.9686,3.7736,3.8291,3.8052,3.6746,3.6746,3.5746,-3.718,-3.8453,-4.0134,-4.0614,-4.3255,-4.687,-5.089,-5.3908,-5.6688,-5.9739,-6.088,-6.1814,-6.3471,-6.3872,-6.4502,-6.6166,-6.6502,-6.6566,-6.6677,-6.6747,-6.6766,-6.6735,-6.6936,-6.728,-6.7906,-6.8929,-7.0182,-7.1669,-7.1682,-7.169,-7.1786,-7.1776,-7.1788,-7.1833,-7.1914,-7.1914,-7.1833,-7.1864,-7.1825,-7.1792,-7.1745,-7.162,-7.1475,-7.141,-7.1106,-7.0633,-7.0584,-7.0369,-7.0033,-7.003,-7.003,-7.0033,-6.9925,-6.9852,-6.9702,-6.8908,-6.8118,-6.7421,-6.6395,-6.4953,-6.3255,-6.1818,-5.4237,-4.5257,-4.2202,-3.0352,-1.5934,-0.6745,0.7907,2.2832,3.1375,3.9646,4.5374,4.376,4.7302,5.0518,4.8274,5.0099,5.1811,5.0934,5.1044,5.1593,5.2644,5.1593,5.1183,5.3097,5.2751,5.2644,5.3727,5.4347,5.4552,5.4377,5.5089,5.522,5.4406,5.3308,5.2323,5.1674,4.9788,4.8442,4.8094,4.5872,4.4036,4.2831,4.2117,4.0616,3.8171,3.8766,3.8432,3.7275,3.7374,3.6502,-3.7109,-3.7878,-3.9134,-4.0361,-4.32,-4.6731,-5.0451,-5.3661,-5.6573,-5.9369,-6.0539,-6.1693,-6.3553,-6.4005,-6.457,-6.6043,-6.6589,-6.6712,-6.6427,-6.664,-6.6795,-6.6795,-6.733,-6.7735,-6.7905,-6.9289,-7.0549,-7.1458,-7.1481,-7.1481,-7.1497,-7.1497,-7.1573,-7.17,-7.1916,-7.1916,-7.1711,-7.1916,-7.1945,-7.1815,-7.1794,-7.1741,-7.1585,-7.1376,-7.1246,-7.1192,-7.0966,-7.0843,-7.0787,-7.0871,-7.0843,-7.0787,-7.0699,-7.0708,-7.0609,-6.9776,-6.9431,-6.9143,-6.7247,-6.5314,-6.3274,-6.106,-5.0284,-3.6682,-2.8835,-2.1595,-1.3496,-0.1188,1.5638,3.1145,3.549,3.9821,4.3692,4.6739,4.8603,5.0075,5.1319,5.1293,5.0906,5.0906,5.046,5.032,5.1484,5.1674,5.2108,5.3203,5.3413,5.3831,5.4988,5.4756,5.5059,5.6115,5.529,5.4406,5.3605,5.42,5.3831,5.1811,5.0573,4.9335,4.821,4.5872,4.4036,4.2831,4.3148,4.1533,3.779,3.9686,3.9357,3.6911,3.7275,3.6889,-3.7666,-3.9393,-4.1413,-4.1235,-4.4809,-4.9017,-5.119,-5.4253,-5.7258,-5.9505,-6.0349,-6.133,-6.3437,-6.3925,-6.4593,-6.6287,-6.6601,-6.663,-6.6558,-6.6408,-6.636,-6.6508,-6.7709,-6.8541,-6.8642,-7.0114,-7.1209,-7.1481,-7.1358,-7.1339,-7.1481,-7.1358,-7.1377,-7.1559,-7.164,-7.1654,-7.1559,-7.1729,-7.1776,-7.1718,-7.1866,-7.185,-7.168,-7.1589,-7.1525,-7.1395,-7.132,-7.126,-7.1218,-7.1062,-7.1004,-7.0902,-7.0699,-7.0451,-7.0106,-6.9626,-6.869,-6.7369,-6.555,-6.3763,-6.1122,-5.3827,-4.2108,-2.9148,-1.9208,-1.0246,0.0,1.6711,2.6281,3.2606,3.6877,4.1868,4.5349,4.3883,4.6739,4.9508,4.8274,4.8815,4.967,4.967,5.0544,5.1265,5.1702,5.2323,5.2963,5.3308,5.4038,5.4654,5.5089,5.5491,5.569,5.5521,5.4988,5.4582,5.4304,5.3308,5.2779,5.2943,5.0238,4.8718,4.8771,4.6128,4.4211,4.3466,4.3225,4.2375,4.0731,4.1329,4.05,3.841,3.6967,3.6258,-3.8436,-4.0032,-4.2172,-4.1967,-4.5786,-4.9917,-5.1254,-5.4233,-5.7188,-5.9131,-5.9855,-6.0827,-6.3163,-6.3666,-6.4402,-6.6316,-6.6447,-6.634,-6.6338,-6.6011,-6.5916,-6.6319,-6.759,-6.8525,-6.8799,-7.0049,-7.0836,-7.0836,-7.0721,-7.0748,-7.1031,-7.0774,-7.0838,-7.126,-7.1413,-7.1503,-7.1452,-7.1614,-7.1721,-7.1747,-7.1903,-7.1919,-7.1811,-7.1731,-7.1654,-7.1573,-7.1497,-7.143,0.0,-7.1239,-7.1085,-7.0979,-7.0914,-7.047,-6.9814,-6.9124,-6.8044,-6.6453,-6.4037,-6.0583,-5.5689,-4.6566,-3.0451,-1.2775,-0.3125,0.429,1.2325,2.6241,3.1548,3.3861,3.7258,4.1534,4.4719,4.3807,4.61,4.83,4.7416,4.8289,4.924,4.9783,5.0851,5.2,5.2857,5.3174,5.3518,5.3935,5.4245,5.445,5.445,5.4887,5.5089,5.4509,5.4304,5.42,5.42,5.3126,5.2701,5.3395,5.0573,4.8866,4.906,4.6254,4.4367,4.3815,4.3263,4.2625,4.1761,4.1076,4.0268,3.9098,3.733,3.6502,0.0,-4.0207,-4.1799,-4.2685,-4.6107,-4.955,-5.0877,-5.3694,0.0,-5.8285,-5.9102,-6.0253,-6.2708,-6.3284,-6.4039,-6.6086,-6.6066,-6.5819,-6.58,-6.5393,-6.5329,-6.603,-6.6973,-6.777,-6.8376,-6.9209,-6.9702,-6.9702,-6.9702,-6.9851,-7.0271,-6.9923,-7.003,-7.0815,-7.1218,-7.1358,-7.1278,-7.155,-7.1731,-7.1776,-7.191,-7.1963,-7.1997,-7.1819,-7.1728,-7.17,-7.1544,-7.1374,-7.1338,-7.1397,-7.1197,-7.0965,-7.1214,-7.0706,-6.9702,-6.8372,-6.7345,-6.6066,-6.2753,-5.6296,-4.8013,-3.8203,-1.5587,0.939,1.7631,2.0769,2.2769,2.8962,3.2592,3.5084,3.6983,3.9585,4.2706,4.591,4.644,4.6824,4.8637,4.9125,4.9556,5.0851,5.1484,5.2323,5.445,5.4038,5.3727,5.4857,5.4038,5.3413,5.3413,5.3442,5.3471,5.3471,5.35,5.35,5.35,5.35,5.35,5.35,5.1265,4.963,4.9116,4.6228,4.4342,4.374,4.335,4.26,4.1623,3.9779,3.9075,3.9334,3.7954,3.7374,-4.0711,0.0,-4.3163,-4.376,-4.6632,-4.9614,0.0,-5.3592,-5.5936,0.0,-5.9008,-6.0342,-6.2223,-6.3001,-6.3829,-6.5418,-6.5256,-6.4832,-6.4715,-6.4285,-6.4065,-6.4216,-6.5933,-6.7201,-6.7567,-6.8866,-6.9702,-6.9702,-6.9702,-6.974,-6.9851,-6.9852,-6.9925,-7.0103,-7.0337,-7.0643,-7.1067,-7.1302,-7.1417,-7.1498,-7.1681,-7.1797,-7.1833,-7.1866,-7.1831,-7.1862,-7.1819,-7.1778,-7.1743,-7.1544,-7.1448,-7.1358,-7.1201,-7.0469,-6.9399,-6.8291,-6.6391,-6.3972,-6.1492,-5.5039,-4.3743,-1.8754,0.2139,1.9178,2.8019,2.9412,2.8914,3.355,3.4774,3.551,3.8997,4.152,4.3707,4.5547,4.6798,4.7938,4.8663,4.901,4.924,4.9897,5.0962,5.1892,5.243,5.2963,5.3518,5.3727,5.3623,5.3413,5.3413,5.3442,5.3471,5.3471,5.35,5.35,5.35,5.35,5.35,5.35,5.1265,4.944,4.8491,4.6021,4.4166,4.3187,4.3508,4.3543,4.3295,4.1444,4.0616,4.0639,3.8432,3.7374,-3.9676,-4.1459,-4.3258,-4.4656,-4.6664,-4.8724,-5.0057,-5.2369,-5.4745,0.0,0.0,-5.9881,-6.1053,-6.1649,-6.2366,-6.3676,-6.2691,-6.1865,-6.2122,-6.2466,-6.2744,-6.3062,-6.4753,-6.5969,-6.6155,-6.757,-6.8576,-6.875,-6.8622,-6.8803,-6.9388,-6.9261,-6.9385,-6.9852,-6.9853,-7.0175,-7.086,-7.1042,-7.1253,-7.1472,-7.1615,-7.175,-7.178,-7.1873,-7.1906,-7.1885,-7.1909,-7.1906,-7.1887,-7.1692,-7.1573,-7.1481,-7.1426,-7.0768,-6.9614,-6.8119,-6.6062,-6.3171,-5.7043,-4.3336,-2.4657,-0.1223,1.542,2.7214,3.3321,3.5065,3.5336,3.6877,3.7678,3.8603,4.1415,4.3458,4.5086,4.5935,4.7298,4.8431,4.8262,4.8753,4.9556,5.0405,5.1155,5.1892,5.243,5.2537,5.2644,5.2644,5.2136,5.1811,5.1811,5.238,5.273,5.273,5.3184,5.35,5.35,5.35,5.35,5.35,5.145,4.9885,4.9028,4.6441,4.4382,4.3209,4.3653,4.401,4.4119,4.2012,4.11,4.0985,3.8551,3.7374,-3.7346,-3.9088,-4.1523,-4.42,-4.5842,-4.695,-4.7999,-5.0455,0.0,0.0,0.0,-5.876,-5.953,-5.9779,-6.0274,-6.1459,-5.9844,-5.8612,-5.9039,-6.0068,-6.097,-6.1696,-6.3237,-6.4347,-6.4639,-6.6114,-6.7101,-6.7415,-6.7249,-6.7557,-6.8697,-6.8394,-6.8679,-6.9548,-6.9385,-6.9625,-7.0455,-7.0721,-7.1085,-7.151,-7.1622,-7.1689,-7.1798,-7.1864,-7.1874,-7.191,-7.1884,-7.1906,-7.1858,-7.1817,-7.1693,-7.1536,-7.1706,-7.1184,-7.0042,-6.7748,-6.5186,-6.1051,-4.8338,-2.6486,-0.1938,1.2941,2.4492,3.2983,3.5933,3.8624,4.0473,3.9451,4.0214,4.1715,4.3357,4.4841,4.608,4.6534,4.7677,4.8521,4.7977,4.8815,4.9983,5.1155,5.1484,5.1702,5.2673,5.2136,5.1484,5.1484,5.0656,5.001,5.001,5.1017,5.1787,5.1787,5.2865,5.35,5.35,5.35,5.35,5.35,5.1811,5.0388,4.9525,4.6893,4.4837,4.3713,4.3874,4.401,4.4313,4.2125,4.11,4.0985,3.8551,3.7374,-3.5156,-3.5,-3.5625,-3.9804,-4.2118,-4.3845,-4.5639,-4.7958,-5.0584,0.0,-5.506,-5.6042,-5.8284,-5.8234,-5.8175,-5.9284,-5.9032,-5.8323,-5.706,-5.7128,-5.7611,-5.8462,-6.0668,-6.2505,-6.3518,-6.5489,-6.6722,-6.6722,-6.6988,-6.7101,-6.6972,-6.754,-6.7959,-6.8185,-6.8259,-6.8567,-6.9355,-7.0254,-7.081,-7.1004,-7.1358,-7.1583,-7.1702,-7.1767,-7.1861,-7.1911,-7.1909,-7.1854,-7.1731,-7.1731,-7.1651,-7.1598,-7.163,-7.1144,-7.0085,-6.7008,-6.1459,-5.2345,-2.9942,-1.0345,0.6766,1.8261,2.737,3.4675,3.8381,4.004,4.0732,4.0817,4.0473,4.0625,4.3107,4.4103,4.4841,4.6295,4.7677,4.8779,4.9213,4.9442,4.9783,5.0208,5.0208,5.032,5.0544,5.032,5.0208,5.0208,5.0123,5.001,5.001,5.1017,5.1787,5.1787,5.2865,5.35,5.35,5.35,5.35,5.35,5.1811,4.9872,4.7646,4.5874,4.4883,4.4886,4.4177,4.401,4.4313,4.2125,4.11,4.0985,3.8551,3.7374,-3.2695,-3.254,-3.2839,-3.4538,-3.5718,-3.6629,-3.7664,-3.9329,-4.1841,-4.6026,-4.8843,-5.1141,-5.3269,-5.4711,-5.5423,-5.4886,-5.5864,-5.6183,-5.5037,-5.539,-5.6261,-5.7499,-5.8896,-6.0154,-6.1284,-6.3344,-6.4556,-6.4485,-6.5482,-6.5966,-6.5797,-6.6378,-6.6671,-6.6468,-6.7085,-6.7605,-6.8,-6.9118,-6.998,-7.0591,-7.0884,-7.1299,-7.1716,-7.1711,-7.1758,-7.1835,-7.1733,-7.1706,-7.1704,-7.1651,-7.163,-7.1598,-7.1598,-7.0544,-6.807,-6.0135,-4.8691,-3.4421,-1.5926,0.0547,1.5238,2.6482,3.309,3.7269,4.0342,4.1843,4.2374,4.2351,4.2097,4.2247,4.3606,4.4596,4.5329,4.5329,4.718,4.8753,4.8353,4.9072,4.9897,5.001,5.001,5.001,5.001,5.001,5.001,5.001,5.001,5.001,5.001,5.1017,5.1787,5.1787,5.2193,5.2487,5.2487,5.2487,5.2521,5.2439,5.1128,4.9209,4.6808,4.5448,4.4587,4.4505,4.4094,4.4119,4.4531,4.2238,4.11,4.0985,3.8551,3.7374,-3.0548,-3.0665,-3.0781,-3.0121,-3.0923,-3.1593,-3.0934,-3.2166,-3.4601,-3.8265,-4.1976,-4.524,-4.7724,-5.0781,-5.241,-5.0828,-5.2599,-5.3872,-5.2807,-5.3561,-5.4759,-5.6206,-5.7066,-5.792,-5.8975,-6.0984,-6.2183,-6.2081,-6.3297,-6.4183,-6.4285,-6.4827,-6.509,-6.5148,-6.5909,-6.654,-6.6974,-6.7737,-6.8795,-7.0018,-7.0448,-7.0938,-7.1442,-7.1537,-7.1642,-7.1741,-7.156,-7.154,-7.1638,-7.1606,-7.1547,-7.1529,-7.1529,-6.917,-6.4082,-4.9717,-3.3817,-1.7461,-0.3331,1.0776,2.4145,3.3391,3.7534,3.939,4.1752,4.2981,4.363,4.3357,4.3755,4.4251,4.4227,4.4964,4.5597,4.5061,4.7036,4.8868,4.7977,4.893,5.001,5.001,5.001,5.001,5.001,5.0123,5.0123,5.001,5.0235,5.0348,5.0235,5.1238,5.1896,5.154,5.1593,5.1674,5.1674,5.1562,5.1456,5.1235,5.0256,4.8834,4.6791,4.5502,4.4587,4.4313,4.4094,4.4094,4.4261,4.2125,4.0985,4.0639,3.8432,3.7374,-2.9275,-2.8783,-2.8545,-2.7829,-3.0644,-3.2896,-2.9947,-3.1543,-3.3857,-3.5235,-3.6395,-3.8635,-4.3317,-4.7178,-4.9417,-4.8766,-5.0679,-5.182,-5.0449,-5.1169,-5.2154,-5.2812,-5.4643,-5.6137,-5.7119,-5.8997,-6.0205,-6.0205,-6.0638,-6.116,-6.1998,-6.2631,-6.3585,-6.4697,-6.4803,-6.5361,-6.6496,-6.6355,-6.7266,-6.9196,-7.0047,-7.0497,-7.0695,-7.1182,-7.1503,-7.1615,-7.1542,-7.1517,-7.1519,-7.1505,-7.1376,-7.1247,-7.1247,-6.661,-5.7303,-3.5836,-2.0147,-0.7355,0.8848,2.2795,3.3842,3.6028,3.779,3.9692,4.2351,4.3232,4.3357,4.3606,4.4596,4.5354,4.4473,4.4227,4.4817,4.6509,4.8003,4.924,4.967,4.9897,5.001,5.001,5.001,5.001,5.001,5.046,5.0683,5.0123,5.0906,5.1458,5.0906,5.1868,5.2056,5.1044,5.1347,5.1674,5.1674,5.1197,5.0713,5.0009,4.9418,4.8724,4.7948,4.6032,4.5208,4.5395,4.4613,4.3848,4.2997,4.1761,4.05,3.9334,3.7954,3.7374,-2.7984,-2.6591,-2.5448,-2.6382,-2.7418,-2.7486,-2.4511,-2.4301,-2.5772,-2.9157,-3.0054,-3.2834,-4.1214,-4.3646,-4.5209,-4.7763,-4.861,-4.9075,-4.919,-4.9582,-5.0353,-5.1728,-5.2786,-5.3952,-5.5371,-5.7349,-5.8351,-5.8142,-5.9437,-6.0154,-5.9977,-6.0555,-6.1294,-6.2154,-6.2692,-6.3401,-6.4113,-6.5454,-6.6401,-6.6902,-6.8938,-7.0218,-7.0734,-7.1158,-7.1299,-7.1202,-7.1057,-7.105,-7.1112,-7.1096,-7.1125,-7.0706,-6.575,-5.2401,-3.4776,-2.4729,-0.8027,1.0882,1.9611,2.847,3.6509,3.9476,4.1264,4.2247,4.3004,4.3482,4.3606,4.2753,4.338,4.4251,4.4473,4.5061,4.5789,4.615,4.786,4.9328,4.8842,4.9415,5.001,5.001,5.001,5.0123,5.046,5.0096,5.0096,5.1017,5.0208,4.9756,5.032,5.0405,5.0154,4.9702,5.0238,5.0906,5.1674,5.0101,4.9356,4.9876,4.8236,4.6892,4.6269,4.502,4.4505,4.4696,4.4396,4.3848,4.2886,4.1647,4.0384,3.9216,3.7954,3.7374,-2.6261,-2.4347,-2.293,-2.4224,-2.4239,-2.3193,-2.0475,-2.0253,-2.1134,-2.2962,-2.5396,-2.9564,-3.765,-4.0073,-4.1815,-4.5023,-4.6002,-4.6654,-4.7503,-4.8267,-4.9357,-5.0798,-5.16,-5.2526,-5.4009,-5.5807,-5.6769,-5.6445,-5.7682,-5.8414,-5.836,-5.878,-5.9577,-6.0703,-6.1102,-6.1761,-6.2692,-6.3974,-6.4918,-6.5607,-6.721,-6.8789,-7.0195,-7.0602,-7.0734,-7.0667,-7.0142,-7.0304,-7.0859,-7.0421,-6.9588,-6.7151,-5.2971,-3.6961,-2.0624,-0.9711,0.6224,2.3167,2.8626,3.3861,3.8781,4.259,4.3458,4.3153,4.363,4.3855,4.3731,4.2879,4.3255,4.4127,4.4964,4.5572,4.608,4.6415,4.786,4.9098,4.8726,4.9415,5.001,5.001,5.001,5.0123,5.032,4.9756,4.9643,5.0544,4.9529,4.8957,4.9616,4.9816,4.9702,4.9362,4.9362,4.9594,5.0298,4.857,4.7812,4.8511,4.657,4.5332,4.5101,4.4396,4.4094,4.4313,4.3958,4.3381,4.2326,4.1076,3.9803,3.8648,3.7714,3.7374,-2.4071,-2.2544,-2.102,-2.1257,-2.1395,-2.085,-1.9136,-2.1043,-2.187,-1.7358,-2.2767,-2.9129,-3.2062,-3.6467,-3.9686,-3.9895,-4.2685,-4.489,-4.489,-4.7067,-4.9092,-4.9834,-5.1169,-5.2258,-5.3077,-5.4401,-5.5179,-5.5179,-5.5179,-5.5819,-5.7276,-5.7371,-5.8451,-6.0903,-6.0022,-6.0604,-6.2658,-6.1739,-6.2724,-6.5633,-6.4848,-6.5996,-6.8878,-6.9428,-6.9777,-6.9883,-6.8769,-6.9208,-7.0654,-6.9436,-6.6369,-5.9708,-3.2367,-2.167,-1.8219,1.0273,2.3166,2.755,3.5647,3.9799,4.1843,4.4865,4.3836,4.1806,4.3979,4.4103,4.3505,4.4473,4.4964,4.5354,4.6055,4.5232,4.489,4.7534,4.8146,4.8495,4.967,5.001,5.001,5.001,5.001,4.9783,4.9186,4.9643,4.9529,4.8405,4.916,4.9702,4.9019,5.0573,5.1237,5.0014,4.8762,4.7858,4.7398,4.6708,4.6133,4.5669,4.4513,4.4313,4.5101,4.4613,4.4313,4.4313,4.3356,4.2326,4.11,3.9803,3.8648,3.7374,3.7374,3.7374,-2.5757,-2.2835,-2.0558,-2.1853,-2.0618,-1.9101,-1.868,-1.9193,-1.9661,-1.9025,-2.37,-2.8782,-3.1701,-3.4057,-3.6453,-3.9173,-4.0334,-4.125,-4.2624,-4.4188,-4.574,-4.7252,-4.8724,-5.0325,-5.22,-5.3124,-5.4036,-5.5149,-5.5381,-5.575,-5.6409,-5.6603,-5.7433,-5.8998,-5.8728,-5.9056,-6.001,-6.0289,-6.0912,-6.18,-6.2741,-6.4804,-6.7704,-6.7469,-6.7296,-6.7119,-6.6951,-6.7283,-6.7604,-6.4632,-5.1887,-3.3486,-2.4903,-0.5382,1.8556,2.3533,3.3879,4.5183,4.3167,4.3445,4.4841,4.5231,4.4939,4.435,4.4103,4.4473,4.4719,4.338,4.3879,4.4743,4.4275,4.4767,4.5864,4.7626,4.8558,4.9019,4.87,4.9133,4.9388,4.8236,4.8029,4.812,4.8558,4.8094,4.8094,4.9247,4.8236,4.7652,4.8326,4.8877,4.9335,4.9788,4.8762,4.8205,4.853,4.7271,4.6245,4.6024,4.4623,4.401,4.4203,4.4505,4.4613,4.4613,4.3466,4.2326,4.11,4.0755,3.9919,3.8648,3.8648,3.8648,-2.336,-2.0206,-1.7803,-1.8836,-1.787,-1.6748,-1.6943,-1.7444,-1.7992,-1.9161,-2.3147,-2.7026,-2.9059,-3.1596,-3.4053,-3.631,-3.7657,-3.8771,-4.0035,-4.1864,-4.3559,-4.5076,-4.6623,-4.831,-5.0256,-5.1195,-5.2272,-5.3326,-5.3831,-5.4171,-5.4582,-5.4756,-5.5629,-5.7465,-5.7307,-5.7715,-5.894,-5.8742,-5.9166,-6.0091,-6.0439,-6.2043,-6.4678,-6.5478,-6.5633,-6.5151,-6.4311,-5.9079,-5.0895,-4.7166,-3.2624,-1.1787,-0.2655,1.4279,3.3854,3.6034,4.3774,5.2368,4.7432,4.6332,4.7081,4.7522,4.6628,4.5329,4.5305,4.4964,4.462,4.4003,4.4003,4.4151,4.4299,4.4792,4.5646,4.7626,4.8442,4.8815,4.8789,4.893,4.87,4.756,4.7442,4.7677,4.7743,4.7298,4.7298,4.8326,4.7205,4.6755,4.7977,4.7652,4.7886,4.8992,4.8094,4.7341,4.731,4.6351,4.5494,4.5051,4.4274,4.3899,4.401,4.4531,4.4722,4.4722,4.3466,4.255,4.1761,4.1329,4.0384,3.9216,3.9216,3.898,-1.9066,-1.6431,-1.452,-1.4399,-1.4431,-1.4576,-1.497,-1.6037,-1.7288,-1.8272,-2.1546,-2.453,-2.5502,-2.9213,-3.2256,-3.2384,-3.4923,-3.7002,-3.7484,-3.9803,-4.1952,-4.3153,-4.4655,-4.6243,-4.7649,-4.8927,-4.9967,-5.0575,-5.1291,-5.2,-5.2509,-5.2509,-5.3714,-5.6097,-5.5728,-5.6414,-5.8455,-5.7149,-5.7496,-5.95,-5.7958,-5.8324,-6.0407,-6.3269,-6.4142,-6.3136,-5.8765,-4.547,-2.6422,-2.1607,-0.9804,0.7174,2.6948,3.4328,3.537,4.7216,5.1974,5.2124,4.9147,4.8258,4.8832,5.0435,4.8247,4.5354,4.701,4.5693,4.4051,4.5693,4.4988,4.4051,4.5403,4.5184,4.5281,4.7508,4.7886,4.8029,4.9502,4.8957,4.8055,4.7586,4.7703,4.7703,4.673,4.6849,4.6874,4.6421,4.6421,4.6874,4.7977,4.7087,4.6874,4.7977,4.6968,4.5849,4.4719,4.4618,4.4256,4.3482,4.3764,4.401,4.4313,4.4505,4.4613,4.4722,4.3466,4.2774,4.2886,4.1761,4.0616,3.9334,3.9334,3.8766,-2.2769,-2.0524,-1.8884,-1.7882,-1.7313,-1.7089,-1.7534,-1.8229,-1.8971,-1.9228,-2.1296,-2.3882,-2.6306,-2.8969,-3.1102,-3.1873,-3.3505,-3.4881,-3.5725,-3.7484,-3.9242,-4.1004,-4.2351,-4.3994,-4.6217,-4.7486,-4.8736,-4.9939,-5.1229,-5.2187,-5.2509,-5.2722,-5.325,-5.4083,-5.4347,-5.4857,-5.55,-5.5059,-5.5029,-5.5448,-5.5668,-5.5963,-5.6453,-5.9415,-5.952,-5.6214,-3.869,-2.656,-1.8133,-0.4773,1.2425,3.0557,3.2211,4.0565,5.1831,5.2575,5.3123,5.3181,5.0102,4.996,5.0629,4.8647,4.7977,4.7743,4.7416,4.6824,4.6345,4.6225,4.6679,4.6798,4.5671,4.6465,4.76,4.7717,4.7482,4.7365,4.7951,4.7951,4.739,4.6035,4.5914,4.5914,4.6035,4.6035,4.618,4.6301,4.7087,4.7743,4.8094,4.786,4.7743,4.8094,4.6968,4.5849,4.4719,4.4618,4.4396,4.384,4.3899,4.4094,4.4613,4.3797,4.3687,4.4722,4.2575,4.1987,4.2886,4.2662,4.1874,4.0755,4.0755,4.0036,-2.2945,-2.0637,-1.9084,-1.833,-1.7928,-1.7841,-1.8304,-1.8971,-1.9529,-1.9518,-2.1183,-2.3106,-2.4723,-2.6855,-2.8706,-3.0419,-3.1579,-3.298,-3.4528,-3.5848,-3.6902,-3.7462,-3.9476,-4.1311,-4.2348,-4.4459,-4.6351,-4.7695,-4.8959,-5.0099,-5.0823,-5.0546,-5.0851,-5.1863,-5.2023,-5.2636,-5.3921,-5.2982,-5.3116,-5.4142,-5.2656,-5.1846,-5.1761,-5.528,-4.9456,-3.5941,-2.4925,-0.8307,1.149,1.8639,3.2666,4.9325,4.652,5.0025,5.6519,5.5417,5.4649,5.3892,5.1181,5.1456,5.2566,4.9816,4.9133,4.9362,4.87,4.786,4.7036,4.6585,4.6585,4.6465,4.555,4.613,4.6942,4.6824,4.6942,4.7272,4.7717,4.739,4.673,4.5696,4.5696,4.5817,4.5817,4.5939,4.6059,4.6301,4.6874,4.7205,4.7205,4.7205,4.7205,4.7205,4.6408,4.5573,4.4694,4.4392,4.4118,4.3951,4.3899,4.4094,4.4722,4.3577,4.3466,4.4722,4.3492,4.3134,4.3797,4.3219,4.2326,4.11,4.05,3.9569,-2.2813,-2.0005,-1.8453,-1.8139,-1.816,-1.8303,-1.8732,-1.9251,-1.968,-1.968,-2.1057,-2.2448,-2.2722,-2.4588,-2.6573,-2.8427,-2.9605,-3.1047,-3.2746,-3.3862,-3.4218,-3.3803,-3.6252,-3.7856,-3.7967,-4.0685,-4.3093,-4.4368,-4.5629,-4.6933,-4.8236,-4.7677,-4.8094,-4.9761,-4.9567,-5.027,-5.1988,-5.0932,-5.107,-5.2472,-4.9324,-4.703,-4.5781,-4.6813,-3.7242,-1.9512,-1.2782,0.8203,3.7994,4.1099,5.0429,6.2454,6.0069,5.7961,5.626,5.6326,5.5409,5.3773,5.2136,5.2487,5.3337,5.1293,5.0628,5.0489,4.9928,4.8647,4.7247,4.6942,4.625,4.5671,4.5574,4.5696,4.5793,4.5817,4.6516,4.7205,4.7652,4.6968,4.618,4.5939,4.6059,4.618,4.5939,4.6059,4.6301,4.6301,4.6301,4.6301,4.6301,4.6301,4.6301,4.6301,4.5824,4.5246,4.4669,4.4001,4.3564,4.3568,4.3432,4.3517,4.4042,4.3356,4.3356,4.4396,4.4396,4.4505,4.4722,4.3466,4.2326,4.11,3.9803,3.8529,-2.6611,-2.3054,-2.0396,-1.9796,-1.978,-2.003,-2.0316,-2.0527,-2.0527,-2.0527,-2.1484,-2.231,-2.231,-2.4317,-2.6054,-2.6321,-2.79,-2.91,-2.9361,-3.0012,-3.0753,-3.1468,-3.2213,-3.3473,-3.5396,-3.7004,-3.8608,-4.0318,-4.2075,-4.3673,-4.5085,-4.5668,-4.6415,-4.7534,-4.83,-4.8221,-4.7419,-4.8771,-4.8232,-4.5704,-4.5817,-4.2922,-3.6891,-2.5848,-2.5829,-3.2675,0.251,2.0226,2.626,5.159,6.3308,6.4839,5.9068,5.6869,5.6743,5.511,5.3355,5.1811,5.2594,5.2164,5.121,5.0041,5.0517,5.121,4.9335,4.8532,4.8184,4.7298,4.718,4.7154,4.6396,4.6968,4.7534,4.6516,4.6301,4.6421,4.6541,4.6421,4.6301,4.618,4.6301,4.6301,4.618,4.6301,4.6301,4.6301,4.6301,4.6301,4.6301,4.6301,4.6301,4.6301,4.5824,4.5246,4.4669,4.34,4.2512,4.2287,4.1444,4.1215,4.1558,4.2438,4.2997,4.3108,4.3108,4.3687,4.4722,4.3466,4.2326,4.11,3.9803,3.8529,-2.6077,-2.3015,-2.1344,-2.0472,-2.0221,-2.0352,-2.0605,-2.0665,-2.0665,-2.0665,-2.1081,-2.1484,-2.1622,-2.2559,-2.3774,-2.5248,-2.6039,-2.7105,-2.8312,-2.8838,-2.9083,-2.8935,-3.0441,-3.1577,-3.2049,-3.4147,-3.6373,-3.8407,-3.9766,-4.141,-4.3688,-4.4055,-4.4326,-4.4278,-4.4915,-4.5109,-4.4793,-4.5327,-4.3887,-4.0462,-4.071,-3.3374,-1.9172,-1.0828,-0.5751,-0.2124,2.3358,4.0,4.9961,6.0941,6.5633,6.543,6.0798,5.8716,5.8173,5.734,5.5439,5.3413,5.3308,5.2808,5.2164,5.1072,5.1649,5.2301,5.0014,4.9901,4.9987,4.7416,4.7416,4.786,4.6636,4.6636,4.6968,4.6421,4.6446,4.6566,4.6301,4.6301,4.6301,4.6301,4.6301,4.6301,4.6301,4.6446,4.6566,4.6301,4.6421,4.6566,4.6301,4.6301,4.6059,4.5281,4.4399,4.3692,4.2806,4.159,4.1017,4.1239,4.087,4.11,4.21,4.1987,4.2213,4.2886,4.2886,4.3108,4.3687,4.1736,4.0592,4.0036,3.8766,3.7954,-2.5885,-2.3717,-2.295,-2.1384,-2.1187,-2.1096,-2.0894,-2.0804,-2.0804,-2.0665,-2.0665,-2.0804,-2.1081,-2.1069,-2.1885,-2.3774,-2.4167,-2.4844,-2.6439,-2.7121,-2.727,-2.6352,-2.8279,-2.9422,-2.9031,-3.1174,-3.3463,-3.5557,-3.6568,-3.8166,-4.0701,-4.1474,-4.152,-4.1219,-4.1797,-4.2305,-4.2464,-4.1797,-3.9953,-3.7197,-3.6122,-2.5043,-0.5292,0.2265,1.4591,3.051,4.0616,5.2461,6.4715,6.5201,6.5514,6.535,6.1975,6.0194,5.929,5.8966,5.7181,5.4786,5.4038,5.3518,5.3155,5.2301,5.2759,5.3155,5.1155,5.1237,5.1456,4.7977,4.7743,4.83,4.6874,4.6541,4.6541,4.6541,4.678,4.678,4.6566,4.6301,4.6301,4.6301,4.6301,4.6301,4.6301,4.6566,4.6686,4.6301,4.6276,4.6276,4.6421,4.5793,4.5159,4.4497,4.3313,4.2209,4.1341,4.0171,3.9615,4.0059,3.9943,4.0268,4.1395,4.0961,4.1076,4.1963,4.1963,4.21,4.2438,4.0268,3.9216,3.9216,3.7954,3.7374,-2.8217,-2.6991,-2.6152,-2.3493,-2.3315,-2.3215,-2.1609,-2.1207,-2.1081,-2.0804,-2.0665,-2.0665,-2.0665,-2.0943,-2.1207,-2.1346,-2.2035,-2.2435,-2.2572,-2.3543,-2.4224,-2.4224,-2.4902,-2.5831,-2.7137,-2.7419,-2.8377,-3.058,-3.1711,-3.2961,-3.452,-3.6649,-3.8005,-3.8624,-4.0126,-4.0581,-3.9953,-3.8528,-3.7575,-3.6958,-3.2918,-2.0913,-0.1685,1.4453,3.167,4.891,4.9238,4.9031,4.9318,6.1124,6.5694,6.4999,6.1327,5.9903,5.9697,5.818,5.6183,5.4377,5.445,5.3727,5.2623,5.2623,5.3155,5.3681,5.2352,5.2216,5.1972,4.9535,4.8877,4.8647,4.7416,4.7205,4.7205,4.7205,4.7205,4.7087,4.678,4.6541,4.6301,4.6301,4.6301,4.6301,4.6301,4.6566,4.6686,4.6301,4.55,4.5232,4.6541,4.4546,4.338,4.4572,4.2925,4.1606,4.1219,3.9716,3.8908,3.8908,3.8096,3.7616,3.7736,3.8766,3.9334,3.9334,3.9334,4.0036,4.1215,3.9803,3.9216,3.9216,3.7954,3.7374,-2.8426,-2.7887,-2.7201,-2.3998,-2.37,-2.3624,-2.1346,-2.1081,-2.0792,-1.9529,-1.9959,-2.0098,-1.811,-1.9529,-2.0943,-2.1207,-2.0641,-2.0629,-2.176,-2.0882,-2.0443,-2.1446,-2.0995,-2.1521,-2.346,-2.3854,-2.5261,-2.85,-2.9001,-2.9984,-3.1703,-3.3294,-3.4539,-3.4986,-3.5801,-3.6609,-3.7606,-3.6864,-3.062,-1.8835,-1.5638,0.1239,3.0094,3.6137,4.7631,6.2872,6.273,6.2296,6.1862,6.4448,6.5538,6.529,6.2266,6.067,5.9957,5.8786,5.6704,5.4552,5.513,5.4112,5.273,5.3203,5.3652,5.3681,5.2459,5.302,5.3308,4.9987,4.9648,4.9987,4.7769,4.7205,4.7205,4.7442,4.7324,4.7205,4.7349,4.7019,4.6686,4.6686,4.6446,4.6301,4.6301,4.678,4.6636,4.555,4.5379,4.511,4.4645,4.3778,4.3004,4.2627,4.1352,4.0163,3.9397,3.8287,3.7616,3.7856,3.7616,3.7714,3.8529,3.8194,3.841,3.9216,3.841,3.8648,3.9919,3.8648,3.8074,3.8074,3.7976,3.7976,-2.9294,-2.9053,-2.8694,-2.5881,-2.4773,-2.3849,-2.2245,-2.0768,-1.9379,-1.8541,-1.8832,-1.8541,-1.6413,-1.783,-1.9239,-1.9518,-1.867,-1.853,-1.9646,-1.8637,-1.7928,-1.9066,-1.8615,-1.8883,-2.0431,-2.082,-2.2035,-2.4991,-2.5293,-2.6158,-2.8053,-2.9292,-3.046,-3.1686,-3.3218,-3.4184,-3.4751,-3.4421,-2.535,-0.7607,-0.411,1.5014,4.7153,4.8126,5.6453,7.0018,6.9756,6.9437,6.884,6.6388,6.549,6.539,6.2795,6.1201,6.0214,5.9411,5.7559,5.546,5.6219,5.513,5.3442,5.4215,5.4245,5.389,5.3232,5.389,5.423,5.0879,5.0657,5.0768,4.8236,4.756,4.756,4.7821,4.7703,4.756,4.7821,4.7349,4.69,4.6806,4.6276,4.5768,4.5793,4.5864,4.5476,4.4398,4.4374,4.4103,4.3505,4.2627,4.1888,4.1505,4.0271,3.9192,3.8312,3.7573,3.7154,3.7374,3.7374,3.7714,3.8529,3.7834,3.7736,3.8529,3.7834,3.7834,3.8648,3.7834,3.7374,3.7374,3.7976,3.8477,0.0,0.0,0.0,-2.9261,-2.6616,-2.432,-2.4309,-2.0407,-1.7107,-1.8121,-1.7127,-1.6131,-1.599,-1.599,-1.599,-1.599,-1.599,-1.599,-1.6131,-1.6676,-1.7087,-1.7087,-1.7638,-1.8186,-1.8186,-1.8186,-1.8714,-1.9826,-2.0341,-2.1474,-2.3391,-2.4342,-2.6054,-2.8821,-3.2524,-3.355,-3.1367,-3.0662,-2.179,-0.4836,0.1226,1.9074,4.6837,4.9701,5.8064,7.023,6.9548,6.863,6.7542,6.6114,6.5426,6.5171,6.2829,6.1365,6.0501,5.9849,5.8332,5.6796,5.7527,5.6445,5.4887,5.5629,5.516,5.4406,5.4671,5.5006,5.4743,5.2352,5.1674,5.1155,4.8842,4.8172,4.8172,4.8172,4.8172,4.8172,4.8172,4.7677,4.7087,4.69,4.5622,4.4719,4.4792,4.3879,4.3255,4.3255,4.2374,4.2224,4.3505,4.1377,4.0257,4.1482,3.9996,3.8712,3.8312,3.7819,3.7374,3.7374,3.7374,3.7374,3.7374,3.7374,3.7374,3.7374,3.7374,3.7374,3.7495,3.7374,3.7374,3.7495,3.8096,3.8716,-3.0879,0.0,0.0,0.0,0.0,0.0,-2.2405,-2.0299,-1.8369,-1.5717,-1.5717,-1.5425,-1.3317,-1.4039,-1.4608,-1.3031,-1.3737,-1.4867,-1.599,-1.4441,-1.3595,-1.4716,-1.4006,-1.4148,-1.5821,-1.5962,-1.6685,-1.8563,-1.7775,-1.7713,-1.8977,-2.0637,-2.1894,-2.2843,-2.6258,-2.8299,-2.8996,-1.6957,-0.329,1.1992,2.6745,4.4369,6.4117,6.5094,6.7117,6.987,6.976,6.8758,6.7193,6.594,6.5497,6.5267,6.2343,6.1036,6.067,5.9177,5.8211,5.7621,5.8395,5.7307,5.5629,5.6383,5.5758,5.4671,5.4803,5.5006,5.4743,5.2352,5.1674,5.1155,4.8842,4.8172,4.8172,4.8172,4.8172,4.8172,4.8172,4.7324,4.6704,4.7349,4.625,4.5135,4.5159,4.4275,4.3255,4.242,4.2166,4.1888,4.1399,4.0647,4.0279,4.0647,3.9533,3.8712,3.8712,3.7942,3.7374,3.7374,3.7374,3.7374,3.7374,3.7374,3.7616,3.7976,3.8096,3.8335,3.8812,3.8335,3.8096,3.8096,3.9167,3.9989,-3.0626,-3.1074,-3.0796,-2.8985,0.0,0.0,-2.2111,-1.8992,-1.6272,-1.4449,-1.4164,-1.3737,-1.19,-1.2624,-1.2911,-1.1763,-1.2323,-1.3174,-1.4156,-1.2753,-1.19,-1.261,-1.19,-1.1749,-1.3009,-1.3151,-1.3863,-1.5707,-1.4432,-1.4059,-1.5083,-1.6787,-1.799,-1.8501,-2.1686,-2.405,-2.5062,-0.9422,0.6261,2.1636,3.922,5.584,7.1112,7.1326,7.0766,6.969,6.9763,6.8709,6.6967,6.6064,6.5561,6.5171,6.2761,6.1656,6.1168,5.9881,5.9088,5.8637,5.9331,5.8423,5.696,5.7339,5.6511,5.532,5.5078,5.4743,5.4068,5.2244,5.1044,4.9928,4.8521,4.8172,4.8172,4.8172,4.8172,4.8172,4.8172,4.7205,4.6465,4.7442,4.5597,4.4003,4.4521,4.3255,4.1888,4.1293,4.1293,4.1164,4.0409,3.9866,3.967,3.9995,3.8893,3.8226,3.8554,3.7443,3.7011,3.7374,3.7011,3.6989,3.7374,3.7616,3.7976,3.8335,3.8596,3.9072,3.9638,3.9072,3.8834,3.9167,3.9873,4.0595,-2.9493,-3.0255,-3.0233,-2.924,-2.5313,0.0,-2.2124,-1.7272,-1.3024,-1.4022,-1.2896,-1.1763,-1.1763,-1.1763,-1.1763,-1.1763,-1.1763,-1.1619,-1.1619,-1.1619,-1.1476,-1.1044,-1.1044,-1.0894,-1.0599,-1.0455,-1.1044,-1.2086,-1.0742,-1.0173,-1.1011,-1.2007,-1.3108,-1.4014,-1.7442,-1.8653,-1.7673,-0.3179,1.2039,2.7953,4.4663,5.9171,7.132,7.1501,7.0874,6.9641,6.9623,6.8601,6.6852,6.6368,6.5788,6.5043,6.3608,6.2557,6.185,6.1152,6.043,5.9859,6.0292,5.9531,5.8391,5.8177,5.715,5.5956,5.535,5.4406,5.3308,5.2,5.0041,4.8172,4.8172,4.8172,4.8172,4.8172,4.8172,4.8172,4.8172,4.7087,4.6345,4.7324,4.4449,4.2097,4.338,4.1505,3.9888,4.0279,4.0279,4.0279,4.0149,3.9341,3.8887,3.9195,3.7933,3.7192,3.7768,3.6533,3.6135,3.7132,3.638,3.638,3.7495,3.7856,3.8118,3.8335,3.893,3.9638,4.0339,3.9638,3.9755,4.0339,4.0339,4.0595,-2.5456,-2.6627,-2.7279,-2.5912,-2.3407,0.0,-1.8928,-1.6919,-1.5095,-1.3428,-1.2602,-1.2316,-1.2466,-1.261,-1.261,-1.261,-1.2338,-1.2058,-1.1619,-1.1619,-1.1476,-1.1044,-1.1044,-1.0894,-1.0599,-1.0455,-1.0612,-1.107,-0.8912,-0.6023,-0.2568,-0.2613,-0.2783,-0.2607,-0.7386,-0.5657,0.342,1.6555,2.9117,4.1172,5.8816,6.8683,7.1373,7.1572,7.0968,6.9771,6.9908,6.8677,6.6664,6.6546,6.6002,6.4976,6.298,6.2088,6.177,6.0397,6.012,6.0292,6.0378,5.9411,5.8177,5.8085,5.6896,5.535,5.528,5.5078,5.4406,5.2352,5.0041,4.8172,4.8172,4.8172,4.8172,4.8172,4.8172,4.8172,4.8172,4.6704,4.5597,4.6345,4.4127,4.227,4.2546,4.1271,4.0149,4.0279,4.0279,4.0018,3.9078,3.8814,3.8228,3.7074,3.6363,3.5916,3.5722,3.5146,3.5129,3.6135,3.5992,3.6624,3.8096,3.7275,3.7253,3.8313,3.8885,3.9849,4.0942,4.0339,4.0363,4.0942,4.0942,4.1057,-2.2566,-2.4132,-2.453,-2.3083,-2.1429,0.0,0.0,-1.6079,-1.464,-1.3579,-1.2896,-1.2452,-1.2753,-1.3761,-1.4189,-1.3047,-1.3182,-1.2745,-1.1025,-1.1181,-1.1476,-1.0913,-1.0756,-1.0468,-0.9908,-0.9902,-0.8719,-0.5657,-0.2675,-0.0302,0.1206,0.2307,0.2635,0.2462,-0.0,0.2874,1.1531,2.5293,3.7091,4.7004,6.3455,7.1351,7.1506,7.1604,7.1064,7.0047,6.998,6.8833,6.6952,6.6952,6.6247,6.4976,6.3131,6.2402,6.2279,6.0853,6.0581,6.075,6.075,6.0001,5.8934,5.8483,5.7402,5.6213,5.5581,5.4611,5.3308,5.1537,4.9702,4.8431,4.8198,4.8172,4.8198,4.8431,4.8315,4.8172,4.7938,4.6491,4.5257,4.5257,4.3654,4.2293,4.2293,4.1164,4.0149,3.9604,3.9473,3.9078,3.7996,3.7461,3.6777,3.6093,3.531,3.4913,3.4765,3.4127,3.4133,3.5273,3.4901,3.5273,3.6767,3.6524,3.711,3.8766,3.898,3.9826,4.1172,4.0199,4.0199,4.1172,4.1172,4.1172,-1.9764,-2.17,-2.1797,-2.0585,-1.9157,-1.7741,0.0,0.0,0.0,-1.388,-1.3182,-1.2745,-1.3039,-1.4474,-1.5195,-1.3476,-1.3745,-1.3294,-1.0868,-1.0875,-1.0887,-1.0041,-1.0035,-0.9746,-0.891,-0.8754,-0.6253,-0.0435,0.3565,0.5428,0.4673,0.6138,0.6965,0.6784,0.6448,1.0395,1.9155,3.0866,4.2063,5.2889,6.5384,7.1417,7.159,7.1497,7.1029,7.0241,6.9992,6.8897,6.7323,6.7323,6.6487,6.5145,6.3608,6.2973,6.2821,6.1628,6.1169,6.1169,6.1169,6.0633,5.9619,5.8844,5.7963,5.6862,5.575,5.386,5.1892,5.0768,4.9616,4.8663,4.8431,4.8431,4.8431,4.8663,4.8548,4.8172,4.7703,4.6491,4.5281,4.4422,4.3302,4.242,4.2166,4.1013,3.9866,3.8814,3.8528,3.7996,3.6789,3.5957,3.5355,3.5139,3.4274,3.3816,3.3836,3.3126,3.3398,3.4901,3.4047,3.4298,3.5911,3.6135,3.7089,3.8862,3.8625,3.9239,4.0803,3.9474,3.9474,4.0803,4.0803,4.0803,-1.6126,-1.8372,-1.9066,-1.772,-1.6498,-1.5414,-1.4828,0.0,-1.4386,-1.4006,0.0,-1.3753,-1.3753,0.0,0.0,-1.3904,-1.3611,-1.3325,-1.2896,-1.098,-0.8955,-0.7119,-0.7566,-0.7865,-0.7285,-0.6563,-0.4514,-0.0291,0.5465,0.9744,1.1768,1.2079,1.342,1.5811,1.2623,2.0135,3.9201,3.94,4.8584,6.6573,6.9885,7.1521,7.1583,7.118,7.0619,7.003,6.9701,6.8697,6.7323,6.7323,6.6641,6.5575,6.4148,6.3462,6.3049,6.1997,6.1628,6.1628,6.1628,6.045,5.8902,5.8812,5.759,5.5948,5.4815,5.3518,5.2216,5.1183,5.001,4.901,4.901,4.901,4.8895,4.8779,4.8895,4.8637,4.756,4.6849,4.6105,4.4546,4.3678,4.2822,4.155,4.0495,3.9561,3.8814,3.7842,3.6749,3.5685,3.5412,3.4814,3.3063,3.2855,3.2522,3.1819,3.191,3.2892,3.5108,3.4403,3.5129,3.7812,3.6359,3.6093,3.755,3.646,3.7067,3.9451,3.8149,3.8149,3.9474,3.9474,3.9474,-1.264,-1.3234,-1.272,-1.3344,-1.2157,-1.1553,-1.4475,-1.4849,-1.4369,-1.3989,0.0,0.0,0.0,0.0,0.0,0.0,-1.4315,-1.4022,-1.2166,-1.0849,-0.9109,-0.6945,-0.5502,-0.3475,-0.0435,-0.3201,-0.1598,0.6949,0.8659,1.0847,1.3972,1.6071,1.7452,1.8421,2.0822,2.9259,4.3967,4.6689,5.5051,6.9048,7.0797,7.1588,7.1534,7.1163,7.0706,7.0171,6.9816,6.8922,6.77,6.77,6.7081,6.5958,6.4738,6.3935,6.3388,6.2156,6.1709,6.1709,6.1709,6.0534,5.8844,5.7963,5.6988,5.6047,5.5089,5.4245,5.3489,5.243,5.1265,5.032,5.0181,4.9643,4.9125,4.924,4.9125,4.8753,4.7442,4.6968,4.6225,4.457,4.4075,4.3576,4.257,4.0991,3.9146,3.7441,3.6769,3.5957,3.4609,3.4902,3.458,3.3081,3.3121,3.2918,3.2094,3.2166,3.2657,3.3882,3.365,3.4153,3.5376,3.4632,3.4881,3.6215,3.5623,3.6338,3.8149,3.6824,3.646,3.7067,3.8506,3.9592,-0.8223,-0.8193,-0.747,-0.9865,-0.9308,-0.9336,-1.3776,-1.4833,-1.4736,-1.4006,-1.3888,0.0,0.0,0.0,-1.5177,-1.4047,0.0,-1.3721,-1.1442,-1.1155,-1.0138,-0.7657,-0.4477,-0.1301,0.1884,-0.1455,0.029,1.0425,0.9902,1.1312,1.6397,1.9041,2.102,2.2054,2.8003,3.6075,4.6153,5.1662,5.943,6.9321,7.0795,7.1538,7.1546,7.1179,7.0783,7.04,6.9999,6.9176,6.8111,6.8111,6.7486,6.6452,6.5207,6.4497,6.3935,6.2547,6.1951,6.187,6.1951,6.082,5.9056,5.7401,5.6664,5.6342,5.5391,5.4988,5.4479,5.304,5.2,5.1265,5.0712,4.9983,4.9354,4.9556,4.9469,4.8983,4.7442,4.6942,4.6371,4.457,4.4347,4.4099,4.32,4.1097,3.8993,3.7038,3.6112,3.5314,3.4214,3.4508,3.4463,3.3348,3.352,3.3331,3.2497,3.2422,3.2676,3.3038,3.367,3.3796,3.3418,3.3418,3.4027,3.5376,3.5005,3.55,3.6824,3.55,3.5253,3.5971,3.779,3.9239,-0.2526,-0.4036,-0.4968,-0.8459,-0.9399,-1.0064,-1.2367,-1.4548,-1.5712,-1.4223,-1.3912,-1.3896,-1.388,-1.2731,-1.2309,0.0,-1.2738,0.0,0.0,-1.2173,-1.1592,-0.8405,-0.5075,-0.3482,-0.4346,-0.2763,0.0581,0.5915,0.7352,1.1729,2.0209,2.1554,2.4195,2.9074,3.2738,3.9403,4.9004,5.379,6.0619,6.9595,7.0552,7.1247,7.1682,7.0982,7.07,7.0681,7.0071,6.9303,6.8511,6.8511,6.801,6.7004,6.5625,6.5039,6.4838,6.3233,6.2537,6.2381,6.2615,6.1317,5.9234,5.7401,5.6761,5.6567,5.5391,5.5089,5.4654,5.2323,5.1674,5.1484,5.032,5.001,4.9897,4.967,4.9783,4.9415,4.718,4.6942,4.661,4.4717,4.4347,4.3826,4.2546,4.0817,3.9387,3.8597,3.6499,3.4921,3.4921,3.4921,3.4599,3.3747,3.3653,3.3331,3.2497,3.2676,3.3038,3.3418,3.4652,3.4757,3.3418,3.3418,3.4027,3.5376,3.4153,3.4153,3.55,3.4153,3.4757,3.7309,3.7287,3.7407,0.1426,0.1421,0.1562,-0.2134,-0.3565,-0.4572,-0.6892,-0.9655,-1.2022,-1.3658,-1.4694,-1.4542,-1.1449,-1.1005,-1.1142,0.0,0.0,-1.1012,0.0,-1.1886,-1.1449,-0.9994,-0.9147,-0.6383,-0.0289,-0.087,0.2312,1.1938,1.1619,1.4566,2.2692,2.4595,2.7338,3.1548,3.7909,4.4603,5.1601,5.8287,6.445,7.0001,7.0952,7.1444,7.1497,7.0989,7.0667,7.0477,6.9999,6.9303,6.8511,6.8511,6.801,6.7061,6.5625,6.5105,6.4905,6.3457,6.2847,6.2659,6.1447,6.0586,5.9697,5.7808,5.7115,5.6796,5.569,5.5888,5.5986,5.4038,5.3308,5.2857,5.192,5.0878,5.001,4.9897,4.9897,4.9415,4.7416,4.7087,4.661,4.4693,4.4347,4.4223,4.3701,4.2397,4.0581,3.82,3.7153,3.6228,3.504,3.5084,3.4969,3.4107,3.3931,3.3676,3.3096,3.3165,3.3292,3.3418,3.3796,3.3902,3.3418,3.3418,3.367,3.4027,3.367,3.367,3.4027,3.367,3.3902,3.4757,3.5602,3.6946,0.6789,0.709,0.7395,0.3767,0.1444,-0.072,-0.3618,-0.6941,-0.8806,-0.6909,-0.8366,-0.8652,-0.4157,-0.5757,-0.7944,0.0,0.0,0.0,0.0,-0.9285,-0.8703,-0.8256,-0.9152,-0.7251,-0.0866,0.0289,0.4323,1.3208,1.3891,1.7238,2.4679,2.6954,3.0224,3.5065,4.197,4.8506,5.4545,6.127,6.6598,7.045,7.1096,7.1444,7.1416,7.1087,7.0812,7.054,7.0247,6.974,6.9015,6.8884,6.8368,6.754,6.6211,6.5561,6.5105,6.3677,6.3076,6.2813,6.0887,6.0214,5.987,5.8087,5.7401,5.7084,5.6378,5.6669,5.6954,5.546,5.4422,5.3652,5.2823,5.1349,5.001,5.001,5.001,4.9556,4.756,4.7205,4.661,4.4693,4.4347,4.4347,4.4347,4.3576,4.2016,3.8861,3.8088,3.7173,3.5451,3.5375,3.5082,3.4483,3.4187,3.3887,3.3457,3.3418,3.3418,3.3418,3.3418,3.3418,3.3418,3.3418,3.3418,3.3418,3.3418,3.3418,3.3418,3.3418,3.367,3.4153,3.4528,3.5848]}]]